GFSSE_prec_cloud_003.txt.gz
Cloud_Cover
5 0 0 1 1 0 0 6 40 20 0 0 0 0 2 55 79 12 61 20 61 98 10 9 0 33 0 0 40 99 96 23 0 0 0 0 0 0 86 12 0 30 0
0 0 0 7 0 0 0 0 0 0 0 0 0 0 32 95 95 5 25 0 100 73 4 30 44 29 5 90 100 100 16 35 1 0 0 0 0 0 42 0 0 22 0
4 0 0 0 93 1 0 0 0 0 0 0 0 100 48 35 19 0 51 75 100 90 0 5 0 54 100 100 96 100 60 0 0 0 0 0 0 0 0 0 0 0 4
1 0 2 0 0 40 42 1 0 0 0 0 0 96 100 100 100 100 11 52 0 0 1 1 40 100 100 36 2 0 60 10 1 0 0 0 0 0 0 0 0 0 34
0 0 0 0 100 98 79 0 0 0 0 0 0 15 100 82 100 100 100 94 15 0 0 4 95 100 44 7 45 100 100 64 0 0 0 0 0 0 0 0 3 0 0
1 0 0 11 1 4 0 85 0 0 0 0 0 0 100 100 78 100 33 12 2 0 6 100 100 66 2 5 99 5 38 100 3 7 14 1 0 0 21 0 0 0 0
4 0 0 0 0 0 0 10 0 0 0 0 0 0 45 90 96 74 86 0 2 0 54 96 0 38 100 100 100 100 46 5 5 14 3 20 3 0 0 0 7 0 4
1 0 0 0 0 0 0 60 3 65 3 0 0 0 0 14 12 85 75 0 0 1 100 95 64 100 100 100 100 98 9 4 4 0 0 5 5 3 0 0 0 3 22
11 0 0 0 0 0 0 31 25 10 51 0 0 0 0 0 0 0 1 0 0 32 70 77 44 100 100 100 100 29 3 41 3 2 0 6 5 5 0 0 0 15 5
0 0 0 0 0 10 25 0 0 0 0 0 0 0 0 0 0 0 0 0 0 0 76 100 100 100 51 98 100 100 100 60 0 1 5 6 5 0 0 3 0 0 5
0 0 0 0 0 0 1 4 0 0 0 1 2 1 0 0 0 0 0 0 0 0 76 100 100 100 100 100 100 94 53 2 0 5 5 5 5 4 5 0 0 0 0
0 0 0 0 3 5 1 0 12 9 11 2 0 0 0 4 0 0 0 0 0 0 99 100 100 100 100 89 62 100 83 0 5 6 5 5 5 5 5 2 0 0 0
5 0 0 0 2 8 5 3 2 0 0 0 0 1 1 3 1 0 0 0 0 6 79 100 100 100 100 100 100 100 5 0 5 5 5 5 4 1 0 0 4 5 5
5 5 0 5 1 5 4 4 5 0 0 5 2 0 21 45 16 20 22 24 15 28 100 100 100 100 100 100 100 23 16 12 6 6 1 2 0 0 0 0 1 2 3
5 5 5 1 5 60 95 12 6 5 5 5 1 12 20 31 88 51 28 36 45 84 89 100 100 100 100 58 31 29 30 36 34 38 6 20 11 2 3 5 5 21 8
2 1 5 0 0 0 5 34 85 12 3 8 17 22 25 25 29 31 48 98 100 100 100 100 100 100 100 98 90 80 6 8 13 33 9 48 10 41 5 0 0 8 60
3 0 5 5 3 13 35 23 16 23 7 36 32 23 30 30 43 66 96 100 100 100 100 100 34 18 7 2 4 5 5 5 5 5 5 5 5 10 44 5 4 0 1
5 0 5 77 59 42 5 10 6 30 30 37 17 36 48 49 38 47 100 88 100 74 11 5 29 14 10 5 4 2 5 4 13 5 3 4 12 5 5 5 3 0 0
5 39 88 25 48 95 62 17 25 5 26 59 64 50 12 0 3 5 5 7 37 5 5 5 2 0 0 0 4 5 17 22 7 2 0 8 65 51 97 9 5 5 20
1 4 5 98 60 5 5 17 49 23 1 1 1 0 0 0 0 0 4 5 4 0 1 2 0 0 0 2 28 28 5 3 0 0 14 2 17 40 19 5 21 100 6
4 80 91 43 13 38 26 58 86 88 34 57 5 5 0 0 0 0 0 0 0 0 0 1 3 6 28 5 2 3 0 0 0 0 4 7 5 5 5 5 74 100 100
14 17 69 39 63 65 94 100 98 92 41 60 7 5 0 0 0 0 0 4 5 5 5 28 47 20 5 5 4 0 0 1 1 4 3 5 5 5 5 5 5 5 0
100 91 41 99 100 96 55 5 5 5 5 5 5 4 5 2 0 0 0 2 4 5 1 0 0 0 2 5 0 0 0 0 4 18 8 60 42 15 5 6 5 8 5
29 21 5 53 43 32 63 39 93 20 5 5 0 0 0 1 0 0 0 0 0 0 0 0 0 3 0 3 5 4 0 0 0 0 4 5 6 5 14 31 17 5 5
5 8 50 71 95 100 95 38 5 5 5 4 5 5 5 6 5 1 1 0 0 0 0 0 2 5 3 0 0 2 5 5 58 5 5 0 0 0 1 5 5 0 0
99 82 55 90 48 4 0 4 5 0 2 4 4 0 0 4 5 5 5 59 52 48 26 5 5 5 0 5 5 5 5 5 2 0 0 0 0 0 0 0 0 4 4

GFSSE_prec_cloud_006.txt.gz
Cloud_Cover
0 0 0 5 12 52 18 93 55 0 0 0 0 0 8 55 17 6 0 98 34 100 50 56 77 72 8 3 46 100 100 56 0 0 0 0 0 0 0 100 0 41 22
100 58 0 2 0 6 5 100 27 0 0 0 0 0 20 82 99 94 0 0 7 75 0 26 100 64 22 47 22 57 41 8 5 2 0 0 0 0 0 59 0 47 97
100 41 0 2 35 10 0 0 0 0 0 0 0 3 1 43 97 0 0 0 96 49 0 0 3 0 0 38 40 100 100 100 5 4 0 0 0 0 0 0 0 0 4
100 100 48 7 20 1 89 19 0 0 0 0 1 96 83 46 100 100 41 4 0 0 0 0 0 0 36 12 44 100 100 100 3 5 81 29 3 0 0 0 0 0 0
100 100 57 4 1 49 6 0 0 0 0 0 0 33 100 81 43 100 100 68 8 0 0 0 0 0 1 0 100 100 100 55 66 100 86 4 4 0 13 0 0 0 0
100 8 2 1 0 0 0 0 0 0 0 0 0 0 10 51 20 100 100 98 0 0 0 0 0 0 0 52 100 100 68 4 100 52 59 6 3 0 1 3 8 0 0
100 96 8 0 0 0 0 0 0 0 0 0 0 0 0 0 33 90 96 67 0 0 0 0 0 0 9 100 74 4 6 78 100 100 69 5 1 0 0 0 0 1 0
100 100 100 5 2 0 0 0 0 0 0 0 0 0 0 0 0 11 72 0 0 1 0 0 0 0 91 53 8 49 100 100 100 96 28 5 5 3 0 0 4 5 5
100 98 20 0 0 0 0 0 0 0 0 0 0 0 0 0 0 0 0 0 0 0 0 0 0 0 80 38 100 100 100 100 100 64 100 100 95 0 0 0 5 5 5
98 15 5 0 0 0 0 0 0 0 0 0 2 0 0 0 0 0 0 0 0 0 0 0 0 0 86 100 100 100 100 100 100 100 100 100 2 0 0 5 5 5 4
100 17 0 0 0 0 0 0 0 0 0 0 0 0 2 0 0 0 0 0 0 0 0 0 0 5 86 84 100 100 100 100 100 100 5 2 2 5 5 5 5 1 0
26 3 3 0 0 0 0 0 0 0 0 0 0 0 0 0 0 0 0 0 0 0 0 0 0 0 99 100 100 100 100 100 100 32 100 100 2 5 45 6 5 5 5
11 5 4 0 0 0 0 4 1 0 0 2 0 0 0 0 0 4 5 5 0 0 0 0 0 0 98 100 100 100 100 100 100 100 100 17 3 7 26 5 5 4 8
6 5 5 0 0 0 0 4 1 0 0 5 0 5 5 5 7 22 5 6 17 37 53 41 100 100 100 100 100 100 100 100 100 100 32 2 5 5 5 5 5 11 96
2 2 2 0 0 0 1 10 21 71 56 23 9 18 13 36 89 44 40 26 100 100 100 100 100 100 100 100 100 100 100 100 94 91 77 96 68 5 5 0 5 6 58
0 4 3 0 0 0 0 21 2 14 85 33 79 74 50 13 2 27 93 100 100 100 100 100 79 50 8 77 100 100 100 80 52 4 65 6 3 5 5 5 5 5 5
5 1 5 2 0 0 0 0 60 52 70 100 98 86 94 99 21 90 100 100 79 50 64 42 88 96 35 24 90 40 35 6 5 5 0 0 4 5 3 12 5 5 39
9 5 5 1 1 5 61 12 73 100 88 64 26 100 51 20 15 62 8 0 0 11 52 38 60 84 100 100 74 22 6 4 5 1 3 0 58 92 100 68 95 5 2
52 4 3 5 5 5 19 71 100 28 91 100 99 56 0 0 0 0 0 0 0 0 5 46 78 59 84 73 3 1 0 3 0 0 0 1 23 42 51 7 62 7 38
0 4 5 5 5 5 23 34 36 51 78 11 42 4 5 5 5 1 0 0 0 0 0 1 1 2 5 5 4 5 3 0 0 3 4 64 11 5 0 0 0 1 4
0 0 0 5 4 61 19 34 59 83 100 100 100 100 100 99 73 3 1 0 0 0 0 0 0 0 0 0 0 5 5 20 22 48 65 10 5 2 0 5 5 5 3
0 0 0 2 22 13 6 100 96 100 74 71 36 5 5 5 4 4 5 5 0 1 0 0 0 4 5 4 5 5 29 62 5 1 4 4 0 2 5 3 0 0 4
0 0 1 51 16 18 80 75 43 48 83 71 45 48 5 5 5 0 0 0 0 0 2 0 0 1 4 3 0 0 2 5 4 13 7 4 4 5 5 5 5 5 5
0 5 5 5 5 5 5 5 9 5 6 14 6 4 2 1 1 0 0 0 0 0 1 3 5 3 5 5 5 5 5 0 0 3 5 5 5 6 5 47 20 5 5
4 5 4 4 5 0 1 11 94 5 1 0 0 0 0 0 0 0 0 5 5 5 5 5 5 0 0 0 0 5 9 7 6 4 4 5 5 5 0 0 0 1 1
5 5 5 5 9 36 91 49 5 5 3 0 0 0 0 0 2 44 63 70 48 32 8 5 5 2 0 5 5 5 5 5 0 1 0 0 0 2 3 4 0 0 0

GFSSE_prec_cloud_009.txt.gz
Cloud_Cover
10 11 5 0 55 59 61 25 40 0 0 0 0 0 24 1 7 0 0 0 0 2 66 100 48 76 16 84 76 22 47 15 5 0 0 0 0 0 0 0 4 0 2
5 4 0 60 100 9 23 36 74 0 0 0 0 0 100 76 99 47 16 0 0 0 0 82 100 99 24 26 1 5 29 7 3 0 3 4 4 0 0 0 0 0 43
7 25 53 100 100 80 12 0 0 0 0 0 0 0 0 82 98 0 0 0 0 0 0 0 1 0 0 0 0 0 18 64 2 50 100 76 4 0 0 0 0 0 0
100 100 100 100 100 100 5 1 0 0 0 0 0 98 66 57 100 100 74 14 0 0 0 0 0 0 0 0 0 0 0 26 5 100 100 100 5 21 98 10 0 0 0
100 100 100 100 100 100 91 5 3 0 0 0 0 3 4 69 100 100 100 9 0 0 0 0 0 0 0 0 0 0 64 34 30 100 100 100 3 69 12 4 3 0 0
100 88 100 100 100 50 39 5 4 0 0 0 0 0 0 0 33 100 100 0 0 0 0 0 0 0 0 0 0 0 5 45 100 100 100 89 6 78 99 9 11 0 0
100 100 100 100 100 100 99 80 4 0 0 0 0 0 0 0 10 89 58 0 0 0 0 0 0 0 0 3 3 6 4 7 100 100 100 66 100 100 99 4 0 4 0
88 97 100 100 100 100 70 92 2 0 0 0 0 0 0 0 0 0 65 0 0 0 1 0 0 0 0 0 1 7 4 94 100 75 28 47 100 100 100 74 8 5 1
51 45 100 100 100 100 63 19 0 0 0 0 0 0 0 0 0 0 0 0 0 0 1 0 4 5 0 5 0 0 34 100 86 60 100 100 100 100 5 5 61 71 0
100 100 100 100 100 100 62 7 0 0 0 0 0 0 0 0 0 0 0 0 0 0 0 0 0 5 1 5 0 0 69 100 100 100 100 100 100 98 73 90 9 4 8
96 98 88 100 99 94 76 44 4 0 0 0 0 0 0 0 0 0 0 0 0 0 0 0 0 0 1 5 1 0 74 100 100 98 100 100 100 100 24 6 6 51 1
96 94 37 5 5 38 29 17 0 0 0 0 0 0 3 0 0 0 0 0 0 0 0 0 0 0 0 9 10 9 66 100 94 100 100 100 100 92 80 70 99 18 3
74 80 47 14 7 6 5 1 3 5 0 0 0 0 0 1 5 4 0 5 5 5 5 3 9 60 92 100 100 100 100 100 100 100 100 100 100 100 100 100 100 4 0
94 100 47 52 6 10 5 4 0 0 4 8 4 16 0 1 5 11 67 60 100 100 100 100 100 100 100 87 74 0 12 95 100 100 100 100 100 100 100 100 41 0 4
99 67 64 41 17 3 1 0 0 16 3 0 0 58 10 6 89 72 98 71 96 98 99 75 21 30 51 11 4 5 5 13 37 100 100 100 100 100 65 5 5 4 21
44 7 5 5 5 0 0 3 3 66 100 54 100 100 100 17 7 83 100 100 100 100 92 5 5 5 51 85 52 16 17 36 84 100 100 100 100 97 6 5 3 3 64
20 13 5 1 0 5 5 47 81 55 99 100 100 100 100 100 100 100 100 100 64 1 0 0 0 5 42 38 95 83 82 81 64 65 100 100 100 95 6 5 98 12 0
56 5 5 5 5 22 5 62 100 100 100 100 100 100 100 76 76 87 39 0 0 0 0 0 0 0 3 12 20 66 79 88 94 71 52 8 3 4 11 0 4 28 58
21 5 5 5 21 92 23 68 100 100 100 100 100 100 56 64 39 20 5 4 2 0 0 0 0 0 0 0 2 5 5 5 21 5 25 5 1 0 0 0 0 2 4
14 75 23 98 100 100 5 55 100 100 80 52 75 72 100 91 100 100 98 45 5 2 0 0 0 0 0 0 0 0 0 0 0 0 1 0 0 0 2 4 5 5 20
8 34 5 49 84 5 0 1 32 66 82 97 85 100 84 91 63 16 13 2 5 2 0 0 0 0 0 0 0 0 0 0 3 0 2 4 4 5 5 5 5 5 5
0 0 3 0 3 0 4 5 9 65 53 25 62 60 24 5 5 5 5 5 3 0 0 0 0 0 0 0 0 0 0 1 0 0 0 0 0 4 5 5 5 4 5
3 4 2 0 0 0 5 5 3 5 5 5 11 5 5 5 5 5 5 2 2 2 0 0 0 0 0 0 0 0 0 1 2 5 7 5 13 23 15 9 29 27 20
0 0 0 0 0 5 5 1 0 0 2 94 18 4 4 0 0 0 0 0 0 2 4 2 4 0 0 0 0 0 0 0 0 0 10 96 100 100 100 100 100 100 79
0 0 0 0 0 1 0 0 21 77 47 5 5 5 0 0 0 0 0 0 5 5 5 5 0 0 0 0 0 0 0 0 0 0 0 0 0 4 26 5 5 5 5
0 0 0 0 3 5 4 60 91 10 3 0 0 0 0 0 0 0 5 5 5 5 5 2 1 1 0 0 0 0 0 0 0 0 0 0 1 0 0 0 0 0 0

GFSSE_prec_cloud_012.txt.gz
Cloud_Cover
46 25 93 7 27 45 4 0 57 7 0 0 0 0 0 1 0 0 62 1 0 0 8 99 62 61 68 72 27 17 0 0 0 0 0 0 5 0 0 0 0 0 0
6 54 79 77 6 4 5 5 14 4 0 0 0 13 100 100 99 38 54 13 0 0 0 4 16 0 5 9 0 0 0 0 0 0 0 3 5 0 0 6 0 0 17
13 43 70 100 24 6 20 22 33 28 3 3 0 0 3 89 98 0 58 13 0 0 0 0 0 0 0 0 0 0 0 0 0 0 0 2 5 5 25 36 9 0 0
5 5 5 70 8 50 95 100 100 94 10 0 0 0 0 0 67 100 73 0 0 0 0 0 0 0 0 0 0 0 0 0 0 0 0 3 7 6 100 100 99 4 5
7 5 5 60 94 100 100 100 100 100 31 30 4 0 76 11 91 96 93 0 0 0 0 0 0 0 0 0 0 0 0 0 0 0 0 7 6 89 100 100 33 10 2
83 96 52 58 96 100 100 100 100 100 100 99 68 5 0 16 74 89 12 0 0 0 0 0 0 0 0 0 0 0 0 0 0 2 0 41 100 100 100 92 7 5 97
5 80 100 100 100 100 100 100 100 76 24 14 7 5 0 2 10 49 0 0 0 0 0 0 0 0 5 4 4 100 32 11 4 3 1 7 100 100 100 18 87 87 97
6 24 100 100 100 100 100 100 100 100 85 81 68 5 5 0 0 4 5 0 0 0 0 1 2 0 5 5 3 0 5 5 5 1 2 5 16 100 100 64 62 97 100
95 9 48 32 97 100 100 100 100 100 99 78 83 5 5 0 0 0 0 0 0 0 0 1 0 0 72 4 5 5 5 5 5 7 1 5 90 100 96 99 100 100 100
100 100 100 100 100 100 100 100 67 100 100 84 6 3 0 1 0 1 0 0 0 0 0 0 0 0 0 0 2 83 7 38 35 5 0 59 100 100 100 100 100 100 100
100 100 100 100 100 100 100 100 97 100 99 57 5 2 5 2 0 0 3 4 4 2 0 1 0 0 0 0 0 2 4 77 99 23 14 97 100 100 100 92 100 100 100
100 75 70 99 85 100 64 43 5 34 5 5 8 0 0 0 0 3 2 5 2 2 3 1 3 10 24 25 96 93 95 74 74 74 30 83 100 100 100 100 100 100 100
48 100 65 92 91 87 84 9 24 8 11 5 5 5 0 0 0 0 0 9 30 4 5 58 69 92 66 8 5 5 1 0 3 5 5 8 100 100 100 100 100 100 100
100 99 100 31 41 21 77 33 77 33 7 9 55 4 3 3 4 14 93 100 100 100 100 100 100 96 100 100 100 43 5 4 1 0 5 5 93 98 100 100 100 100 100
69 89 66 9 5 23 66 10 9 21 5 5 5 4 2 4 33 100 90 95 70 100 100 99 38 7 5 41 14 84 100 56 33 5 5 5 5 37 95 100 100 100 100
87 95 73 99 100 100 59 14 6 27 68 92 57 87 100 100 62 100 100 100 100 100 69 36 5 18 88 44 5 1 5 24 85 95 31 5 28 22 6 32 100 100 100
44 100 83 100 100 100 68 79 89 100 100 100 100 100 100 100 100 100 100 100 65 8 0 0 5 32 8 0 0 0 0 4 5 5 5 5 83 87 42 90 99 100 85
100 70 39 5 57 37 26 87 100 100 100 100 100 100 100 100 100 94 20 19 16 6 5 5 0 0 0 0 0 0 0 0 0 5 2 3 5 34 12 44 73 92 79
100 58 32 28 5 5 19 70 100 100 100 100 100 100 100 59 96 71 27 63 31 16 5 5 5 2 0 0 0 0 0 0 0 0 0 0 0 0 0 0 1 1 1
100 100 53 80 37 22 64 57 100 100 100 100 96 35 50 20 23 85 69 15 5 5 5 5 5 5 11 5 0 0 0 0 0 0 0 0 0 0 0 0 0 0 0
99 27 85 92 100 99 64 100 100 100 100 32 43 18 5 5 8 87 79 7 5 5 12 14 26 4 1 0 0 0 0 0 0 0 0 1 0 0 0 0 0 0 2
10 55 38 40 18 14 82 80 38 29 100 63 5 5 5 5 5 5 5 2 0 0 0 0 0 0 0 0 0 0 11 7 5 1 0 0 0 0 0 0 0 3 3
0 1 5 4 0 5 30 100 100 100 45 2 0 0 0 0 0 0 0 0 0 0 0 0 0 0 0 0 0 0 0 0 0 4 2 0 0 0 0 3 2 3 4
0 5 0 0 5 40 44 16 5 5 2 0 4 5 0 0 0 0 0 0 0 0 0 0 0 0 0 0 0 0 0 0 0 0 1 1 4 5 5 0 0 2 1
2 1 0 5 5 5 0 0 0 0 0 3 5 1 0 0 0 0 0 0 0 0 0 0 0 0 0 0 0 0 0 0 0 0 0 0 0 5 5 0 0 2 5
0 0 5 9 11 0 0 0 0 0 5 5 5 5 0 0 0 1 0 0 0 0 0 0 0 0 0 0 0 0 0 0 0 0 0 0 0 0 0 1 2 2 1

GFSSE_prec_cloud_015.txt.gz
Cloud_Cover
0 0 88 61 65 20 42 6 5 1 0 7 79 58 4 6 0 0 0 36 0 0 6 100 84 72 99 47 22 0 0 0 0 0 0 0 0 0 0 0 0 1 0
0 4 0 0 3 5 7 5 5 4 0 0 5 12 34 62 0 24 88 13 0 0 0 0 0 0 34 32 0 0 0 0 0 0 0 0 0 0 0 4 0 5 0
2 15 0 3 27 11 27 75 5 4 3 5 5 81 64 98 100 5 59 0 0 0 0 0 0 0 0 0 0 0 5 0 0 0 0 0 0 0 0 0 5 4 2
21 18 0 0 5 2 38 93 40 14 96 81 5 84 6 43 90 100 10 0 0 0 0 0 0 0 0 0 0 0 0 0 1 0 0 0 0 0 0 0 28 12 5
98 19 4 0 0 3 22 4 100 100 100 76 5 17 100 73 100 81 0 0 0 0 0 0 0 0 0 0 0 0 0 0 0 0 0 0 0 0 0 92 100 51 31
95 100 84 5 4 5 5 5 100 91 100 37 75 100 100 97 100 22 0 0 0 0 0 0 0 0 0 0 2 24 2 0 0 0 2 4 1 0 5 0 98 99 100
100 100 100 98 7 5 10 68 100 100 100 80 100 96 9 85 100 90 29 0 0 0 0 0 0 0 0 0 5 0 50 52 1 2 1 5 5 5 8 1 74 100 100
100 100 100 100 40 8 5 100 100 97 100 100 100 100 100 100 89 24 5 5 1 0 0 0 0 0 0 1 2 2 5 5 4 3 0 32 56 49 5 5 16 100 100
100 100 100 100 100 55 7 23 100 100 100 100 100 100 100 38 5 55 5 5 1 0 0 0 0 0 0 0 0 0 5 81 5 6 5 5 94 100 27 5 16 62 98
100 100 100 100 100 100 100 30 18 100 100 100 100 100 32 39 13 5 0 0 0 0 0 0 0 0 0 0 0 5 4 45 41 44 90 98 44 92 74 12 5 8 95
100 100 100 84 99 100 100 100 100 100 100 100 100 100 29 3 1 2 0 1 5 2 4 2 5 4 9 76 85 100 90 93 91 50 85 57 98 97 46 26 22 100 100
79 50 35 48 63 93 100 92 92 38 93 100 100 10 5 4 5 0 0 2 4 4 5 5 14 94 73 5 6 5 6 4 3 2 0 0 52 44 5 5 99 100 100
86 20 71 92 52 67 61 81 37 25 55 39 38 21 6 20 5 4 0 13 7 0 91 82 89 100 34 5 5 87 77 98 90 16 5 1 0 12 5 5 6 99 100
100 100 100 98 13 17 96 42 82 35 18 18 26 5 28 5 15 5 36 99 100 100 100 100 84 47 71 64 70 57 44 100 100 100 98 36 8 5 1 5 5 97 89
92 83 93 62 6 5 58 24 18 11 8 32 6 24 63 8 85 78 100 100 100 100 95 51 11 3 4 5 5 5 5 68 89 86 97 99 100 100 68 42 10 5 5
98 100 100 100 44 40 22 79 35 26 18 29 78 78 100 100 100 100 100 100 100 100 50 7 5 5 3 0 15 0 2 5 3 4 4 5 86 96 99 100 93 78 100
83 100 100 100 98 14 35 23 81 77 64 68 100 100 100 100 100 100 100 100 75 12 3 5 5 5 5 5 5 0 0 0 0 0 0 0 0 1 5 5 5 59 88
1 90 100 100 100 100 100 100 100 100 100 100 100 100 100 100 100 100 77 18 8 5 5 5 5 5 5 5 5 5 5 1 4 0 0 0 0 0 0 0 0 4 5
0 0 90 100 97 100 100 88 100 100 100 100 100 100 100 100 100 100 91 5 5 53 61 79 67 28 5 5 5 3 2 3 1 0 0 0 0 0 0 0 0 0 0
0 0 0 17 33 96 100 100 100 100 100 100 100 100 85 99 67 57 7 6 5 5 5 6 5 5 4 0 0 0 0 0 0 0 0 0 2 4 6 25 5 5 5
0 0 0 0 5 41 60 100 100 100 100 100 100 96 100 15 44 3 5 5 0 0 1 4 0 0 0 0 0 0 0 0 5 5 0 0 0 0 0 0 0 0 0
0 0 0 0 6 64 58 42 84 100 100 100 94 82 45 5 0 0 0 0 0 0 0 0 0 0 0 0 0 0 0 1 0 0 0 0 0 0 0 0 0 0 0
0 0 0 0 0 34 55 77 94 89 98 100 75 35 5 0 0 0 0 0 0 0 0 0 0 0 0 0 0 0 0 0 0 0 0 0 0 0 0 0 0 0 0
0 0 0 0 0 2 23 74 100 64 84 98 5 54 0 0 0 0 0 0 0 0 0 0 0 0 0 0 0 0 0 0 0 0 0 5 4 4 5 5 4 5 5
0 0 0 0 0 7 7 100 100 100 80 5 5 1 0 5 0 0 0 0 0 0 0 0 0 0 0 0 0 0 0 0 0 0 0 0 4 5 5 5 5 5 5
0 0 0 0 0 37 92 70 42 19 5 5 5 5 7 5 4 0 0 0 0 0 0 0 0 0 0 0 0 0 0 0 0 0 0 0 0 0 1 3 5 5 5

GFSSE_prec_cloud_018.txt.gz
Cloud_Cover
0 0 80 30 53 100 37 7 3 5 5 5 0 2 1 8 5 4 5 0 0 0 6 100 92 100 100 95 60 12 0 0 0 0 0 0 0 0 3 16 1 0 0
0 0 30 10 100 2 6 5 5 5 20 48 5 4 26 15 24 20 60 15 0 0 0 0 2 65 82 30 8 10 2 0 0 0 0 0 0 0 0 0 0 0 0
1 0 3 0 0 5 17 0 1 4 5 31 55 99 100 100 99 66 22 0 0 0 0 0 0 0 0 0 0 2 16 0 0 0 0 0 0 0 0 0 0 0 0
6 18 1 0 1 5 20 6 0 0 5 3 23 63 26 65 100 47 2 5 0 0 0 0 0 0 0 0 0 0 0 0 4 0 0 0 0 0 0 0 23 46 0
58 19 5 44 19 8 22 0 0 0 3 3 3 34 80 82 33 79 72 5 0 0 0 0 0 0 0 0 0 0 0 0 0 0 0 0 0 0 0 0 100 95 30
100 100 32 5 5 5 20 1 0 0 4 5 5 5 73 100 97 100 39 5 0 0 0 0 0 0 0 0 0 7 3 0 0 0 0 0 0 0 1 5 0 65 89
80 100 100 100 70 33 18 5 5 5 3 4 0 21 99 100 100 100 80 34 26 4 2 2 5 0 0 0 0 0 1 0 0 0 1 5 3 2 12 74 5 71 13
100 100 100 100 100 62 17 35 5 5 5 5 5 5 44 100 100 100 100 100 100 4 1 0 0 1 16 6 0 0 0 0 0 0 5 16 5 12 8 41 70 98 42
100 100 100 100 100 100 100 100 95 5 5 5 5 2 10 100 100 100 100 99 40 5 3 0 0 0 0 0 2 34 62 63 18 7 21 77 99 5 11 64 100 100 88
100 100 100 100 100 100 100 100 100 100 30 6 40 82 98 100 100 100 100 100 93 4 5 5 0 0 0 0 46 5 100 99 100 97 0 6 3 12 100 100 100 100 100
100 100 100 100 50 86 100 100 100 100 100 100 100 100 79 90 82 32 63 58 5 4 1 0 0 6 0 49 21 1 0 0 0 2 1 1 0 0 9 16 100 88 100
100 100 100 87 53 87 100 100 100 100 100 87 66 78 100 75 46 18 54 64 21 5 7 0 2 69 81 5 5 4 0 0 0 5 5 5 5 4 2 0 12 100 100
100 100 100 96 85 86 82 64 67 29 84 69 30 100 88 72 13 45 13 42 5 5 75 100 90 57 15 7 5 2 3 1 5 5 5 5 94 95 79 5 32 5 98
100 100 100 100 90 90 100 100 98 59 29 30 5 65 60 79 7 52 7 28 100 100 100 100 5 0 0 0 0 0 4 0 3 5 5 5 95 74 6 100 100 98 13
43 90 68 95 99 91 92 72 100 90 22 11 6 5 43 57 60 100 71 100 100 100 100 32 5 0 4 0 0 5 5 3 2 4 0 0 0 1 3 4 5 48 69
0 0 0 71 100 100 68 46 86 76 20 6 54 88 100 100 100 100 100 100 100 100 100 46 4 4 1 0 0 1 5 5 5 5 4 4 0 0 0 0 0 4 5
0 0 0 0 10 80 100 99 99 84 98 58 99 100 100 100 100 100 100 100 100 99 16 5 5 1 2 5 5 0 0 0 0 0 0 0 0 0 0 0 0 0 0
0 0 0 0 0 0 69 100 91 100 100 100 100 100 100 100 100 100 100 100 97 7 5 7 5 4 2 0 0 0 0 0 0 0 0 0 0 0 0 0 0 0 0
0 0 0 0 0 0 4 18 54 100 100 100 100 100 100 100 100 100 100 67 79 54 28 5 0 0 0 0 0 0 0 0 0 0 0 0 0 0 0 2 4 4 5
0 0 0 0 0 0 0 0 92 100 100 100 100 100 100 100 97 100 15 68 59 38 36 4 0 0 0 0 0 0 0 0 0 0 0 0 0 4 3 0 0 0 0
0 0 1 0 0 0 0 0 52 100 100 100 100 100 100 100 67 14 66 80 5 5 5 0 0 0 0 0 0 0 0 0 0 0 0 0 0 0 0 0 0 0 0
0 0 0 0 0 0 0 0 4 69 100 100 100 100 100 91 18 68 45 4 5 5 0 0 0 0 0 0 0 0 0 0 0 0 0 0 0 0 0 0 0 0 0
0 0 0 0 0 0 0 18 39 100 100 100 100 100 43 10 5 13 5 5 5 3 0 0 0 0 0 0 0 0 0 0 0 0 0 0 0 0 0 0 0 0 0
0 0 0 0 0 0 6 24 16 100 100 100 100 100 7 5 14 56 5 5 5 5 0 0 0 0 0 0 0 0 0 0 0 0 0 2 0 2 5 5 0 3 1
4 3 0 0 0 0 17 20 100 100 100 100 100 64 1 5 14 5 5 68 74 23 0 4 0 0 0 0 0 0 0 0 0 0 4 0 0 3 3 5 5 5 5
6 0 0 0 0 0 29 95 100 100 100 100 82 0 5 46 50 5 22 82 73 5 0 0 0 0 0 0 0 0 0 0 0 0 0 0 0 0 0 3 5 4 0

GFSSE_prec_cloud_021.txt.gz
Cloud_Cover
4 0 14 65 0 0 0 0 0 5 4 2 0 4 18 10 3 8 5 5 5 2 2 100 85 58 61 95 98 3 0 0 0 0 0 0 0 0 0 2 0 0 0
0 0 89 21 8 52 0 0 0 2 3 5 5 3 10 62 100 100 100 66 5 0 0 0 35 100 99 40 8 0 1 0 0 0 0 0 0 0 0 0 0 0 0
2 0 0 19 32 0 0 0 0 0 0 0 11 98 100 84 84 93 78 30 5 3 2 0 0 0 7 0 0 2 0 0 0 0 0 0 0 0 0 18 0 0 0
14 5 1 0 4 2 3 0 0 0 0 0 11 97 100 90 50 0 19 80 14 5 3 1 1 0 0 0 0 0 0 0 0 0 0 0 0 0 0 0 18 6 4
96 88 24 6 5 7 16 1 0 0 0 0 90 9 0 0 0 0 5 100 100 5 5 5 3 0 0 0 0 0 0 0 0 0 0 0 0 0 3 0 0 57 72
100 100 100 59 40 5 6 6 0 0 0 0 1 0 95 9 1 0 0 9 100 49 8 6 5 5 4 4 3 24 63 0 0 0 0 0 0 0 2 0 0 5 4
100 100 100 100 99 53 18 38 48 10 5 0 0 4 100 97 100 5 31 5 50 100 100 88 100 100 100 39 2 0 0 0 0 0 0 0 0 0 18 8 5 4 80
100 100 100 100 100 100 61 49 93 94 6 5 4 5 33 82 88 31 5 2 10 99 100 100 100 94 5 6 5 0 0 0 0 0 0 0 0 0 28 91 7 51 39
100 100 100 100 100 100 100 31 57 100 99 34 8 5 5 5 4 4 19 7 60 100 100 100 89 9 47 12 5 2 30 61 29 0 0 0 0 0 3 17 5 5 10
100 100 100 100 100 100 100 100 98 88 100 100 98 100 88 97 29 80 100 100 17 58 99 5 5 10 28 5 35 1 0 0 0 0 0 0 0 0 0 0 0 0 68
98 89 100 100 100 100 100 100 100 99 100 100 100 100 100 56 78 100 90 53 21 8 48 54 5 5 5 10 6 0 0 3 1 0 0 0 0 0 8 5 13 1 0
57 74 78 93 100 100 100 100 100 100 100 100 100 100 90 9 45 5 37 93 100 90 22 5 5 98 5 6 5 0 0 4 5 5 2 0 4 2 1 1 91 92 57
5 92 100 100 97 79 86 40 39 95 100 100 99 98 100 100 42 16 76 76 77 47 69 100 97 5 5 30 4 0 0 0 0 0 0 0 0 3 6 12 5 62 22
5 100 100 100 93 100 96 27 29 41 87 80 17 21 19 35 42 31 42 32 66 100 100 100 16 5 7 25 5 5 0 0 0 0 1 2 2 0 1 0 0 0 0
0 21 78 93 76 100 97 90 22 21 28 89 7 5 5 7 58 100 94 99 100 96 79 74 36 30 14 9 5 5 0 0 0 0 4 5 4 0 0 0 0 0 0
0 0 0 1 23 41 93 99 100 26 5 5 11 12 41 100 100 100 100 100 100 100 100 67 7 17 38 12 5 5 0 0 0 0 0 0 0 0 0 0 0 0 0
0 0 0 0 8 26 28 6 18 53 5 5 21 97 100 100 100 100 100 100 100 100 100 51 10 27 5 5 5 5 3 0 0 0 0 0 0 0 0 0 0 0 0
0 0 0 0 0 14 8 1 0 17 42 100 100 100 100 100 100 100 100 100 100 100 100 72 99 5 5 5 5 5 0 0 0 0 0 0 0 0 0 0 0 0 0
0 3 0 0 0 17 17 0 0 90 100 100 100 100 100 100 100 100 100 100 100 100 88 99 100 46 5 5 5 5 0 0 0 0 0 0 0 0 0 0 0 0 0
0 0 0 0 4 41 8 0 0 24 100 100 100 100 100 100 100 100 100 100 100 100 100 100 94 77 6 5 5 3 0 0 0 0 0 0 0 0 0 0 0 0 0
0 0 0 0 45 9 0 5 50 45 44 100 100 100 100 100 100 100 100 100 100 100 100 97 100 66 5 5 0 0 0 0 0 0 0 0 0 0 0 0 0 0 0
0 0 0 14 0 0 0 0 15 40 30 98 100 100 100 53 99 97 100 100 100 100 86 71 5 32 5 5 5 0 0 0 0 0 0 0 0 0 0 0 0 0 0
0 0 1 0 0 0 0 0 19 14 72 100 100 100 100 100 57 80 87 83 100 82 89 4 5 5 5 5 5 0 0 0 0 0 0 0 0 0 0 0 2 0 0
0 0 0 0 0 0 0 0 0 0 32 100 100 100 100 97 10 36 56 5 90 84 33 5 5 35 80 8 0 0 0 0 5 5 1 0 0 0 0 4 1 0 0
5 4 0 0 0 0 0 19 27 5 100 100 100 100 100 68 5 5 5 5 52 86 53 5 5 21 48 2 0 0 0 0 0 0 2 1 0 6 5 2 5 5 5
5 4 0 0 0 0 36 100 45 3 60 100 100 90 100 10 5 5 4 41 93 94 33 5 5 54 2 0 0 0 0 0 0 0 0 0 0 0 1 4 5 5 5

GFSSE_prec_cloud_024.txt.gz
Cloud_Cover
4 2 5 1 5 4 3 0 0 0 0 0 0 18 24 33 0 1 0 0 0 6 49 77 97 20 21 99 26 0 0 0 0 0 0 0 0 0 0 0 0 0 0
0 16 1 2 0 0 0 0 0 0 0 0 0 4 63 92 98 92 82 2 5 0 39 7 100 100 86 33 33 23 0 0 0 0 0 0 0 0 0 0 0 0 0
5 5 4 0 21 2 0 0 0 0 0 0 2 0 4 31 83 89 53 4 0 3 3 5 5 55 42 1 8 3 0 0 0 0 0 0 0 0 0 0 0 0 0
78 15 10 89 96 0 0 0 0 0 0 0 16 18 55 13 0 0 0 0 0 0 5 100 25 0 0 0 0 0 0 0 1 3 0 0 0 0 0 0 21 1 0
66 59 9 7 28 4 0 0 3 2 0 0 3 0 0 0 0 0 0 0 0 0 1 45 98 32 6 5 4 5 31 87 22 9 5 1 0 0 0 0 19 13 82
95 9 32 70 5 5 6 5 5 5 1 0 72 1 4 0 0 0 0 0 0 0 0 0 5 5 99 100 100 100 100 86 5 17 9 3 1 0 0 0 0 0 0
100 100 94 52 82 41 12 5 60 44 47 4 0 5 5 0 23 7 0 0 1 3 4 5 7 3 27 94 100 90 14 5 9 39 34 24 24 0 9 100 4 0 5
75 100 100 100 98 100 100 99 100 100 100 49 6 5 8 33 9 5 0 0 0 40 37 14 13 88 92 87 91 71 41 5 38 81 69 50 4 0 4 33 4 11 3
55 45 88 100 100 100 100 95 99 98 100 100 79 6 5 5 5 5 5 3 35 61 44 100 100 100 79 7 12 8 6 5 5 32 2 12 0 0 0 14 28 8 4
4 12 99 100 100 100 100 100 100 100 100 100 100 100 90 100 20 5 6 100 100 95 71 95 100 65 26 9 17 6 5 5 5 2 8 5 0 0 0 2 0 0 2
0 5 98 100 95 97 100 100 100 100 100 100 100 100 100 100 84 14 100 100 100 88 20 69 24 58 84 86 17 5 5 5 8 5 1 4 1 0 0 0 12 1 35
0 2 7 79 79 100 96 100 100 100 100 100 100 100 100 100 100 100 100 100 100 96 39 32 98 60 10 30 72 14 5 5 7 5 5 0 0 0 0 9 0 0 2
0 0 4 14 98 98 100 100 61 99 100 100 99 87 91 100 100 100 100 97 82 86 100 64 51 37 60 36 20 13 5 5 5 5 5 0 0 0 29 5 0 0 6
0 0 0 5 87 77 94 100 100 100 91 100 99 47 42 49 15 5 61 22 5 12 65 92 32 90 35 33 18 5 11 13 5 5 3 0 0 0 0 0 5 5 0
0 0 1 5 51 26 32 29 87 100 100 98 11 5 16 9 58 21 30 8 46 100 85 38 62 87 63 37 8 39 68 12 5 5 5 2 0 0 0 0 0 0 0
0 0 0 0 5 49 23 90 47 91 100 100 20 5 6 6 5 27 58 56 100 100 98 66 6 56 46 48 59 100 96 23 5 5 5 5 2 0 0 0 0 0 0
0 0 0 0 2 5 6 33 23 2 56 61 99 54 8 31 92 100 100 100 100 100 82 98 77 75 49 93 100 100 100 22 9 5 5 5 2 0 0 0 0 0 0
0 0 0 0 0 0 0 22 49 24 50 56 39 4 30 99 68 100 100 100 100 100 100 100 100 100 100 100 100 100 100 86 53 13 5 5 0 0 0 0 0 0 0
0 0 0 0 0 0 0 11 57 43 76 25 5 99 93 97 100 100 100 94 76 60 100 100 100 100 100 100 100 100 100 100 47 72 16 5 0 0 0 0 0 0 0
0 0 0 0 0 0 0 32 98 99 84 0 8 69 100 93 100 100 100 12 5 5 38 100 100 100 100 100 100 100 100 49 77 8 5 4 0 0 0 0 0 0 0
0 0 0 0 0 0 0 61 81 8 0 6 0 100 100 91 77 100 100 7 59 5 42 53 60 100 100 100 100 100 20 62 5 5 5 3 0 0 0 0 0 0 0
0 0 0 0 0 0 0 4 62 53 73 96 58 14 100 82 56 100 91 5 17 55 61 65 99 100 100 99 62 39 9 5 5 5 2 0 1 0 0 0 0 0 0
0 0 0 0 0 0 0 50 69 79 100 100 100 40 100 99 99 16 35 5 42 82 83 100 57 100 97 91 6 5 5 5 5 3 0 0 0 0 0 0 0 0 0
0 0 0 0 0 0 0 0 0 1 51 99 39 46 97 100 100 100 0 0 6 8 60 83 20 77 98 30 5 5 5 5 4 0 0 0 0 0 0 0 0 0 0
0 0 0 0 0 0 0 0 6 43 66 3 53 98 100 100 100 92 0 0 0 3 5 5 63 96 32 5 5 5 5 3 0 0 0 0 0 0 0 0 5 5 5
0 0 0 0 0 0 0 0 22 57 0 2 96 98 100 100 100 11 0 3 3 0 4 5 5 38 5 5 5 5 1 0 0 0 0 0 0 4 3 1 1 2 0

GFSSE_prec_cloud_027.txt.gz
Cloud_Cover
5 17 1 5 5 4 8 0 0 0 0 0 4 15 19 0 0 0 0 0 0 0 25 53 59 12 82 82 39 4 0 0 0 0 0 0 0 0 0 0 0 32 0
2 12 0 0 3 5 10 0 0 0 0 0 0 0 2 8 2 0 47 0 0 0 3 56 100 81 99 98 31 24 0 0 0 0 0 0 0 0 1 0 0 5 0
5 10 5 0 0 0 0 0 0 0 0 0 0 25 0 0 0 30 0 0 0 0 0 0 98 100 96 93 19 5 5 4 2 0 0 1 2 5 0 0 15 0 0
5 9 12 5 1 0 0 0 0 0 0 0 19 0 0 0 0 0 0 0 0 0 0 0 0 2 1 0 99 100 53 6 5 8 61 100 98 44 0 0 0 8 0
5 5 5 4 61 3 0 0 0 0 0 6 1 0 0 0 0 0 0 0 0 0 0 0 0 0 0 0 0 0 8 8 100 100 100 100 29 19 4 0 0 2 24
5 5 5 25 21 10 0 1 2 1 3 4 0 4 2 3 0 0 0 0 0 0 0 0 0 0 0 0 0 0 0 2 46 59 29 27 29 0 0 0 0 0 0
48 19 7 76 33 60 7 5 5 9 28 19 5 5 5 5 7 12 1 2 3 0 0 0 0 0 0 57 15 1 24 93 33 100 68 100 98 5 2 1 16 7 0
44 69 15 10 100 100 100 72 37 96 61 81 99 82 44 20 50 77 11 5 5 0 0 0 15 2 1 5 33 100 100 50 5 84 100 99 97 1 0 1 2 5 20
18 6 10 50 10 26 100 100 100 100 77 77 100 100 99 87 67 32 7 28 5 5 3 9 31 5 100 100 79 98 20 5 5 75 13 48 6 5 1 7 0 0 2
5 5 5 100 77 89 40 20 100 100 100 100 100 100 100 100 100 100 100 100 80 96 6 75 6 99 98 24 41 6 7 13 63 5 31 5 5 5 5 2 2 6 1
5 5 5 12 84 32 79 98 61 94 100 100 100 100 100 100 100 100 100 100 100 100 96 76 93 100 100 100 69 91 100 82 5 5 5 5 5 5 11 1 0 0 7
5 1 0 0 16 96 100 94 92 81 100 100 100 100 100 100 100 100 100 100 100 100 100 100 100 100 100 96 100 91 95 19 13 40 8 6 6 5 23 0 0 0 20
0 0 8 11 18 44 100 100 59 50 90 100 100 100 100 100 100 100 100 100 100 100 100 100 100 100 14 5 5 5 9 18 45 44 8 6 5 30 20 1 5 13 5
0 0 0 0 14 43 100 86 61 33 22 39 100 72 53 86 99 100 100 100 78 100 74 32 29 21 77 95 7 5 7 52 50 79 84 74 37 5 5 5 5 5 0
0 0 0 0 0 9 48 42 12 51 43 24 30 100 63 7 73 97 87 100 72 25 5 5 8 43 24 28 5 5 5 54 28 5 8 96 99 16 12 5 5 5 1
0 0 0 0 0 1 5 36 9 30 29 84 71 10 35 100 85 88 56 27 22 28 60 7 5 18 5 33 6 5 5 15 26 21 98 100 100 100 30 48 35 5 5
0 0 0 0 0 0 5 5 16 27 59 99 39 34 17 23 96 100 100 96 65 99 5 0 5 14 5 31 75 93 88 89 98 100 100 100 100 100 62 97 71 5 4
0 0 0 0 0 0 2 14 30 20 44 100 100 59 47 11 0 0 7 28 98 99 60 5 3 5 5 5 51 99 97 100 99 100 100 100 100 100 96 59 6 5 4
0 0 0 0 0 0 0 0 0 24 99 100 100 100 85 2 0 0 26 86 14 5 5 5 5 5 5 5 14 100 100 100 100 100 100 100 93 76 73 13 5 5 1
0 0 0 0 0 0 0 0 11 100 100 100 100 57 9 0 2 40 85 100 55 33 5 5 39 42 5 5 5 5 22 75 93 40 60 56 42 25 29 40 5 5 5
0 0 0 0 0 0 0 0 0 0 73 100 71 0 0 0 82 49 31 73 18 63 5 5 78 80 5 17 5 36 19 17 42 57 13 63 25 5 5 5 5 5 0
0 0 0 0 0 0 0 0 0 62 100 100 15 0 6 93 68 29 56 84 0 5 5 5 5 72 59 74 50 5 5 16 28 5 5 0 3 5 4 2 0 0 0
2 0 0 0 0 0 0 0 77 100 100 98 65 20 0 33 100 100 82 80 5 5 5 3 5 6 60 5 85 24 5 65 62 54 5 2 4 0 0 0 0 0 0
5 1 0 0 0 0 0 0 1 0 26 52 79 60 2 4 98 100 100 98 9 5 4 1 0 3 5 5 5 5 5 5 5 42 66 5 0 0 0 0 0 0 0
6 16 5 0 0 0 0 0 15 0 15 49 100 100 45 36 94 100 100 92 5 5 5 2 0 5 0 0 0 1 5 5 5 2 3 0 0 0 0 0 0 0 0
5 11 100 14 5 0 0 0 0 0 0 27 100 100 47 59 84 73 100 98 6 6 8 5 0 4 5 4 5 3 1 0 0 0 0 0 1 3 0 0 0 0 0

GFSSE_prec_cloud_030.txt.gz
Cloud_Cover
4 44 5 5 5 5 5 5 5 5 6 3 20 20 19 1 0 0 0 0 0 1 100 68 4 13 84 95 67 2 0 0 0 0 0 0 0 0 0 0 0 47 18
0 3 5 5 5 5 1 4 0 3 0 0 0 1 6 3 2 1 0 0 0 3 27 56 90 63 96 100 69 11 0 1 5 2 3 0 0 0 2 32 20 7 8
0 1 2 4 0 0 0 0 0 0 0 0 11 35 20 1 0 0 0 0 0 0 0 11 97 100 100 84 0 0 0 0 0 8 5 3 5 8 15 97 88 99 5
4 0 1 0 0 0 0 0 0 0 0 4 6 0 0 0 0 0 0 0 0 0 0 0 0 2 0 0 0 0 0 0 0 0 0 0 0 2 7 82 8 13 3
5 4 2 0 0 0 0 0 0 0 3 4 0 0 0 0 0 0 0 0 0 0 0 0 0 0 0 0 0 0 0 0 0 1 12 0 5 11 32 2 2 2 0
0 0 0 2 2 0 0 0 3 5 1 5 5 5 0 5 4 0 0 0 0 2 0 0 0 0 0 0 0 0 0 0 0 100 97 100 100 6 5 12 12 1 0
1 5 5 5 5 4 0 0 5 5 11 5 5 5 5 5 5 11 12 5 5 5 5 4 0 1 0 0 0 0 0 0 0 92 100 100 100 16 5 3 7 9 2
5 5 5 5 5 4 0 2 5 28 29 82 100 72 12 5 28 60 86 47 10 6 62 14 5 5 3 3 4 0 1 2 100 100 98 100 100 5 4 8 19 6 4
3 4 5 15 5 5 0 5 1 59 100 100 100 100 98 96 100 86 42 81 87 6 71 67 39 20 68 53 32 5 57 77 100 100 80 70 7 10 9 12 6 7 5
0 4 1 2 5 5 0 2 5 1 3 95 100 100 100 100 100 100 100 100 100 100 90 100 100 100 100 72 70 94 89 100 100 100 100 98 100 100 49 19 17 24 16
4 2 1 5 9 3 0 4 5 5 0 2 5 40 100 100 100 100 100 98 42 94 100 100 100 100 88 93 100 100 100 100 100 100 100 76 32 5 17 6 25 7 14
2 5 0 0 0 77 62 2 5 5 5 5 4 35 68 34 76 100 100 100 100 100 100 100 100 100 100 100 100 100 100 100 100 88 31 20 5 8 50 40 6 20 29
3 0 1 54 64 24 100 52 4 5 5 5 5 5 6 35 64 14 53 100 100 100 100 100 100 100 100 100 100 100 100 99 22 26 25 10 4 21 15 11 16 30 5
0 0 0 3 96 4 3 100 2 0 5 5 5 4 5 0 11 92 69 31 17 99 95 70 67 89 84 100 90 46 51 10 6 15 5 5 6 6 5 10 44 100 100
0 0 0 8 38 54 0 94 0 33 0 2 5 14 5 5 4 0 13 96 95 8 5 23 99 100 6 64 98 84 24 47 16 5 5 5 5 24 5 96 100 100 100
0 0 0 0 31 4 15 12 0 36 40 86 65 5 5 40 27 5 22 0 78 100 90 36 41 22 34 68 66 80 28 5 3 3 26 26 96 87 100 100 100 100 100
0 0 0 0 0 0 15 0 3 100 96 46 99 55 64 74 4 3 1 5 0 3 5 24 92 96 41 5 5 5 1 1 0 1 42 100 64 100 100 100 100 100 100
0 0 0 0 0 0 0 0 0 0 0 5 93 100 5 5 4 0 3 5 0 52 32 5 5 5 5 5 5 5 5 5 4 0 5 89 100 100 100 100 100 100 100
0 0 0 0 0 0 0 0 0 0 99 27 56 100 81 50 0 0 0 1 0 0 0 4 5 5 5 5 5 55 53 6 16 5 5 5 5 40 65 6 60 76 38
0 0 0 0 0 0 0 0 0 20 66 66 99 86 74 92 0 0 0 0 1 0 0 0 4 5 5 5 24 97 83 69 90 5 5 10 6 16 18 15 17 5 6
0 0 0 0 0 0 0 0 0 0 42 100 100 75 74 24 0 0 0 0 14 0 0 0 0 5 5 5 5 11 98 73 82 51 5 5 7 20 5 5 4 2 3
82 8 2 0 0 0 0 0 0 0 0 0 52 76 73 6 4 0 0 39 87 43 6 0 0 0 5 5 2 5 10 8 5 7 27 5 5 5 4 5 5 5 0
98 100 87 4 1 0 0 0 0 1 0 0 33 42 73 10 5 0 0 0 32 64 92 100 73 6 5 0 2 0 0 2 1 3 4 5 3 0 4 2 0 0 0
26 100 100 99 25 1 0 0 0 0 0 0 0 19 68 19 3 8 1 7 10 81 61 97 100 100 67 4 5 2 2 0 0 2 5 5 5 2 0 0 0 0 0
5 75 100 100 100 88 5 2 0 0 4 0 0 80 100 57 65 43 55 100 52 64 92 98 58 98 99 13 5 4 4 0 0 0 0 0 0 0 0 0 0 0 0
5 19 99 100 100 100 100 40 15 6 1 0 11 99 100 100 100 100 100 100 88 100 100 97 100 100 84 12 5 5 5 4 1 0 0 0 0 0 0 0 0 0 0

GFSSE_prec_cloud_033.txt.gz
Cloud_Cover
33 43 5 5 5 5 5 5 25 6 7 21 24 100 23 3 0 0 0 0 0 17 99 26 6 36 59 45 20 0 0 0 0 0 0 0 0 0 0 0 0 35 4
6 15 5 0 5 0 5 5 5 4 3 2 10 11 5 2 0 0 0 0 0 32 66 95 74 87 98 100 10 0 0 0 0 0 0 0 0 0 4 0 0 0 0
24 18 0 0 2 5 0 0 0 0 0 0 0 0 10 5 0 0 0 0 0 48 1 49 94 80 44 0 0 0 0 0 0 0 0 0 0 0 0 0 0 11 1
5 12 4 0 0 0 0 0 0 0 0 18 2 2 1 2 0 0 0 0 0 5 0 0 0 0 0 0 0 0 0 0 0 0 0 0 0 0 0 0 1 7 8
5 8 4 0 0 0 0 0 0 0 14 2 0 0 0 0 0 0 4 0 0 0 0 0 0 0 0 0 0 0 0 0 0 0 42 8 0 0 0 4 34 76 5
4 3 1 0 0 3 0 0 0 0 2 0 5 0 0 0 0 0 2 5 5 2 5 4 4 2 0 0 0 4 4 2 0 100 99 100 97 31 5 36 5 6 5
0 0 0 5 5 5 5 0 0 4 2 0 0 1 3 5 2 0 5 5 5 5 5 10 7 14 5 5 5 5 5 5 3 38 45 96 87 3 87 86 28 35 10
1 3 5 5 5 5 5 0 0 4 0 0 0 0 0 4 30 6 5 5 11 5 5 8 5 48 15 5 6 5 31 31 18 82 71 99 86 33 100 100 15 20 6
1 2 6 5 1 3 1 0 0 0 0 0 0 4 2 2 7 47 50 80 18 14 6 8 14 19 73 99 78 84 51 6 48 16 5 72 100 100 100 100 87 100 54
0 1 5 3 0 0 0 0 0 0 0 0 0 0 0 4 5 84 99 100 100 100 100 100 100 100 100 100 100 13 87 100 62 37 97 100 100 100 35 94 32 18 50
0 1 1 8 0 0 0 0 0 0 0 5 0 4 0 0 0 4 91 100 98 55 66 92 100 100 100 100 95 100 100 99 98 99 100 100 100 99 99 100 39 10 40
0 0 2 0 0 0 1 0 0 0 5 2 5 1 4 0 0 2 41 24 63 22 42 47 88 100 94 100 99 100 90 92 85 64 79 59 100 100 100 48 12 16 20
0 0 0 0 4 5 5 4 0 0 0 3 4 5 4 3 0 0 4 3 2 5 5 8 12 97 98 100 100 100 100 100 100 84 100 58 100 96 13 5 35 5 5
0 0 0 0 0 0 5 1 0 0 0 0 0 5 5 5 2 0 3 2 0 0 0 8 7 14 20 96 62 40 94 99 26 26 20 94 45 78 82 2 5 6 6
0 0 0 0 0 0 0 0 0 0 0 0 0 0 0 5 5 0 5 1 0 0 0 0 0 3 5 82 66 5 5 12 5 7 22 90 31 82 8 2 5 96 100
0 0 0 0 0 0 0 0 0 0 0 0 0 0 0 4 5 5 29 5 0 0 0 0 0 0 0 1 31 13 5 5 5 5 5 5 4 2 0 5 5 66 67
0 0 0 0 0 0 0 0 0 0 0 0 0 5 1 0 5 53 4 0 0 0 0 0 0 0 0 0 0 0 0 0 2 5 5 5 0 0 0 4 31 98 100
0 0 0 0 0 0 0 0 0 0 0 0 0 0 0 1 0 0 0 0 0 0 0 0 0 0 0 0 0 0 2 5 5 5 5 8 6 5 5 5 38 43 20
0 0 0 0 0 0 0 0 0 0 0 0 0 0 0 0 0 0 0 0 0 0 0 0 0 0 0 0 2 4 5 5 5 5 7 5 58 23 5 5 21 5 5
0 0 0 0 0 0 0 0 0 0 26 0 71 0 0 0 0 0 0 0 0 0 0 0 0 0 0 0 0 1 5 5 5 6 38 45 16 72 71 6 66 45 13
4 0 0 0 0 0 0 0 0 0 0 100 100 31 0 0 0 0 0 0 0 0 0 0 2 5 4 0 0 0 0 5 4 4 5 5 5 5 8 84 74 54 77
5 5 0 0 1 3 4 1 0 2 32 9 90 100 26 2 0 0 0 0 0 1 0 0 0 8 98 70 28 1 25 4 0 0 0 0 0 0 0 0 2 5 5
5 5 5 0 5 6 6 20 14 1 57 96 100 28 14 6 4 39 4 0 1 4 3 0 1 0 24 93 100 97 94 43 4 2 3 4 3 4 3 5 3 5 3
51 5 5 5 0 5 6 5 7 5 5 3 0 2 79 11 16 93 70 12 5 27 10 0 0 21 5 11 91 99 84 100 100 98 34 5 2 5 5 0 0 0 0
6 44 9 5 5 4 0 5 5 5 5 21 5 2 37 54 18 91 95 41 68 99 77 9 4 99 10 87 37 53 100 97 90 38 100 96 23 5 20 5 1 0 0
4 5 6 5 5 0 1 5 5 60 92 10 5 4 1 26 13 87 97 88 100 100 100 86 75 56 89 8 54 96 98 85 80 90 100 93 45 29 5 5 5 0 0

GFSSE_prec_cloud_036.txt.gz
Cloud_Cover
27 20 8 21 23 33 60 100 81 18 41 94 47 100 80 4 5 5 0 2 1 65 68 0 2 98 91 54 0 0 0 0 0 0 0 0 0 0 0 0 0 0 0
12 5 4 7 38 56 100 81 5 5 5 19 42 100 56 2 1 5 2 0 0 8 79 17 68 52 99 15 0 0 0 0 0 0 0 0 0 0 0 0 0 0 0
30 12 4 1 0 5 8 5 0 0 3 9 10 81 13 0 0 0 0 1 22 100 100 100 86 63 0 0 0 0 0 0 0 0 0 0 0 0 0 0 0 23 0
7 12 4 0 0 2 4 0 0 0 0 0 0 7 21 0 0 0 0 33 98 11 25 17 14 0 0 0 0 0 0 0 0 0 0 0 0 0 0 0 0 0 2
18 0 5 5 0 0 0 0 0 0 1 2 2 8 1 1 0 0 0 0 1 3 0 4 4 3 2 0 0 0 0 0 2 0 0 0 0 0 0 3 0 0 0
24 0 5 5 0 0 0 0 0 0 12 0 0 0 0 0 0 0 0 0 0 0 0 0 0 5 1 3 2 4 5 2 0 0 51 10 20 87 0 3 0 0 26
26 2 3 0 2 0 0 0 0 14 0 0 0 0 0 0 0 0 0 0 0 0 5 4 3 5 5 5 5 5 5 5 5 5 6 48 8 3 4 12 54 13 42
15 16 14 5 1 2 5 0 0 0 0 0 0 0 0 2 5 0 0 0 0 0 6 10 5 5 6 5 10 18 41 6 5 56 100 41 57 94 7 5 12 26 83
4 18 34 9 5 5 5 0 0 3 0 0 0 0 0 0 0 7 0 0 0 9 6 6 7 32 15 73 100 100 100 98 100 56 93 95 70 73 63 38 74 98 92
16 11 33 21 5 5 0 4 0 0 0 0 0 0 0 0 0 0 0 0 4 14 2 0 5 6 8 48 98 98 100 100 33 85 100 98 70 88 34 87 100 62 99
38 45 77 42 9 5 4 4 5 0 0 0 0 5 0 0 0 0 0 0 0 0 1 2 93 100 99 100 80 100 100 100 96 59 70 96 96 85 21 32 63 22 86
53 93 70 46 21 4 5 2 5 1 0 0 0 0 3 3 0 0 0 0 0 0 0 8 57 26 53 59 66 72 58 78 97 75 66 86 100 79 88 100 94 100 72
10 31 46 37 16 0 2 6 16 10 12 5 0 0 0 5 6 14 19 9 2 0 0 0 4 4 35 28 23 14 87 98 84 80 6 62 21 28 15 61 24 7 79
5 0 4 8 20 3 1 5 5 1 5 8 1 0 0 0 16 21 26 23 6 0 0 0 0 0 0 0 0 0 3 4 6 5 5 5 7 12 5 4 2 2 1
0 0 0 0 6 4 3 2 2 1 0 0 0 0 0 0 0 0 8 29 5 5 2 0 0 0 0 0 0 0 0 0 0 3 4 8 4 4 2 0 4 2 1
0 0 0 0 0 0 0 1 3 3 0 0 0 0 0 0 0 5 5 5 5 3 0 0 0 0 0 0 0 0 0 0 0 0 0 0 1 2 5 2 0 0 0
0 0 0 0 0 0 2 0 0 0 0 0 0 0 0 0 1 5 4 5 3 0 0 0 0 0 0 0 0 0 0 0 0 0 0 5 5 20 17 5 5 4 2
4 1 0 5 2 0 0 0 0 0 0 0 0 0 0 0 1 4 0 0 0 0 0 0 0 0 0 0 0 0 0 0 5 5 5 5 5 5 5 5 5 5 5
2 5 5 0 1 0 0 0 1 3 0 0 0 0 0 0 0 0 0 0 0 0 0 0 0 0 0 0 0 0 0 0 0 3 5 5 5 5 5 5 5 5 5
4 4 0 0 3 0 3 5 5 5 5 5 5 5 0 1 2 0 0 0 0 0 0 0 0 0 0 0 0 1 4 0 0 0 0 1 0 4 5 5 59 32 5
5 5 5 2 0 2 0 2 0 76 98 16 10 48 5 3 0 5 0 0 0 0 0 0 0 0 0 0 0 0 9 5 5 4 2 5 5 0 2 0 0 0 0
5 4 3 5 4 5 5 5 4 10 16 44 96 100 40 26 55 93 100 43 5 0 0 0 0 0 0 0 0 0 2 41 100 99 85 85 86 18 5 3 5 5 5
5 5 5 5 5 5 5 5 42 17 54 100 100 100 95 34 84 100 74 53 14 5 0 0 0 0 0 2 2 0 0 5 45 95 100 100 100 100 100 99 88 55 27
5 5 5 5 5 5 5 5 5 11 12 56 8 74 96 81 95 100 100 100 90 34 4 1 4 0 4 4 33 4 3 5 5 11 22 23 77 92 93 100 100 100 96
5 5 5 5 5 1 5 5 5 5 5 12 12 5 5 12 93 100 100 100 100 75 72 98 88 63 30 18 64 92 10 0 3 5 4 35 95 100 100 100 100 100 100
0 0 0 3 5 4 1 4 5 5 8 15 5 5 5 5 53 100 100 100 100 100 87 100 100 100 94 97 92 98 79 0 0 0 0 0 5 5 6 5 29 51 74

GFSSE_prec_cloud_039.txt.gz
Cloud_Cover
27 77 28 7 6 5 5 40 52 6 8 33 21 20 5 13 5 5 5 5 2 0 0 0 33 68 4 3 0 0 0 0 0 0 0 0 0 0 0 0 0 0 0
5 43 5 5 5 2 100 99 5 5 5 45 86 99 27 5 5 5 0 0 9 43 0 5 77 100 100 16 0 0 0 0 0 0 0 0 0 0 0 0 0 0 0
24 6 5 5 70 94 100 93 4 6 6 14 10 100 66 3 0 0 1 5 2 55 75 99 86 85 1 0 0 0 0 0 0 0 0 0 0 0 0 0 0 52 0
8 5 5 5 37 34 35 10 6 2 9 14 13 62 15 1 0 0 0 67 99 100 100 98 16 0 0 0 0 0 0 0 0 0 0 0 0 0 0 0 0 0 1
16 6 21 43 5 9 12 9 1 2 1 3 5 22 19 0 0 0 10 100 100 32 10 0 0 0 0 0 0 0 0 0 0 0 0 0 0 0 0 0 0 0 0
47 5 5 5 5 5 5 4 0 0 3 9 9 18 0 0 0 0 0 0 0 0 0 0 0 0 0 0 0 0 0 0 0 2 5 5 5 5 39 6 14 31 31
86 21 5 3 4 0 1 5 4 5 31 14 0 0 0 0 0 0 0 0 0 0 0 0 0 0 0 0 0 0 0 5 1 1 5 5 5 5 5 5 10 10 85
43 11 5 5 1 0 0 5 5 33 3 0 0 0 0 0 0 0 0 0 0 4 0 8 1 0 0 0 0 0 4 5 6 17 49 16 61 96 41 15 19 60 54
34 35 7 5 4 3 5 5 2 27 0 0 0 0 0 0 0 0 0 0 0 5 8 15 17 0 0 0 0 0 1 5 6 39 60 62 96 16 8 95 76 27 34
39 31 20 5 5 3 5 5 5 99 0 1 0 0 0 0 0 0 0 0 11 0 0 10 13 0 0 0 5 5 74 29 81 58 93 91 91 86 25 58 39 95 25
78 47 45 37 10 12 5 5 4 93 5 5 3 0 0 4 3 0 0 0 0 0 0 2 1 0 0 0 0 0 5 14 17 40 65 100 96 99 91 66 77 67 50
100 98 100 86 30 8 5 5 2 5 5 5 0 0 0 0 5 5 0 0 0 0 0 0 0 0 0 0 3 78 42 11 32 13 5 40 99 65 98 67 59 8 26
100 100 100 97 41 9 8 39 24 23 26 13 4 0 4 13 13 11 10 12 9 0 0 0 0 0 0 0 2 3 3 1 0 0 1 0 7 1 28 17 5 6 5
98 100 100 98 67 21 4 5 5 6 20 28 15 0 18 33 24 24 30 23 21 5 3 0 4 0 0 0 0 0 0 0 0 0 0 0 0 0 0 5 2 2 0
90 95 92 97 68 39 4 0 3 7 15 3 9 0 0 22 24 28 24 27 19 5 5 5 4 0 0 0 0 0 0 0 0 0 0 0 0 0 0 0 0 0 0
3 14 28 57 58 42 25 1 2 3 5 3 5 0 0 0 16 9 23 23 16 5 5 5 0 0 0 0 0 0 0 0 0 0 0 0 0 0 0 2 5 5 5
4 1 0 18 40 40 27 10 0 0 0 0 0 0 0 0 0 0 4 18 6 4 2 0 0 0 0 0 0 0 0 0 0 0 0 0 0 0 2 5 5 5 5
5 5 2 2 16 37 32 25 0 0 0 0 0 0 0 0 0 0 4 2 0 0 0 0 0 0 0 0 0 0 0 0 0 0 0 0 0 0 0 0 4 5 5
5 5 9 5 5 11 11 12 4 1 4 5 5 4 0 5 0 0 0 1 1 0 0 0 0 0 0 0 0 0 0 0 0 0 1 0 0 0 0 0 0 0 0
13 5 5 35 77 5 5 34 28 6 3 4 13 5 5 12 9 9 5 5 5 5 3 0 1 0 0 0 0 0 0 0 0 0 0 5 5 4 1 0 2 0 0
89 5 5 5 5 5 26 66 71 4 5 2 5 5 6 8 12 24 5 12 5 5 11 14 5 5 4 0 0 0 0 0 0 0 0 0 5 69 99 27 5 46 51
100 86 35 11 5 5 6 58 18 5 5 5 5 11 42 98 9 6 17 96 100 74 68 100 7 4 4 3 4 0 0 0 0 0 0 0 0 1 5 66 100 100 100
98 100 100 99 96 68 5 20 57 32 43 32 16 5 100 9 100 95 87 100 100 100 100 100 73 80 15 5 0 0 2 1 0 0 0 2 0 1 1 0 0 6 50
100 100 100 100 100 30 6 5 5 5 14 9 5 8 20 9 6 75 98 100 100 100 100 100 100 81 26 14 4 5 5 5 5 5 5 2 0 0 0 0 0 0 0
72 65 64 60 62 55 6 5 5 53 71 64 46 6 32 89 6 5 94 100 99 100 100 100 100 100 87 100 30 8 5 27 24 53 8 0 0 0 0 0 0 0 0
85 14 5 35 59 38 14 5 5 5 4 24 33 50 19 6 63 16 6 39 84 100 100 100 100 100 100 100 100 100 76 92 40 96 84 6 5 5 5 5 0 1 0

GFSSE_prec_cloud_042.txt.gz
Cloud_Cover
5 10 100 96 48 6 33 18 57 92 43 100 100 47 42 28 5 7 14 7 5 4 5 5 86 92 87 4 0 25 1 34 53 69 0 0 0 0 0 0 0 0 0
5 77 100 36 81 100 52 55 5 7 6 38 43 5 6 5 5 5 5 5 5 7 5 84 100 100 89 5 0 0 0 0 0 0 0 0 0 0 0 0 0 0 0
5 49 8 5 5 47 100 19 5 5 5 6 61 85 18 5 5 3 0 1 26 32 47 92 63 49 0 0 0 0 0 0 0 0 0 0 0 0 0 0 2 0 0
5 24 36 19 5 91 100 100 12 16 12 5 58 100 64 0 0 0 0 0 90 85 99 89 4 0 0 0 0 0 0 0 0 0 0 0 0 4 0 0 0 0 0
6 5 9 17 68 89 100 4 4 11 17 18 61 98 15 0 0 0 20 64 94 34 37 15 3 0 0 0 0 0 0 0 0 0 0 0 0 21 2 8 3 3 1
28 2 0 32 21 86 77 12 6 7 12 10 49 30 0 0 0 0 94 100 11 0 0 0 0 0 0 0 0 0 0 0 0 0 0 0 14 19 45 4 13 10 60
33 3 5 37 11 5 9 17 12 5 5 6 7 16 4 0 0 0 1 0 0 0 0 0 0 0 0 0 0 0 0 0 0 0 0 0 6 0 5 15 27 90 91
40 7 6 60 5 5 5 0 5 5 93 12 6 5 0 0 0 0 0 0 1 0 0 3 1 2 10 10 0 0 0 0 0 0 0 0 70 1 4 13 20 92 56
39 20 3 1 5 5 0 1 5 62 5 5 4 4 5 1 0 0 4 1 0 1 3 5 10 6 2 0 0 0 0 0 0 2 5 0 47 5 63 6 10 23 28
51 28 22 7 5 25 4 4 3 98 0 0 0 0 16 4 3 0 5 4 17 0 0 0 8 0 0 0 0 0 0 0 0 2 0 0 2 5 5 14 27 27 46
98 69 40 26 14 5 5 2 5 100 5 0 1 0 0 0 2 5 4 1 2 0 0 3 9 0 0 0 0 0 0 0 0 0 3 4 5 12 26 37 34 31 7
100 100 99 47 34 17 5 21 76 56 36 5 5 2 0 5 2 0 5 5 1 3 0 4 0 0 0 0 0 0 0 0 0 0 5 15 4 3 27 7 0 1 6
100 100 46 69 50 17 5 10 26 81 43 13 41 5 4 6 10 14 6 4 6 2 5 6 0 0 0 0 0 0 0 0 0 0 0 0 0 1 36 0 0 0 0
100 100 100 100 98 35 4 14 13 58 24 51 83 6 16 41 43 31 27 20 26 20 5 5 4 3 0 0 0 0 0 0 0 0 0 0 0 0 7 0 0 0 0
100 100 100 100 100 92 11 8 12 27 30 90 81 8 13 35 45 30 26 31 31 8 2 5 5 5 0 0 0 0 0 0 0 0 0 0 0 0 0 0 0 0 0
70 100 100 100 100 100 50 7 0 0 8 19 20 10 5 21 27 25 30 31 30 6 0 4 5 3 0 0 0 0 0 0 0 0 0 0 0 0 0 0 0 0 0
83 23 94 100 100 100 87 30 1 0 1 0 5 10 4 5 17 13 22 32 23 7 5 5 2 0 0 0 0 0 0 0 0 0 0 0 0 0 0 0 0 0 0
5 5 8 52 93 100 100 77 20 2 2 4 4 2 2 1 1 16 23 23 20 2 4 2 0 0 3 0 0 0 0 0 0 0 0 0 0 0 0 0 0 0 0
70 12 7 5 16 64 100 89 63 30 8 13 10 5 2 0 1 4 9 8 5 4 2 3 2 5 4 2 0 0 0 0 3 0 0 0 0 0 0 0 2 4 4
100 100 95 37 5 15 47 100 100 72 47 14 3 5 0 2 0 4 1 6 5 5 0 3 5 43 14 5 5 16 4 3 5 2 0 0 0 0 0 0 0 0 4
100 100 100 90 100 100 100 100 100 100 100 69 16 9 14 97 13 0 0 5 5 0 2 5 5 5 11 8 73 5 4 1 2 1 0 0 0 0 0 0 0 0 0
100 100 100 100 83 100 100 100 100 100 100 73 63 63 20 5 5 5 5 2 8 5 9 96 100 100 98 100 91 14 5 5 5 5 5 0 0 0 0 0 0 0 0
68 100 100 100 100 96 100 100 100 100 100 100 100 66 5 1 5 5 6 41 76 86 100 99 100 100 100 94 66 86 8 15 7 15 6 7 9 4 0 0 0 0 0
100 100 100 100 100 100 43 97 100 100 100 100 100 51 18 6 5 5 5 74 100 79 98 100 100 100 100 99 48 98 80 95 94 98 68 87 58 28 7 5 5 4 0
68 100 100 100 100 100 100 98 100 85 100 100 100 62 41 17 19 15 59 100 100 97 100 100 100 100 100 100 100 100 100 89 100 100 100 100 86 45 8 5 5 5 5
96 72 99 100 100 100 100 100 100 90 42 97 100 86 68 65 68 78 100 49 45 77 68 86 100 100 100 100 100 100 100 100 100 100 100 100 100 100 56 5 5 5 27

GFSSE_prec_cloud_045.txt.gz
Cloud_Cover
5 7 7 98 18 55 79 28 8 5 76 100 100 100 25 19 17 12 4 5 5 5 5 82 31 97 98 8 0 0 88 1 100 79 0 0 0 0 0 0 0 0 0
4 8 100 68 15 72 46 43 28 72 61 100 98 32 5 8 24 5 5 5 5 0 6 64 54 91 6 0 0 0 0 0 0 0 0 0 0 0 0 0 0 0 1
0 0 91 20 5 5 12 7 39 61 70 76 56 27 58 63 24 5 5 5 8 2 41 72 55 0 0 0 0 0 0 0 0 0 0 0 0 0 0 0 0 0 0
0 0 5 5 5 4 39 31 3 2 4 65 47 58 4 5 5 9 7 13 11 48 100 98 0 0 0 0 0 0 0 0 0 0 0 0 3 3 0 0 0 2 0
0 0 4 5 5 5 22 100 24 5 7 42 80 94 18 0 0 5 0 90 100 100 90 3 0 0 0 0 0 0 0 0 0 0 0 0 50 7 24 6 0 0 0
28 0 5 8 14 80 88 93 5 11 13 44 54 95 0 0 0 0 0 98 21 1 0 0 0 0 0 0 3 0 0 0 0 0 0 0 1 88 3 1 35 94 79
29 5 2 66 100 100 85 59 3 19 13 6 53 7 5 5 4 31 100 78 0 0 0 2 4 4 2 8 3 0 0 0 0 0 0 0 5 7 27 21 64 90 65
52 6 5 92 94 44 5 5 5 5 4 5 17 4 2 5 5 5 3 3 5 5 4 0 2 0 7 3 0 0 0 0 0 0 0 0 57 0 7 24 42 87 30
100 99 5 32 14 5 5 1 0 0 22 3 5 5 2 1 3 2 5 5 4 6 4 5 6 16 1 0 0 0 0 0 0 0 0 6 0 0 3 8 22 18 53
100 76 5 5 7 5 0 0 0 3 76 5 2 4 0 3 0 0 3 2 2 4 0 0 5 0 0 0 0 0 0 0 0 0 0 12 0 2 11 27 70 25 0
98 54 43 18 5 5 5 4 4 82 43 4 1 0 29 0 0 0 1 1 0 12 1 0 1 0 0 0 0 0 0 0 0 0 0 1 0 13 21 36 63 15 0
100 100 89 45 24 63 5 5 13 68 85 5 5 3 0 0 1 0 0 0 0 8 0 19 3 0 0 0 0 0 0 0 0 0 3 0 0 17 20 8 15 16 10
100 100 100 92 44 27 1 1 5 91 100 55 5 5 5 5 3 30 0 0 1 0 24 32 5 5 0 0 0 0 0 0 0 0 0 0 0 6 30 0 0 0 0
100 100 100 86 50 65 10 4 16 84 91 88 82 75 66 5 5 41 30 0 6 29 0 0 4 5 5 0 0 0 0 0 0 0 0 0 0 10 2 0 0 0 0
100 100 100 75 31 100 76 18 3 9 87 80 79 61 16 64 17 5 36 5 3 28 0 4 0 5 5 4 0 0 0 0 0 0 0 0 0 0 0 0 0 0 0
56 98 100 100 98 100 100 55 0 1 29 23 10 5 5 5 34 10 37 34 12 14 0 3 5 5 0 2 0 0 0 0 0 0 0 0 0 0 0 0 0 0 0
6 5 7 85 100 100 100 90 23 4 6 4 12 3 2 5 5 5 26 46 2 0 0 4 5 4 0 0 0 0 0 0 0 0 0 0 0 0 0 0 0 0 0
5 5 5 6 77 100 100 100 78 36 74 62 9 22 7 5 4 7 33 33 5 0 0 2 3 2 0 5 0 0 0 0 0 3 4 5 5 5 5 1 0 0 0
9 5 5 15 38 92 100 100 100 77 32 100 92 7 18 69 15 5 27 7 3 0 0 4 5 4 5 2 0 0 0 5 5 4 5 5 5 5 5 5 5 3 0
94 95 37 24 5 38 94 100 100 100 96 62 38 13 74 51 40 44 26 5 4 6 5 4 1 0 4 0 0 0 4 5 5 0 1 4 5 5 2 0 0 0 0
100 100 100 100 100 83 100 100 100 100 100 100 86 86 100 100 100 100 34 5 5 5 5 5 5 5 4 5 5 6 17 60 5 5 5 5 3 4 3 5 5 5 4
100 100 100 100 100 100 100 100 98 100 100 100 100 100 52 21 63 14 51 20 6 5 5 5 10 17 5 34 100 100 100 99 84 52 32 5 5 17 5 7 17 5 5
99 94 100 100 100 100 100 99 100 100 100 100 100 100 100 81 100 100 77 100 88 26 5 5 5 29 57 83 100 100 100 97 68 96 62 99 99 96 40 92 93 94 30
10 26 84 98 100 100 100 100 99 99 100 100 100 100 100 100 100 100 100 99 76 99 88 90 8 47 48 100 100 100 100 100 100 100 100 99 99 84 97 100 100 100 87
19 62 100 100 100 100 100 100 100 100 100 100 100 100 100 100 100 100 100 100 94 58 96 100 90 100 100 100 100 100 100 100 100 100 100 100 100 100 100 100 96 80 31
57 48 40 64 95 100 100 100 100 100 100 100 100 100 100 100 100 100 100 100 100 76 97 91 100 100 100 100 100 100 100 100 100 100 100 100 100 100 100 100 100 100 99

GFSSE_prec_cloud_048.txt.gz
Cloud_Cover
4 5 5 63 16 2 1 6 3 42 69 61 97 78 26 14 30 81 23 12 54 5 6 5 6 10 19 5 4 67 71 45 34 0 0 0 0 0 0 0 0 0 0
0 3 5 100 27 5 5 5 5 5 97 89 100 100 20 15 5 5 10 12 5 5 31 37 71 5 4 1 0 0 0 0 6 8 0 0 0 0 0 0 0 0 0
0 4 0 51 0 3 23 7 5 10 26 18 16 5 5 5 5 5 5 5 9 6 30 35 8 5 0 0 0 0 0 0 0 0 0 0 0 0 0 0 0 0 0
0 5 25 4 5 5 5 54 5 12 6 83 52 5 5 5 5 5 12 8 18 35 62 32 0 0 0 0 0 0 0 0 0 2 0 0 0 0 0 0 0 0 0
0 0 7 0 0 3 4 39 2 5 8 100 67 23 2 0 8 14 22 72 85 100 100 29 0 0 0 0 0 0 0 3 2 0 0 33 76 18 10 0 4 5 2
0 0 29 3 0 3 78 100 21 14 2 10 46 34 5 5 14 5 6 100 100 99 5 0 0 0 0 1 2 0 2 3 0 0 12 2 99 46 21 5 97 28 59
0 1 22 2 8 53 100 80 76 7 13 92 48 36 2 1 7 5 5 14 54 2 3 5 5 5 5 8 5 4 5 3 0 0 2 59 21 10 8 10 35 64 54
3 4 5 67 100 100 100 100 18 12 9 14 49 0 2 5 3 27 15 3 0 0 0 0 0 3 10 3 5 4 3 0 0 1 1 85 0 7 37 2 5 85 4
12 0 2 38 100 100 97 8 5 5 14 5 9 4 0 0 5 5 4 4 0 0 1 0 0 11 0 0 0 0 0 0 3 0 0 99 0 6 18 3 18 23 8
22 6 5 90 100 100 77 6 5 6 27 97 1 0 0 1 5 0 0 0 1 0 0 0 0 0 0 0 0 0 0 0 0 0 13 31 3 30 22 23 90 24 5
46 18 7 65 100 100 100 54 5 5 92 3 4 1 0 0 0 0 0 0 1 22 8 15 0 0 0 0 0 0 0 0 0 0 2 2 0 18 19 32 64 15 6
99 62 13 82 80 82 88 17 5 10 100 60 5 5 0 1 0 0 0 0 2 93 11 23 0 4 2 0 0 0 0 0 0 0 0 0 4 22 0 1 21 15 3
98 100 96 18 43 86 76 59 27 9 5 5 5 5 5 5 14 0 0 0 0 61 11 25 0 2 5 5 0 0 0 0 0 0 0 0 7 16 0 0 0 0 0
100 100 100 95 14 11 21 6 5 5 5 9 67 5 5 5 17 19 5 0 0 12 50 68 1 0 1 5 3 0 0 0 0 0 1 0 0 0 0 0 0 0 0
76 100 100 100 55 18 5 5 5 5 5 72 68 75 5 5 5 16 25 12 1 0 3 2 0 5 0 0 0 0 0 0 0 0 0 1 0 0 0 0 0 0 0
5 28 98 100 100 56 97 14 9 5 5 15 75 77 60 5 5 6 17 41 27 3 0 0 0 0 5 5 0 0 0 0 0 0 0 0 0 0 0 0 0 0 3
5 15 5 30 25 53 100 81 29 47 18 5 47 64 42 5 5 5 5 12 47 28 1 0 0 0 1 5 1 0 0 0 0 0 0 0 0 0 0 4 5 5 5
5 58 50 46 20 22 98 100 100 64 34 18 5 5 8 5 61 63 8 5 37 58 11 5 5 5 0 1 0 0 0 0 0 0 0 0 0 0 0 3 3 1 2
39 85 78 55 11 5 16 100 100 100 93 19 44 9 10 5 37 9 11 48 83 64 32 5 5 4 10 5 2 2 0 0 4 0 0 0 4 0 0 0 5 5 5
9 5 5 5 5 6 52 95 100 100 100 50 27 20 40 24 34 51 30 46 6 32 47 87 69 33 8 8 9 5 5 5 5 5 12 28 10 9 5 4 4 4 5
100 100 100 45 5 10 37 100 100 100 100 100 100 79 94 100 100 69 28 5 5 28 46 100 100 63 5 8 5 5 52 20 47 100 100 100 66 39 5 5 5 5 5
90 20 68 91 100 100 92 20 8 60 100 100 100 100 100 100 100 53 34 60 73 18 12 41 41 55 100 35 10 26 23 5 46 98 100 100 100 100 60 5 6 5 5
100 100 100 100 98 100 100 100 82 37 71 100 100 100 100 100 100 100 100 100 100 100 99 100 100 100 100 100 100 52 79 73 58 100 95 95 100 100 100 62 25 35 5
84 97 71 100 100 100 100 100 100 100 100 100 61 100 100 100 100 100 100 100 100 100 100 100 91 99 100 100 57 100 93 100 100 100 100 100 100 100 96 88 93 86 100
52 7 5 10 10 57 100 100 100 100 100 100 100 100 100 100 100 100 100 100 100 100 100 100 100 100 100 100 100 100 100 100 100 100 100 100 100 100 100 100 100 100 100
5 5 5 5 33 63 69 94 100 100 100 100 100 100 100 100 100 100 100 100 100 100 100 100 100 100 100 100 100 100 100 100 100 100 100 100 100 100 100 100 100 100 100

GFSSE_prec_cloud_051.txt.gz
Cloud_Cover
0 1 0 0 1 0 3 5 39 99 100 100 99 37 76 17 11 10 6 2 5 33 47 33 12 7 5 5 5 5 78 83 90 16 0 0 0 0 0 0 0 0 0
0 0 1 0 97 5 5 5 5 31 46 97 100 100 68 89 5 5 66 29 10 53 25 7 10 5 5 5 5 4 0 0 0 0 0 0 0 0 0 0 0 0 0
4 9 0 54 8 1 0 8 1 2 95 4 32 8 9 10 5 5 5 5 5 14 15 20 5 5 5 5 0 0 0 0 0 0 0 0 0 0 0 0 0 0 0
0 10 7 1 4 0 0 20 4 28 5 5 5 5 5 5 5 10 7 5 5 42 33 9 5 5 4 5 3 0 0 0 0 0 5 17 16 0 0 0 0 0 0
6 7 2 0 0 0 0 2 33 72 61 96 6 5 5 5 5 17 83 60 62 92 100 10 0 0 0 0 0 0 0 1 4 4 21 5 82 4 11 0 16 3 0
0 3 7 0 0 5 19 42 93 5 75 98 43 3 0 2 15 21 30 98 99 100 57 0 0 0 0 0 0 0 0 0 0 16 42 12 94 42 11 2 16 27 9
0 12 2 0 0 2 100 100 78 7 21 89 1 4 0 3 14 23 0 62 83 5 2 4 5 2 0 3 0 0 0 0 10 14 47 100 8 20 47 23 37 51 96
0 12 17 0 0 4 100 100 95 38 64 97 25 1 2 3 0 1 0 0 8 0 0 0 1 7 15 0 0 0 0 0 31 15 84 93 0 14 34 7 0 1 16
7 0 15 14 100 97 100 100 40 0 56 5 5 5 5 5 5 5 3 0 0 0 0 3 3 0 0 0 0 0 0 0 20 16 44 99 0 10 8 0 1 9 0
15 0 0 2 94 100 97 99 34 5 5 6 6 5 5 0 5 5 5 5 4 2 0 0 0 0 0 0 0 0 0 0 12 0 60 31 0 10 22 0 16 14 1
12 12 3 8 11 2 5 8 4 6 94 100 100 16 5 4 1 5 4 1 0 0 0 0 0 0 0 0 0 0 0 0 0 1 49 0 0 12 26 12 0 27 13
11 12 10 12 11 1 1 0 4 5 79 100 100 99 38 5 3 5 0 0 0 28 0 0 0 0 0 0 0 0 0 0 0 0 1 0 4 9 0 0 24 23 2
98 7 9 21 7 5 2 0 0 0 16 70 12 12 49 10 5 4 3 0 0 0 3 0 0 0 0 0 0 0 0 0 0 4 1 0 0 1 0 0 1 0 0
51 100 44 6 23 22 5 5 5 9 21 62 60 60 6 12 36 6 0 4 0 0 11 10 25 0 0 0 0 0 0 0 0 0 0 0 0 0 0 0 0 0 0
100 99 100 93 35 26 5 5 5 22 28 14 5 5 84 15 10 18 22 18 5 7 8 11 21 4 0 0 0 0 0 0 0 0 0 0 0 0 0 0 0 0 0
37 42 43 100 90 29 20 5 26 24 33 28 14 5 6 55 6 8 21 22 17 5 9 19 6 0 0 0 1 5 4 3 4 0 0 0 0 0 0 0 0 0 0
5 5 5 5 11 14 6 9 7 16 18 28 39 40 5 5 49 18 89 26 8 19 25 29 23 5 5 5 5 5 2 4 0 1 5 5 4 5 5 5 0 0 0
5 5 49 65 20 29 16 29 58 24 46 28 17 33 68 12 5 5 11 5 6 5 35 35 20 5 5 5 24 5 5 8 5 5 5 5 5 5 5 0 0 0 1
6 5 5 29 16 5 8 40 99 100 56 31 65 23 100 90 36 5 96 100 29 5 69 22 25 5 5 63 50 47 100 92 6 11 5 5 5 5 3 3 30 47 5
73 36 6 5 14 5 5 60 80 100 100 92 70 82 100 74 77 16 14 6 5 5 5 60 47 81 64 44 47 60 100 100 93 52 18 16 5 5 21 51 6 40 25
98 85 99 86 76 19 87 100 80 31 82 100 43 71 45 47 37 44 12 5 22 44 72 84 97 83 86 11 6 8 81 89 100 99 5 53 9 6 6 72 97 84 7
100 100 100 100 100 66 19 5 97 67 81 100 100 96 11 19 7 10 100 100 100 100 73 100 100 100 100 86 86 95 97 99 100 100 100 100 100 96 99 100 96 100 100
100 100 100 96 71 69 98 98 26 5 5 1 29 79 100 96 66 91 100 84 92 82 100 100 100 100 55 98 100 97 98 100 100 100 100 100 100 100 100 100 100 100 100
100 100 100 100 100 100 98 25 5 5 5 73 96 96 73 7 58 83 100 98 100 100 100 100 100 100 100 100 93 98 98 100 100 100 100 100 100 100 100 100 100 100 95
100 100 100 100 100 100 100 100 79 54 19 13 16 94 100 99 52 92 100 100 100 100 100 100 100 100 100 100 100 100 100 100 100 100 100 100 100 100 100 100 100 100 100
100 100 100 100 100 100 100 92 38 30 5 5 48 98 100 97 100 100 100 100 100 100 100 100 100 100 100 100 100 100 100 100 100 100 100 100 100 100 100 100 100 100 100

GFSSE_prec_cloud_054.txt.gz
Cloud_Cover
0 1 5 5 5 5 5 5 5 6 51 35 23 55 51 64 6 5 5 5 5 16 3 0 4 4 6 7 0 2 0 25 0 2 0 0 0 0 0 0 0 0 14
0 0 2 5 0 0 0 0 22 5 100 90 100 100 100 99 100 90 54 83 56 22 15 5 5 5 5 5 5 0 0 0 0 0 0 0 0 0 0 0 0 0 0
0 0 0 0 96 0 0 2 0 39 100 47 46 75 38 19 35 5 54 15 5 27 20 5 5 5 3 4 0 0 0 0 0 0 0 0 0 0 0 0 5 1 0
0 0 0 0 11 0 0 5 5 85 37 5 3 5 3 5 27 6 5 6 5 39 12 5 5 5 5 2 0 0 0 0 0 0 96 99 0 0 0 0 1 0 0
0 7 0 0 0 0 0 0 18 86 1 0 0 0 5 5 81 86 88 10 11 17 55 4 2 0 0 3 0 0 0 0 0 49 0 5 3 2 11 35 30 1 3
5 1 0 0 0 0 96 100 40 1 29 0 0 0 0 10 89 100 75 28 100 100 0 1 0 0 0 2 0 0 0 0 0 100 0 6 0 91 88 13 99 99 99
0 0 5 5 5 8 100 100 89 73 100 95 0 0 1 15 32 14 14 96 85 0 0 0 0 0 3 0 0 0 0 0 0 100 100 4 1 94 100 36 20 100 52
0 0 0 0 1 1 100 100 98 43 100 98 3 2 5 15 8 2 2 2 6 0 0 0 0 1 0 0 0 0 0 0 11 0 53 21 0 22 23 4 4 11 28
2 0 0 0 0 0 100 100 100 1 10 22 0 0 0 0 0 0 5 14 5 0 1 0 5 0 0 0 0 0 0 0 2 2 27 0 0 22 12 0 15 6 9
0 0 0 0 0 0 96 100 100 1 0 0 0 0 0 5 89 100 26 48 11 5 1 0 1 5 0 0 0 0 0 0 0 0 0 0 0 20 22 0 0 13 0
1 7 0 0 0 0 4 3 38 22 0 0 0 0 0 4 75 100 100 100 13 5 5 5 3 0 0 0 0 0 4 0 0 1 0 0 0 16 7 1 0 10 1
14 0 26 1 0 3 34 5 1 0 0 8 5 4 5 5 5 13 38 16 2 5 9 4 0 0 0 0 0 0 0 0 0 0 0 0 0 3 0 6 7 7 0
1 73 5 2 13 3 5 0 0 0 5 6 36 5 5 4 0 0 0 5 5 3 0 0 0 5 0 0 0 0 0 0 0 0 0 0 0 0 0 0 3 0 0
1 0 0 40 16 4 0 0 0 0 3 5 5 5 5 5 5 5 5 5 0 0 0 0 0 0 0 0 0 0 0 0 0 0 2 5 5 0 0 0 0 0 3
0 0 0 0 22 0 2 1 23 18 5 5 5 5 5 5 4 5 5 5 5 4 0 1 3 0 1 2 0 0 0 4 2 3 0 0 0 0 0 0 0 5 4
0 2 27 50 66 40 48 100 100 35 15 5 5 5 5 5 4 5 5 5 5 5 5 2 6 5 4 0 0 0 0 4 5 4 5 5 5 5 0 2 4 5 5
79 100 100 100 100 100 100 100 24 5 5 5 5 5 5 5 5 5 3 3 5 5 37 33 14 5 5 5 4 4 5 3 18 55 44 6 7 5 5 5 5 5 5
76 76 99 88 71 39 6 74 8 8 84 75 72 39 5 5 9 17 5 0 1 5 6 5 5 5 5 5 10 5 5 5 19 22 94 95 100 100 30 5 5 5 3
36 87 40 78 100 94 35 75 47 52 17 70 97 24 80 100 32 3 2 1 0 3 5 5 4 5 5 10 72 49 80 38 24 57 100 93 63 20 12 20 5 5 5
97 100 100 100 100 73 34 98 100 94 100 96 56 91 23 4 5 1 3 0 0 0 3 5 5 5 58 65 79 59 33 67 100 100 100 37 48 93 100 100 100 87 57
100 100 100 100 96 84 100 100 100 100 100 100 100 6 5 28 9 5 1 5 0 0 0 5 5 6 56 72 47 100 100 100 100 100 100 90 100 56 100 100 100 96 100
100 100 100 100 72 63 90 100 100 100 100 73 5 5 5 90 78 19 1 0 0 1 6 21 70 100 100 100 94 100 100 100 100 100 100 100 100 100 88 100 100 100 100
100 100 100 100 100 100 100 98 67 84 61 47 15 5 7 5 6 43 100 86 12 6 40 57 31 34 7 49 99 100 73 99 98 100 100 100 100 100 100 100 100 100 100
100 100 100 100 100 100 100 93 13 5 13 76 99 99 5 5 2 0 0 11 99 98 90 21 35 78 94 93 100 100 100 100 100 100 100 100 100 100 100 100 100 100 100
100 100 100 100 90 51 40 25 95 79 11 45 6 12 5 5 5 16 24 6 38 100 100 100 100 100 100 88 97 100 100 100 100 100 100 100 100 100 100 100 100 100 100
100 100 100 100 100 100 100 100 100 100 100 77 10 6 5 5 57 58 68 63 99 100 100 100 100 100 100 100 100 100 100 100 100 100 100 100 100 100 100 100 100 100 100

GFSSE_prec_cloud_057.txt.gz
Cloud_Cover
6 0 0 0 8 65 20 5 5 5 5 14 48 14 39 25 6 10 15 11 8 3 5 5 5 22 29 1 0 1 0 0 0 0 0 0 0 0 0 0 0 8 11
0 3 0 0 0 0 5 5 5 25 100 68 70 100 16 50 91 96 62 78 66 13 5 5 5 4 0 0 1 3 1 2 0 0 0 0 0 0 0 0 0 15 8
0 6 0 0 0 0 0 0 0 79 51 16 44 57 79 95 100 97 88 29 86 31 39 5 1 0 5 1 3 5 2 0 0 0 0 0 0 0 0 0 0 0 0
0 0 0 26 0 0 2 0 4 83 33 1 5 5 5 5 5 5 5 58 33 16 0 1 2 2 4 3 1 0 0 0 0 1 0 0 0 0 6 1 0 12 3
0 0 0 97 0 0 2 5 16 82 2 0 4 5 5 91 44 78 11 8 11 5 5 5 4 0 4 4 0 0 0 0 0 0 0 0 0 39 97 16 7 9 8
0 0 0 15 0 0 0 0 0 3 5 5 5 5 11 100 28 74 98 15 55 3 0 2 0 0 0 0 0 0 0 0 8 0 0 28 47 100 99 19 100 96 99
0 0 0 0 0 8 23 96 42 0 0 1 0 0 16 79 100 68 25 70 0 4 3 1 0 0 0 0 0 0 0 0 28 4 0 0 96 100 100 93 100 100 100
0 0 0 0 4 99 100 100 63 9 0 0 0 0 19 29 18 13 4 4 5 4 3 2 0 0 0 0 0 4 5 0 0 0 0 0 0 23 10 0 6 88 72
0 0 1 0 4 87 100 100 35 1 0 0 0 0 0 2 6 1 0 0 0 1 4 5 5 5 5 5 5 5 5 0 0 0 0 0 0 54 70 16 4 9 2
0 0 0 0 0 0 26 72 94 0 0 0 0 0 0 0 0 0 0 0 0 0 0 5 99 100 98 13 5 5 0 0 0 0 0 0 0 39 16 0 5 1 3
0 0 0 0 0 0 10 78 72 0 0 0 0 0 0 0 0 0 0 0 0 0 0 4 0 0 0 5 1 0 4 5 0 4 0 0 0 7 3 0 0 0 0
0 0 0 0 0 1 4 5 0 0 0 0 0 0 0 0 0 0 0 0 0 0 0 0 3 0 0 0 0 0 1 2 3 0 3 0 0 0 0 2 3 0 3
0 0 0 0 1 0 0 2 1 18 24 0 0 0 0 3 5 5 5 1 3 0 11 5 1 0 0 0 0 1 5 4 5 4 0 0 0 0 0 0 1 0 4
0 0 0 0 0 5 4 1 0 0 0 0 0 0 0 0 2 5 5 2 3 5 10 5 4 0 0 0 0 5 5 0 0 0 0 0 0 0 0 1 0 6 0
0 0 0 0 0 0 0 0 0 0 0 0 0 0 2 62 75 6 5 5 5 4 5 36 14 5 1 0 0 1 0 0 0 0 1 1 0 5 5 5 8 41 5
0 0 5 5 5 5 4 4 0 0 0 0 38 48 5 29 67 14 5 5 5 5 5 5 6 5 5 5 5 5 4 0 0 0 5 3 6 25 5 5 100 100 100
2 5 5 5 5 5 5 4 2 1 5 16 72 99 33 61 70 32 7 5 5 5 4 3 28 5 65 76 5 5 4 5 4 5 52 86 28 5 8 8 45 100 99
5 5 0 4 5 5 5 0 2 25 98 98 95 98 64 51 61 31 5 5 5 5 5 5 4 5 13 30 45 8 5 5 5 66 100 100 89 17 5 98 56 7 100
10 30 7 5 0 1 5 70 65 49 49 10 28 79 21 43 93 19 12 35 5 5 7 85 20 5 3 5 33 28 5 16 21 29 100 100 100 100 100 72 94 100 100
90 69 70 28 5 8 46 80 22 10 79 100 58 51 99 100 50 37 6 14 5 5 55 6 5 0 0 3 4 5 10 15 25 100 64 100 100 100 100 100 100 100 100
99 53 14 100 89 40 39 20 70 100 100 100 96 100 100 100 90 100 52 26 16 100 59 5 5 5 5 2 3 25 5 95 100 100 94 18 93 100 100 100 100 100 100
100 99 56 48 93 100 100 100 100 100 100 100 100 23 91 99 87 100 97 100 100 27 5 5 0 0 0 4 6 39 52 41 75 94 91 97 75 98 100 100 100 100 100
100 100 100 100 100 100 100 100 100 100 100 100 100 100 53 3 5 5 48 20 25 97 4 0 1 1 4 20 94 60 33 5 4 6 30 81 100 100 100 94 100 100 100
100 100 100 100 100 100 100 86 87 100 100 100 100 51 8 32 40 5 0 2 6 4 11 0 86 41 6 26 16 98 53 6 5 33 99 100 100 100 100 100 100 100 100
100 100 100 100 100 100 99 99 96 92 76 43 32 80 92 20 22 5 3 3 10 15 4 4 5 39 100 100 98 63 41 48 86 100 100 100 100 100 100 100 100 100 100
100 100 100 100 100 100 100 100 78 98 100 100 49 25 5 5 5 5 6 14 5 5 5 62 92 94 100 100 100 100 100 99 100 100 100 100 100 100 100 100 100 100 100

GFSSE_prec_cloud_060.txt.gz
Cloud_Cover
27 18 0 0 3 0 5 12 82 100 42 15 26 94 12 10 7 5 4 5 4 5 83 22 65 80 3 5 6 4 0 0 0 1 0 0 0 0 0 0 44 37 32
26 27 0 0 0 0 5 91 90 11 7 64 85 85 10 15 5 5 19 28 30 60 55 20 18 5 5 10 0 0 0 0 0 0 0 0 0 0 0 0 0 4 4
35 26 2 0 0 0 1 4 4 12 4 5 16 8 5 5 5 50 100 100 98 92 5 5 4 0 0 0 0 0 0 0 0 0 0 0 0 2 0 0 0 0 0
23 28 17 0 0 0 0 0 0 0 0 0 0 3 3 5 5 5 5 28 16 0 4 5 1 0 0 0 0 0 0 0 0 0 0 0 0 14 17 0 12 4 0
32 5 1 0 0 2 0 0 0 0 0 0 0 0 57 50 5 5 15 28 0 5 0 0 0 0 3 0 0 0 0 0 0 0 0 0 27 74 44 10 12 8 57
0 0 77 92 0 0 0 0 0 0 5 5 5 5 12 5 6 5 29 2 0 0 0 0 0 0 0 0 0 0 0 0 0 0 0 5 72 14 54 2 4 76 74
0 0 74 92 9 0 0 0 0 4 5 5 5 18 7 93 7 100 36 0 0 0 0 0 0 0 0 0 0 1 5 0 1 0 1 0 64 89 100 100 100 100 100
0 0 3 0 76 8 0 0 12 0 0 0 0 13 98 88 100 100 3 0 0 0 0 0 0 1 0 0 0 3 2 1 0 0 0 0 2 36 14 6 39 100 100
0 14 31 2 40 100 100 15 95 0 3 4 5 0 5 0 29 87 4 0 0 0 0 0 0 0 0 0 0 0 0 0 0 0 0 0 0 27 58 12 9 13 11
1 35 34 18 40 94 54 94 0 5 5 4 0 0 0 0 0 0 0 0 0 0 0 0 0 0 0 0 0 2 3 0 0 0 0 0 0 6 16 23 3 0 0
3 0 1 1 0 0 0 0 0 0 0 5 0 0 0 0 0 0 0 0 0 0 0 15 1 0 0 0 0 0 0 0 0 0 0 3 5 2 1 22 1 0 0
2 0 2 0 0 0 0 0 1 0 0 0 0 0 0 0 0 0 0 0 0 0 0 5 3 1 0 0 0 0 0 0 0 0 0 1 0 9 1 0 1 0 0
4 1 0 0 0 0 0 20 33 30 20 1 0 0 0 0 0 0 0 4 2 4 14 4 5 4 0 0 0 0 0 0 0 1 0 0 0 0 0 2 4 5 5
65 5 5 1 0 0 4 5 17 28 30 18 0 0 0 0 0 0 14 8 12 11 20 13 5 5 5 5 3 0 0 0 0 4 0 0 0 0 0 0 5 5 10
5 5 42 57 5 5 5 5 5 5 20 7 5 5 4 1 0 0 1 9 12 10 30 28 10 5 11 25 5 5 5 5 0 10 14 0 0 0 1 5 5 5 14
5 5 5 8 5 5 5 5 4 3 5 7 4 3 0 0 0 3 5 6 31 68 12 7 8 5 16 44 62 77 81 39 5 1 10 1 0 1 5 30 47 82 90
5 10 60 5 5 5 5 4 0 0 5 5 4 4 4 3 5 19 16 28 32 69 49 5 11 5 5 9 95 81 87 100 79 41 5 5 5 5 98 100 100 100 100
5 5 5 6 70 12 5 5 5 5 5 5 5 5 5 5 5 53 22 30 66 64 8 32 8 11 33 8 5 11 28 6 5 9 14 5 20 54 81 81 100 100 100
6 5 8 11 8 5 5 19 5 5 7 5 9 5 5 5 37 82 90 100 100 99 87 74 83 92 8 5 5 5 1 3 5 5 5 10 26 96 98 100 100 100 99
84 38 8 10 36 64 11 5 5 5 37 51 21 5 5 67 93 100 100 100 72 100 95 68 79 45 40 27 6 5 5 3 5 5 5 5 7 92 100 100 85 93 100
100 90 19 5 5 5 34 72 58 12 16 83 63 84 100 97 100 100 100 94 89 67 68 65 21 62 72 46 58 70 29 5 5 5 5 4 40 5 11 65 78 42 72
100 80 19 18 44 5 5 47 92 100 100 99 95 100 100 100 100 100 100 100 100 97 83 26 60 40 14 4 2 31 77 24 23 13 33 54 32 71 100 100 100 100 100
100 100 100 98 100 100 98 67 33 9 62 68 86 100 80 99 100 100 100 100 100 92 22 50 16 9 13 11 0 50 79 70 89 88 8 5 5 6 89 100 100 100 100
100 100 100 100 100 100 100 100 100 100 100 100 100 100 100 92 63 75 96 62 22 27 10 5 5 3 1 7 14 28 66 22 7 18 1 5 10 16 81 99 99 100 100
100 100 99 100 100 100 100 100 100 100 100 100 100 100 100 82 85 92 6 2 28 30 13 8 9 25 9 49 98 36 45 98 100 100 100 32 28 49 75 100 100 100 100
100 100 91 71 37 29 43 76 91 96 77 82 50 60 88 92 66 5 5 16 18 13 13 8 11 16 28 43 45 56 96 100 100 95 100 46 57 63 90 100 100 100 100

GFSSE_prec_cloud_063.txt.gz
Cloud_Cover
45 25 1 5 0 1 2 4 5 5 75 91 46 85 34 96 79 5 5 6 7 6 62 91 100 19 4 5 1 1 4 0 0 0 0 0 0 1 18 84 38 39 11
30 25 0 0 0 0 1 0 5 23 83 100 42 23 40 5 25 5 2 0 5 14 63 79 14 4 0 0 0 0 0 0 0 0 0 0 0 0 0 0 0 0 0
47 26 0 0 0 0 0 0 6 4 51 49 16 6 5 5 5 5 8 9 5 96 71 5 4 0 0 0 0 0 0 0 0 0 0 0 0 0 0 0 0 0 0
20 28 1 0 0 0 0 1 1 13 12 88 44 5 5 5 5 5 16 15 5 5 5 5 0 0 0 0 0 0 0 0 1 2 0 0 5 23 1 6 14 0 35
44 23 2 0 0 0 1 0 0 0 0 0 0 0 0 3 5 5 61 7 1 5 5 5 0 0 0 0 0 0 0 0 0 0 0 2 6 37 67 5 2 36 2
50 10 1 0 0 0 0 0 0 0 0 0 0 1 0 0 0 14 40 5 5 4 4 2 0 0 0 0 0 0 0 0 0 0 0 33 45 5 7 5 0 58 48
26 0 22 0 0 0 0 0 0 0 0 0 0 50 95 24 6 34 12 5 5 4 5 0 0 0 0 0 0 0 0 0 0 0 0 0 59 38 100 64 95 100 100
3 0 76 86 0 0 0 0 0 0 0 0 0 99 23 92 95 100 34 5 2 0 0 0 0 0 0 0 0 0 0 0 0 0 0 0 5 26 24 20 8 98 100
2 2 7 38 2 5 0 0 0 0 0 0 0 0 0 90 100 100 15 0 0 0 0 0 0 0 0 0 0 0 0 0 0 0 0 1 1 5 17 31 27 23 30
29 27 37 18 2 100 65 12 0 0 3 2 0 1 5 5 2 37 0 0 0 0 0 0 0 0 0 0 0 0 0 0 0 0 0 3 2 1 5 6 5 1 0
69 67 44 24 0 21 9 4 2 0 0 0 5 5 5 3 1 0 0 0 0 0 0 0 0 0 0 0 0 0 0 0 0 0 3 0 4 5 6 23 0 0 0
60 45 30 13 0 0 0 0 0 0 0 0 5 0 0 0 0 0 0 0 0 0 0 0 3 1 2 0 0 2 5 0 0 0 2 0 1 24 25 12 0 0 2
2 5 5 5 4 4 5 15 24 18 12 0 0 0 0 0 2 0 2 0 2 1 9 3 5 3 5 5 5 5 5 5 3 5 0 5 0 6 16 17 4 5 5
1 5 5 5 5 5 9 24 26 29 21 18 1 0 0 3 3 3 16 3 12 15 22 26 16 5 40 58 64 68 91 45 10 14 4 0 4 5 0 25 5 5 5
5 5 5 5 15 7 6 23 32 34 28 13 7 1 0 0 0 0 4 8 16 10 25 34 28 8 4 14 16 64 85 99 59 99 68 19 5 5 5 7 19 3 5
5 5 5 5 5 33 31 7 9 25 22 30 21 5 5 2 0 2 4 6 15 15 14 23 28 20 7 5 5 5 34 19 40 5 9 5 5 5 5 5 5 18 83
0 5 5 5 5 32 41 36 28 8 6 17 9 5 4 0 5 5 5 5 5 5 5 15 34 99 20 50 14 5 5 5 8 15 8 12 5 5 5 5 5 20 100
5 5 5 5 5 14 5 23 91 69 94 94 47 5 5 1 4 5 5 5 5 5 9 78 100 90 77 24 5 5 5 5 5 5 5 6 9 5 5 5 12 5 18
15 14 60 24 9 5 5 5 5 5 77 80 65 20 5 5 5 7 5 5 5 11 96 100 56 7 40 14 5 5 5 5 5 18 5 5 5 5 58 13 14 57 48
100 88 100 100 95 47 6 34 41 30 22 46 28 50 63 47 46 19 6 5 16 87 100 78 11 94 98 99 5 5 7 5 88 8 5 16 88 79 79 87 97 98 90
100 76 68 91 86 61 37 5 25 26 17 62 23 5 5 10 10 46 59 94 100 100 100 64 100 100 100 47 22 41 13 37 5 5 24 12 22 89 97 100 100 100 98
100 100 100 87 96 76 100 100 100 99 46 10 10 33 54 35 62 99 100 100 100 100 98 100 100 92 85 54 66 68 91 51 7 5 1 0 5 83 91 21 80 20 99
100 100 100 100 99 100 100 100 100 100 100 86 85 82 95 100 100 100 100 100 92 98 100 100 86 9 49 49 40 87 100 100 88 27 19 6 5 5 5 5 28 95 100
100 100 100 100 100 100 100 100 100 100 100 100 100 100 100 100 100 100 97 89 100 100 97 47 38 24 16 25 42 28 79 100 100 100 86 15 5 11 8 5 36 60 94
100 100 100 100 100 100 100 100 100 100 100 100 100 100 100 88 92 20 52 97 60 46 100 88 99 86 46 18 32 51 99 100 100 100 100 100 100 64 36 99 100 100 99
100 100 100 100 100 100 100 100 100 100 100 100 100 100 100 100 100 100 99 64 92 79 100 78 70 48 93 77 57 92 100 100 86 100 99 97 54 20 51 100 45 59 37

GFSSE_prec_cloud_066.txt.gz
Cloud_Cover
16 20 0 0 2 2 5 6 34 14 7 48 62 5 5 82 100 51 54 12 14 69 100 100 62 20 5 5 1 0 0 0 0 0 0 0 0 6 6 1 0 0 0
15 22 0 0 1 1 4 12 5 4 3 4 5 92 11 65 9 50 6 5 5 5 2 25 31 35 76 5 0 0 0 0 0 0 0 0 0 0 4 0 0 0 0
44 17 0 3 0 0 0 0 0 0 22 50 23 29 49 9 58 5 7 5 5 2 1 4 13 5 5 2 0 0 0 0 0 0 0 0 0 0 0 0 0 2 3
53 14 21 0 0 0 3 0 12 55 19 5 5 71 77 14 10 10 19 5 5 5 5 5 3 0 3 0 0 0 0 0 0 0 0 0 1 5 2 30 9 93 54
48 18 0 0 0 0 15 0 0 0 0 5 5 27 45 11 5 34 30 5 5 5 5 5 5 0 0 0 0 0 0 0 0 0 0 2 0 37 22 0 13 4 48
73 20 4 1 0 0 0 0 0 0 0 0 0 5 1 4 0 66 80 0 2 5 5 5 5 0 0 0 0 0 0 0 0 0 3 0 1 6 2 9 5 63 27
84 36 22 0 0 0 0 0 0 0 0 4 10 81 0 0 28 92 1 5 5 5 5 5 1 2 0 0 0 0 0 0 0 0 0 0 8 0 5 5 47 99 91
40 34 7 0 0 0 0 0 0 0 4 5 8 99 78 31 72 88 26 5 5 5 5 5 2 0 0 0 0 0 0 0 0 0 0 0 0 3 10 9 5 42 100
4 0 44 0 0 0 0 0 0 0 5 2 0 57 63 100 100 98 8 0 0 1 1 0 0 0 0 0 0 0 0 0 0 0 0 0 0 5 10 3 5 4 5
26 9 2 16 0 4 0 0 0 0 2 0 0 0 0 1 2 14 1 3 1 0 0 0 0 0 0 0 0 0 0 0 0 0 0 0 0 3 0 5 1 0 0
88 56 24 16 0 0 0 0 0 0 0 0 0 0 0 4 5 58 64 5 0 0 0 0 0 0 0 0 0 0 1 0 0 0 0 0 0 13 5 1 0 3 4
100 98 37 20 0 0 0 0 2 0 0 0 0 0 2 2 5 10 4 0 0 4 2 2 3 1 3 2 5 5 5 5 5 5 1 0 4 13 9 5 4 4 0
100 56 44 21 0 1 1 19 26 21 16 0 0 0 0 0 2 4 6 0 1 0 8 1 1 5 2 3 5 5 5 5 6 5 5 5 5 3 11 17 20 5 0
17 7 10 8 11 0 13 20 18 25 20 17 5 4 5 12 12 11 21 0 7 10 20 19 32 0 0 5 5 5 5 8 40 5 5 5 5 5 6 18 34 13 2
9 5 5 0 1 6 6 23 26 25 23 10 6 5 5 5 5 5 6 4 11 10 24 26 38 23 2 0 1 5 30 97 22 5 13 5 5 4 5 5 26 32 4
26 23 5 5 5 5 8 11 26 28 18 21 19 9 6 5 5 5 5 5 5 14 7 20 23 30 21 4 5 30 100 100 5 6 48 7 5 5 5 5 5 8 13
93 85 13 5 5 5 5 6 15 22 18 31 31 11 18 5 5 5 5 5 5 6 3 8 16 25 36 34 39 100 98 50 5 59 42 5 5 5 5 5 5 5 11
6 5 5 5 5 5 5 5 7 68 67 46 78 96 56 12 8 6 5 5 5 12 6 10 9 17 27 71 99 72 7 20 63 65 16 5 23 12 5 10 5 15 33
5 5 3 8 36 76 5 6 29 92 44 21 48 41 17 62 5 5 5 5 5 7 5 6 15 24 15 30 10 85 54 58 40 5 5 12 6 5 27 86 32 36 51
55 30 48 100 96 56 42 5 5 61 52 68 65 11 5 5 7 24 8 5 8 24 16 25 38 35 87 79 21 76 6 6 28 54 23 5 14 5 6 77 58 73 89
100 100 100 100 100 100 62 61 59 75 82 74 25 5 10 9 12 19 72 75 100 81 66 16 26 8 100 42 75 22 84 100 100 26 5 22 5 5 5 5 6 5 73
100 100 100 100 100 100 100 100 100 100 64 55 79 100 100 80 74 73 33 57 15 9 61 100 40 94 100 91 67 100 100 100 53 8 12 5 5 5 5 5 5 5 10
100 100 100 100 100 100 100 100 100 100 100 77 73 55 64 89 99 99 56 51 66 99 100 100 100 100 100 100 100 79 100 90 64 80 20 45 78 5 5 5 5 16 70
100 100 100 100 100 100 100 100 100 100 100 100 100 100 100 100 100 100 100 100 100 100 100 100 100 100 100 100 75 29 50 100 100 100 98 100 89 28 91 97 48 20 20
100 100 100 100 100 100 100 100 100 100 100 100 100 100 100 100 100 100 100 100 100 100 100 100 100 98 62 81 54 61 40 63 98 100 100 26 31 5 33 78 0 1 5
64 99 100 100 100 100 100 100 100 100 100 100 100 100 100 100 100 100 100 100 100 100 99 100 100 100 98 96 86 99 100 98 100 100 100 100 100 100 67 0 0 59 63

GFSSE_prec_cloud_069.txt.gz
Cloud_Cover
5 5 5 5 5 2 0 42 100 35 4 14 94 55 96 6 71 47 99 73 71 100 95 88 30 5 5 5 5 5 3 0 0 0 0 0 6 9 0 0 0 0 9
4 11 5 5 5 0 0 0 0 0 4 4 9 5 13 3 7 15 5 50 43 6 26 96 7 5 5 3 0 2 0 0 0 0 0 0 0 4 0 0 0 0 1
8 24 1 0 0 0 1 1 0 0 5 5 6 6 15 13 85 36 40 9 5 6 5 18 5 5 5 3 0 0 0 0 0 0 0 0 0 0 0 0 17 6 30
19 28 9 0 0 0 0 0 1 88 83 1 3 2 5 5 12 21 64 12 5 8 5 10 22 8 5 5 4 0 0 0 0 0 31 11 18 11 17 3 0 5 12
36 1 27 0 0 0 0 0 21 22 1 0 0 3 5 40 83 49 92 28 12 3 6 5 5 5 5 5 3 0 0 0 0 2 30 11 40 9 14 5 3 5 6
30 0 40 0 0 0 0 0 0 0 0 0 0 1 5 5 15 20 28 3 1 0 4 1 5 5 5 5 3 0 0 0 0 3 27 15 36 30 5 5 5 5 6
74 13 1 93 0 0 0 0 0 0 0 0 1 0 0 2 34 84 0 0 1 4 5 0 5 5 5 4 0 0 0 0 0 0 0 0 9 5 5 5 5 5 5
85 34 22 82 0 0 0 0 0 0 0 0 13 0 2 15 63 93 0 5 5 5 2 5 5 5 5 0 0 0 0 0 0 0 0 2 0 5 5 5 5 5 20
54 34 35 19 0 0 0 0 0 0 0 0 2 24 90 100 100 91 11 5 5 5 4 0 0 0 0 0 0 0 0 0 0 0 5 0 5 5 5 5 5 2 1
49 12 10 13 9 0 0 0 0 0 0 0 0 10 99 99 100 7 5 5 5 5 5 5 0 0 0 0 0 0 0 0 0 0 0 5 5 3 5 5 1 4 0
70 37 10 8 14 0 0 2 0 0 0 0 0 0 1 1 5 5 1 3 5 5 5 5 0 0 0 0 5 5 5 5 5 5 5 5 5 18 5 5 5 5 5
100 99 30 21 6 13 3 0 0 0 0 0 0 0 0 0 0 0 3 5 5 5 5 0 0 0 0 0 0 1 2 1 4 2 5 5 5 8 5 5 5 6 5
100 100 65 33 2 0 2 0 0 0 0 0 0 0 0 0 0 0 0 3 3 5 1 0 0 2 0 0 0 0 0 3 0 5 5 46 5 5 6 5 7 5 5
100 97 80 24 14 0 0 0 0 0 0 0 0 0 0 0 0 0 0 0 0 1 1 0 0 4 2 0 2 5 0 0 0 6 100 29 5 5 5 5 6 5 5
100 67 89 62 62 30 5 0 0 0 0 0 0 0 4 3 5 12 5 5 5 5 5 5 2 0 4 5 5 5 5 2 5 91 100 37 5 5 31 9 8 23 31
100 82 5 25 69 67 36 5 0 0 0 4 5 0 5 5 3 5 5 5 15 15 5 5 1 2 5 5 5 5 5 5 64 100 47 5 63 98 72 10 5 14 70
100 100 99 100 94 14 5 5 0 0 0 5 5 5 5 5 5 5 5 5 32 16 6 5 5 5 5 5 5 5 5 5 60 80 18 86 100 97 6 5 5 5 8
100 100 100 100 92 9 5 4 5 5 4 0 5 5 35 70 43 42 43 5 26 27 5 5 5 6 5 5 5 12 23 19 99 100 89 99 99 38 5 5 3 2 5
100 100 100 100 100 89 5 5 13 5 5 5 29 6 16 7 5 41 26 7 33 24 6 5 7 10 8 7 5 34 16 72 100 100 100 97 24 5 5 5 5 6 13
100 100 100 96 98 99 92 80 95 68 84 90 37 27 63 45 8 34 20 13 10 6 20 49 52 56 36 43 44 54 86 100 100 83 96 30 5 5 5 13 13 37 78
100 100 100 100 100 100 100 100 100 100 100 100 98 66 62 28 57 83 100 90 57 62 71 100 100 100 91 9 20 78 100 100 100 5 47 5 5 5 5 5 5 6 5
84 100 100 99 99 99 100 100 100 100 100 100 100 100 100 100 100 100 100 100 100 100 100 100 96 65 17 91 91 100 100 100 59 48 68 13 5 5 37 49 19 5 5
100 99 98 100 94 100 100 100 100 100 100 100 100 100 100 100 100 100 100 100 100 100 100 99 78 87 100 100 100 92 84 99 100 96 51 61 83 100 97 47 8 5 12
100 100 100 93 98 100 100 100 100 100 100 100 100 100 100 100 100 100 100 92 100 91 99 100 100 100 100 100 100 100 100 100 100 100 89 100 100 100 100 100 43 5 6
100 100 100 100 100 100 100 100 100 100 100 100 100 100 100 100 100 100 100 100 100 100 100 100 100 100 100 100 100 100 100 99 100 100 100 98 100 100 100 100 59 5 32
100 100 100 100 100 91 79 100 100 100 100 100 100 100 100 100 100 100 100 100 100 100 100 100 100 100 100 100 100 100 100 100 100 87 100 100 100 100 100 58 5 23 35

GFSSE_prec_cloud_072.txt.gz
Cloud_Cover
3 25 5 2 5 5 5 9 100 54 11 13 12 6 98 76 56 7 9 7 84 36 73 82 31 18 5 4 5 5 2 0 0 0 0 4 6 0 0 0 3 5 5
5 33 5 1 5 1 5 5 5 0 0 2 11 11 3 2 4 5 4 4 11 63 35 57 14 5 5 5 5 8 5 2 0 0 1 0 0 0 0 0 5 7 5
5 69 25 5 5 1 32 5 5 1 0 0 19 4 3 8 1 8 70 88 17 50 39 34 5 5 5 5 24 29 5 5 0 0 0 0 0 13 9 2 4 5 14
4 100 76 5 5 5 5 0 1 13 5 2 1 0 2 16 6 8 20 9 73 35 72 8 5 5 5 5 5 5 5 5 0 18 33 21 4 8 16 12 5 9 15
0 4 64 5 5 3 4 1 56 1 0 0 0 0 0 20 41 40 100 100 100 82 9 5 9 5 5 5 21 5 2 5 3 87 82 100 49 32 20 4 9 22 50
2 0 12 5 4 0 0 0 0 0 0 0 0 0 0 20 73 5 6 5 12 5 5 5 5 5 5 5 5 5 5 5 36 40 29 0 2 5 5 5 46 15 5
5 45 20 0 0 0 0 0 0 0 0 0 0 0 0 10 42 46 0 4 5 0 3 5 5 5 1 0 5 5 5 0 1 0 0 0 0 5 5 13 5 5 5
8 100 19 83 0 0 0 0 0 0 0 0 0 0 0 25 91 91 0 5 1 5 5 5 5 5 2 0 0 0 0 0 0 0 0 0 0 5 5 5 5 5 3
16 95 95 67 2 0 0 0 0 0 0 0 3 0 0 35 100 79 5 5 2 5 5 5 5 5 4 0 0 0 0 0 0 0 0 0 0 5 34 5 5 5 5
86 100 72 93 38 47 1 0 0 0 0 0 0 18 57 42 68 5 1 5 5 5 5 5 5 5 3 0 0 0 0 0 0 0 0 3 0 5 5 5 5 5 5
99 100 100 100 77 100 54 6 0 0 0 4 0 2 0 0 3 6 7 5 5 5 5 5 5 5 5 3 0 0 0 0 0 0 0 0 0 5 5 5 5 5 5
99 91 98 100 99 100 65 19 23 0 0 0 0 0 0 0 0 4 7 0 0 0 0 3 4 4 5 0 0 0 0 0 0 0 0 0 0 5 38 5 5 5 5
96 95 81 82 100 93 52 61 27 5 0 0 0 0 0 0 1 0 0 1 0 9 6 5 5 5 4 5 0 0 0 0 0 0 0 0 5 51 18 37 5 5 20
100 100 41 43 58 80 99 40 37 17 1 0 0 0 0 0 0 0 0 0 0 0 5 5 6 5 5 5 5 5 0 2 0 4 5 1 5 65 56 5 19 55 47
98 94 70 64 54 54 68 78 52 22 0 2 0 0 0 0 0 0 0 5 5 5 5 5 5 5 5 5 5 5 5 5 5 5 5 5 5 100 100 67 100 81 30
83 59 73 92 79 67 55 56 41 21 7 4 0 0 0 0 4 5 4 5 5 5 5 5 5 5 6 5 5 5 5 5 5 5 5 5 92 100 100 100 100 27 57
100 100 82 88 100 88 60 51 34 18 8 7 7 5 5 5 5 11 5 5 22 33 49 18 42 5 5 5 10 5 5 5 30 5 41 40 100 100 100 100 82 48 4
100 100 100 100 100 68 34 57 23 16 8 15 64 46 100 76 15 6 5 5 46 59 13 5 19 42 18 46 6 33 33 100 94 61 6 88 100 100 100 66 5 5 1
100 100 100 100 100 100 100 100 83 48 26 12 66 31 84 80 75 63 46 22 72 41 12 40 38 12 31 40 41 97 100 100 89 78 89 95 96 99 6 5 5 3 2
100 100 100 100 100 100 100 100 100 100 91 88 88 75 82 100 98 81 49 51 94 97 62 38 50 62 84 96 100 100 100 100 100 100 99 100 92 38 5 3 4 0 1
100 100 100 100 100 100 100 100 100 100 100 100 100 100 100 100 100 92 99 86 67 86 99 100 100 100 100 100 100 100 100 100 100 100 96 100 37 5 5 0 0 0 0
100 100 100 100 100 100 100 100 100 100 100 100 100 100 100 100 100 100 100 100 100 100 100 100 100 100 100 100 100 100 100 100 100 100 100 17 5 5 5 0 5 5 5
100 100 100 100 100 100 100 100 100 100 100 100 100 100 100 100 100 100 100 100 100 100 100 100 100 100 100 100 100 100 100 100 100 100 100 74 78 74 29 5 5 5 5
100 72 88 98 100 100 100 100 100 100 100 100 100 100 100 100 100 100 100 100 100 100 100 100 100 100 100 100 100 100 100 100 100 100 77 76 100 100 63 24 10 34 88
100 100 100 78 96 100 100 100 100 100 100 100 100 100 100 100 100 100 100 100 100 100 100 100 100 100 100 100 100 100 100 100 99 100 100 72 77 93 100 82 95 100 100
100 100 100 96 100 100 100 100 100 100 100 100 100 100 100 100 100 100 100 100 100 100 100 100 100 100 100 100 100 100 100 100 100 79 92 100 100 99 100 100 100 100 100

GFSSE_prec_cloud_075.txt.gz
Cloud_Cover
4 14 4 5 8 3 5 5 35 4 1 0 88 7 5 9 9 19 26 12 40 97 100 97 14 5 5 5 5 9 5 7 5 5 5 0 0 0 0 0 0 4 5
0 9 0 5 22 5 0 0 4 0 3 0 3 0 0 1 7 74 54 30 59 43 100 100 16 5 5 5 5 5 43 51 16 5 5 0 0 1 0 0 0 4 5
5 9 5 0 3 18 4 0 1 4 3 4 3 5 5 0 5 3 2 4 16 65 100 86 7 5 5 5 5 5 5 65 5 5 5 5 2 55 61 8 6 5 0
2 10 22 5 4 5 5 0 5 0 0 2 4 6 16 3 16 0 2 5 29 87 100 84 38 5 5 5 5 5 5 5 5 55 26 58 55 4 8 16 0 13 30
1 2 24 5 5 5 5 5 10 0 0 0 0 0 9 24 41 0 0 5 6 46 100 54 7 5 5 5 2 5 3 4 20 91 8 46 13 0 0 0 54 62 10
1 4 15 5 5 5 5 5 5 0 0 0 0 0 1 86 23 0 0 5 30 19 9 8 5 5 5 5 5 5 2 4 5 26 34 2 0 0 0 2 0 0 16
5 22 5 6 4 5 5 5 5 0 0 0 0 0 2 96 11 0 0 4 3 4 5 5 4 5 5 5 5 5 5 0 0 0 0 0 0 0 0 0 0 0 5
8 85 34 32 5 0 3 5 5 4 0 13 0 0 14 32 1 0 0 0 0 0 2 5 4 5 5 5 5 5 3 0 0 0 0 0 0 0 0 0 0 4 5
24 96 45 40 5 5 0 0 0 0 2 0 0 0 61 97 73 50 0 0 0 0 0 3 5 5 5 5 5 2 0 4 0 0 0 0 0 0 0 0 0 4 5
28 100 86 67 29 16 1 0 0 0 0 0 0 0 0 21 45 0 0 0 0 0 0 2 5 5 5 5 5 5 5 5 4 0 0 0 0 0 0 0 0 4 5
95 90 100 100 90 100 35 6 0 0 0 4 1 0 3 8 16 5 4 0 0 0 0 0 0 3 5 5 5 5 1 4 3 1 0 0 0 0 0 0 0 5 91
93 100 100 100 84 100 80 4 6 0 0 0 0 0 0 3 2 9 0 0 0 0 0 0 0 1 0 1 5 2 5 5 0 0 0 0 0 0 10 0 4 78 72
100 100 100 100 100 100 63 13 6 3 0 0 0 0 0 0 0 0 0 0 0 12 2 0 0 0 0 4 5 5 5 0 0 0 0 0 0 0 1 10 5 61 98
91 72 100 100 100 100 100 35 10 4 6 3 0 0 0 0 0 0 0 0 0 0 0 0 2 5 5 5 5 5 3 5 4 3 3 0 0 5 5 5 5 6 95
87 91 59 100 100 100 100 40 22 17 5 8 12 1 0 0 0 0 0 0 0 0 0 4 4 5 5 5 5 5 5 5 5 5 5 2 5 5 5 5 9 95 44
100 68 58 100 100 100 100 100 95 40 15 24 57 12 5 6 2 3 1 0 0 1 5 5 5 5 5 5 5 5 5 5 5 5 5 17 23 5 5 79 70 6 8
100 94 100 100 100 100 100 100 82 73 44 12 12 12 16 57 58 49 60 50 22 5 5 28 13 5 5 5 6 18 8 5 5 48 63 96 20 70 94 96 5 5 5
100 99 99 100 100 100 100 100 100 100 30 29 26 25 19 44 48 97 100 79 40 43 62 71 22 34 71 41 49 65 48 39 100 88 96 41 43 90 18 5 4 5 5
100 100 95 100 100 98 100 100 100 100 98 83 42 31 34 63 59 57 65 65 85 94 92 53 40 44 67 98 100 100 100 100 99 70 79 15 23 39 13 5 5 5 5
100 100 100 100 100 93 97 100 100 100 100 100 70 35 41 69 89 64 52 61 99 100 100 100 95 99 94 100 100 100 100 100 78 87 97 21 6 66 84 8 5 5 0
100 100 100 100 100 100 100 100 100 100 100 100 100 100 100 100 100 100 100 100 100 100 100 100 100 100 100 100 100 100 100 100 100 100 82 34 30 36 12 5 5 0 0
100 100 100 100 100 100 100 100 100 100 100 100 99 66 97 100 100 100 100 100 100 100 100 100 100 100 100 100 100 100 100 100 100 100 100 41 98 61 9 5 1 0 0
100 100 100 100 100 100 100 100 100 100 100 98 100 100 93 100 100 100 100 100 100 100 100 100 100 100 100 100 100 100 100 100 100 100 100 100 72 50 5 5 1 0 4
100 100 100 100 100 100 100 100 100 100 100 100 100 100 100 100 100 100 100 100 100 100 100 100 100 100 100 100 100 100 100 100 100 100 100 100 100 88 83 91 99 6 5
100 100 100 100 100 100 100 100 100 100 100 100 100 100 100 100 100 100 100 100 100 100 100 100 100 100 100 100 100 100 100 100 100 100 100 100 100 100 94 16 53 87 51
100 100 100 100 100 100 100 100 100 100 100 100 100 100 100 100 100 100 100 100 100 100 100 100 100 100 100 100 100 100 100 100 100 100 100 100 100 100 100 100 52 39 49

GFSSE_prec_cloud_078.txt.gz
Cloud_Cover
15 0 2 5 3 56 5 5 5 2 5 2 48 0 20 5 5 41 39 44 61 85 97 91 0 5 41 5 5 5 5 5 5 8 50 32 5 1 0 0 0 0 0
5 5 5 2 0 2 5 5 3 0 5 21 5 5 5 5 6 5 17 88 92 100 100 100 11 9 24 5 5 5 5 5 5 5 5 3 15 19 6 0 0 0 0
5 5 5 5 1 5 1 5 5 3 5 5 9 5 87 24 5 5 2 1 100 100 100 90 14 5 5 6 5 5 5 5 5 22 62 5 4 5 0 4 8 20 8
38 28 7 5 3 2 5 5 64 23 5 5 11 5 5 6 5 5 5 5 100 100 100 16 5 9 56 7 5 5 5 3 17 38 32 0 0 0 31 72 92 56 2
5 5 5 3 2 0 0 2 5 4 5 5 5 11 7 15 5 5 5 3 99 100 42 10 81 60 5 5 4 5 5 5 77 14 3 0 0 0 0 0 7 31 54
5 5 5 0 0 0 0 0 3 5 5 5 5 0 6 50 0 0 0 0 0 6 17 11 5 6 5 1 1 5 5 5 6 6 5 0 0 0 0 0 0 0 25
5 5 5 3 5 0 5 0 0 5 2 0 0 0 64 14 4 0 0 0 0 0 5 5 5 1 0 0 2 5 5 5 5 3 0 0 0 0 0 0 0 0 0
7 5 7 5 5 2 5 0 0 0 0 0 0 0 42 5 0 0 0 0 0 0 5 0 0 0 0 0 0 3 5 5 5 0 1 0 0 0 0 0 0 0 0
58 50 5 5 5 5 5 5 0 0 0 0 0 0 35 0 0 0 0 0 0 0 0 0 0 0 0 0 0 5 5 5 5 5 2 0 0 0 0 0 0 0 0
100 76 65 37 12 5 5 5 5 5 4 0 0 0 0 0 0 0 0 0 0 0 0 0 0 0 0 0 0 0 0 5 0 0 0 0 0 0 0 0 0 0 0
80 100 89 70 38 7 30 8 5 5 47 0 0 0 0 0 0 0 0 0 0 0 0 0 0 0 0 0 0 0 1 0 0 0 0 0 0 0 0 0 0 1 3
100 95 72 76 92 95 8 20 5 5 4 1 0 0 0 7 0 0 0 0 0 0 0 0 0 0 0 0 0 0 0 0 0 3 1 0 0 0 0 1 4 5 0
100 98 100 99 100 100 78 67 8 5 5 4 5 0 0 3 0 0 0 0 0 0 0 0 0 0 0 0 0 0 0 5 5 5 5 0 0 1 5 10 6 5 4
99 97 100 100 100 100 94 23 56 5 5 5 0 0 0 0 0 0 0 0 0 0 0 0 0 0 0 0 0 0 0 0 5 5 3 0 0 5 5 5 5 13 6
59 84 99 100 100 100 100 60 100 5 5 5 0 0 4 3 3 7 3 1 0 0 2 2 4 4 1 0 4 5 3 2 5 5 5 5 5 6 5 5 5 5 8
100 100 100 100 100 100 100 77 100 97 58 28 4 5 5 5 34 17 6 7 14 20 5 5 24 6 5 5 5 5 5 5 5 5 5 35 49 5 5 3 5 5 5
100 98 100 100 91 88 100 100 78 91 100 37 28 7 16 97 56 15 33 55 61 32 61 58 22 5 5 5 13 20 14 5 5 32 99 98 39 5 5 5 5 5 5
100 100 59 100 100 100 100 100 100 100 99 76 24 32 81 88 67 38 54 84 78 15 21 15 33 10 35 60 60 60 45 100 100 100 34 52 22 100 90 5 6 6 41
100 100 88 100 100 100 100 100 100 100 96 90 100 100 100 100 100 97 84 72 80 25 5 6 11 18 47 88 100 100 100 100 100 91 93 36 92 67 98 97 100 96 44
100 100 100 100 100 93 100 100 100 100 100 100 100 100 100 100 100 100 88 52 49 42 50 84 77 78 100 100 100 100 100 100 97 59 99 78 65 44 100 100 99 79 10
100 100 100 100 100 100 100 100 100 100 100 100 100 100 100 100 100 100 100 100 100 100 100 100 100 100 100 100 100 100 100 80 22 83 100 100 46 36 58 25 56 89 30
100 100 100 100 100 100 100 100 100 100 100 100 100 100 100 52 88 97 96 99 98 100 100 100 100 100 100 100 100 100 100 100 97 100 100 100 100 98 100 100 100 83 5
100 100 100 100 100 100 100 100 96 100 100 100 100 100 100 100 100 100 100 100 100 100 100 100 100 100 100 100 100 100 95 100 100 100 100 100 100 100 100 100 100 23 10
100 100 100 100 100 100 100 100 100 100 100 100 100 100 100 100 100 100 100 100 100 100 100 100 100 100 100 100 100 100 98 100 100 100 100 100 100 100 89 100 100 100 5
100 100 100 100 100 100 100 100 100 100 100 100 100 100 100 100 100 100 100 100 100 100 100 100 100 100 100 100 100 100 100 100 100 100 100 100 100 100 100 100 49 100 88
100 100 100 100 100 100 100 100 100 100 100 100 100 100 100 100 100 100 100 100 100 100 100 100 100 100 100 100 100 100 100 100 100 100 100 100 100 100 100 100 100 100 100

GFSSE_prec_cloud_081.txt.gz
Cloud_Cover
48 25 5 0 0 2 5 2 5 5 5 14 25 3 2 94 100 90 9 6 27 100 98 10 9 1 2 55 5 4 5 5 5 4 5 2 4 5 5 1 0 0 0
48 40 5 5 0 0 4 3 24 12 5 5 6 5 15 4 14 20 77 61 95 100 76 73 2 0 5 87 5 5 5 5 2 0 0 0 0 1 2 3 0 5 0
34 8 12 12 3 5 5 5 5 12 5 5 3 5 5 6 5 35 68 100 100 100 99 2 0 50 5 5 5 8 5 2 0 18 0 0 2 4 1 68 100 28 0
21 5 13 10 10 5 5 1 5 5 5 5 5 5 5 5 5 5 7 71 100 87 91 2 5 5 11 9 10 23 4 0 0 0 0 0 0 0 70 86 100 59 42
5 5 5 5 5 5 5 5 0 4 5 9 5 5 5 4 5 5 82 100 86 88 1 2 5 5 24 16 4 0 0 0 0 5 2 3 0 0 0 1 8 18 97
23 52 5 5 5 5 13 5 0 5 5 5 6 5 5 5 5 5 12 95 46 4 0 2 5 19 5 5 0 0 0 0 0 0 0 3 0 0 0 0 0 8 97
23 14 5 24 5 4 4 3 0 0 1 5 25 6 5 5 1 0 1 4 5 1 0 4 1 5 5 0 0 0 0 0 0 0 0 0 0 0 0 0 0 0 0
46 44 12 5 5 5 3 1 0 0 0 0 5 1 3 2 4 0 0 3 4 0 0 0 0 1 5 0 0 0 0 0 0 0 0 0 0 0 0 0 0 0 0
65 48 40 27 5 5 6 5 2 2 0 0 1 0 0 0 0 0 0 0 0 0 0 0 0 0 0 0 0 0 0 0 0 0 0 0 0 0 0 0 0 0 0
50 40 40 12 5 35 66 37 15 5 0 5 5 12 0 0 0 0 0 0 0 0 0 0 0 0 0 0 0 0 0 0 0 0 0 0 0 3 0 0 0 0 0
100 100 90 19 5 30 40 9 10 5 5 4 5 5 4 0 0 0 0 0 0 0 0 0 0 0 0 0 0 0 0 0 0 0 0 0 2 2 0 0 0 0 0
100 100 100 100 82 94 32 5 5 5 5 5 5 5 5 0 3 1 0 0 0 0 0 0 0 0 0 0 0 0 0 0 0 0 0 0 2 5 5 5 2 1 2
100 100 100 100 100 90 100 92 6 5 5 5 5 5 5 3 4 5 12 0 2 0 0 0 0 0 0 0 0 0 0 0 0 0 4 5 5 5 5 5 6 1 0
100 100 100 100 100 100 100 100 42 5 5 5 5 16 29 5 1 2 17 0 1 0 3 0 0 0 3 5 5 5 1 0 0 3 5 5 5 8 5 5 5 16 25
100 100 100 100 100 100 100 94 98 21 9 5 8 45 53 23 5 0 0 3 4 5 5 5 5 5 5 5 5 5 5 5 5 5 10 79 99 100 71 5 5 5 17
100 73 90 100 100 100 100 100 100 96 79 62 46 69 58 14 5 0 3 5 5 14 5 5 5 5 5 5 5 5 5 5 5 6 50 83 100 36 5 5 5 5 18
100 100 100 100 100 100 100 100 100 100 100 88 52 81 81 92 91 36 13 31 34 5 5 5 5 5 6 47 34 8 11 6 6 32 100 100 100 5 27 11 5 5 49
100 100 100 100 100 100 100 100 100 100 100 100 100 98 100 100 78 78 52 12 48 28 23 58 52 78 68 79 95 58 65 100 100 100 100 95 31 97 100 78 93 85 100
100 100 100 100 100 100 100 100 100 100 100 100 100 100 100 100 100 100 98 81 99 99 96 100 100 75 46 76 100 100 100 100 100 100 96 31 63 76 90 100 100 100 100
100 100 100 100 100 100 100 79 100 100 100 100 100 100 100 100 100 100 100 99 100 100 100 100 100 100 100 100 100 100 100 100 100 100 63 19 44 59 100 100 100 100 100
93 100 100 100 96 100 100 99 100 100 100 100 100 100 100 100 100 100 100 100 100 100 100 100 100 100 100 100 100 100 100 100 89 81 100 100 99 83 92 100 100 100 100
100 95 100 100 100 100 100 100 100 100 100 100 100 100 100 100 100 100 100 100 100 100 100 100 100 100 100 100 100 100 100 100 100 100 100 100 81 100 100 100 100 100 100
100 100 100 100 100 100 100 100 100 100 100 100 100 100 100 100 100 100 100 100 100 100 100 100 100 100 100 100 100 100 100 100 100 100 100 100 100 100 100 100 100 100 100
100 100 100 100 100 100 100 100 100 100 100 100 100 100 100 100 100 100 87 100 100 100 100 100 100 100 100 100 100 100 90 96 100 100 100 100 100 100 100 100 100 100 100
98 100 100 100 100 100 100 100 100 100 100 100 100 100 100 100 100 100 100 100 100 100 100 100 100 100 98 83 98 100 100 100 100 100 100 100 100 100 100 100 100 100 100
95 100 100 100 100 100 100 100 96 100 100 100 100 100 100 100 100 100 100 100 99 100 100 100 100 100 100 100 100 100 100 100 100 100 100 100 100 100 100 100 100 100 100

GFSSE_prec_cloud_084.txt.gz
Cloud_Cover
83 26 5 3 7 0 5 5 5 5 0 0 5 100 63 8 5 5 14 12 98 79 5 5 5 13 14 7 5 6 25 8 5 2 2 0 1 74 12 0 0 0 9
57 93 18 5 0 2 8 4 5 4 1 10 5 4 81 89 25 47 94 100 100 98 24 96 77 99 0 2 5 5 5 5 5 3 0 0 0 16 8 0 0 0 0
100 56 52 5 7 8 2 0 0 0 0 4 28 5 5 23 93 100 100 65 89 18 5 33 21 14 1 4 5 5 19 13 16 0 0 10 38 6 0 14 1 85 100
98 95 68 5 5 5 11 0 0 0 0 0 6 4 5 5 55 69 83 100 95 5 5 5 5 4 5 4 5 9 6 5 0 0 0 0 0 2 71 100 100 53 99
29 34 18 5 5 5 12 5 0 4 0 0 0 5 5 5 9 38 96 64 24 5 5 5 0 0 2 5 5 5 5 3 0 0 0 0 0 0 0 0 22 100 100
32 16 5 5 5 5 5 5 5 11 1 9 5 5 5 5 13 100 4 5 3 0 0 1 0 0 2 5 5 5 5 0 0 0 0 0 0 0 0 0 0 4 4
61 33 5 5 5 5 5 5 5 5 20 13 7 5 5 1 1 79 8 0 0 2 0 0 0 0 0 4 0 2 5 0 0 0 0 0 0 0 0 0 0 0 0
59 15 24 5 5 5 5 5 5 4 11 57 3 0 0 0 0 0 2 1 0 3 1 0 0 0 0 0 0 0 0 0 0 0 0 0 0 0 0 0 0 0 0
65 36 68 30 20 40 5 40 6 10 5 99 4 0 0 0 0 0 0 0 8 2 0 0 0 0 0 0 0 0 0 0 0 0 0 0 0 0 0 0 0 0 0
100 100 97 84 99 27 19 5 5 29 9 22 12 20 5 4 5 0 0 0 0 0 0 0 0 0 0 0 0 0 0 0 0 0 0 0 0 0 0 0 0 0 0
100 100 100 100 94 96 89 51 5 5 5 26 66 5 5 5 5 2 0 0 0 0 0 0 0 0 0 0 0 0 0 0 0 0 0 0 0 2 5 5 5 5 5
100 100 100 100 100 100 100 81 20 29 7 7 5 9 5 5 5 5 5 0 0 0 0 0 0 0 0 0 0 0 0 0 1 0 0 1 3 5 5 5 5 5 7
100 100 100 100 100 100 100 97 94 95 29 22 13 21 46 19 5 8 10 5 2 0 0 0 0 0 0 0 0 5 5 5 5 5 5 5 5 5 17 5 31 90 5
100 100 100 100 100 100 100 100 99 40 100 100 30 20 58 60 10 14 22 8 6 5 0 0 0 4 5 5 5 5 6 5 6 18 5 5 6 42 39 100 100 44 27
100 100 100 100 100 100 100 100 100 100 100 97 64 58 56 89 36 10 7 26 6 5 5 4 5 5 39 51 11 72 17 11 37 24 8 50 41 33 100 100 92 5 5
100 100 100 100 100 100 100 100 100 100 100 100 89 64 99 67 45 45 9 14 36 10 12 5 5 5 5 6 60 60 53 18 18 5 7 7 16 100 100 62 5 7 6
100 100 100 100 100 100 99 100 100 100 100 100 100 100 100 100 100 100 26 5 13 11 8 7 8 5 5 11 49 54 24 60 18 5 76 73 97 100 100 100 99 26 34
100 100 100 100 100 100 100 100 100 100 100 100 100 100 100 100 100 100 100 100 61 11 11 44 57 46 63 100 100 100 100 97 100 100 100 100 100 99 100 100 100 100 65
100 100 100 100 100 100 100 100 98 100 100 100 100 100 100 100 100 100 100 100 100 95 49 99 100 100 100 100 100 100 100 100 100 97 100 100 100 100 100 100 100 100 100
100 100 100 100 100 100 100 100 100 100 100 100 100 100 100 100 100 100 100 100 100 100 100 100 100 100 100 100 100 100 100 100 100 100 100 100 84 99 62 65 100 99 95
100 100 100 100 100 100 100 100 100 100 100 100 100 100 100 100 100 100 100 100 100 100 100 100 100 100 100 100 100 100 100 100 100 100 99 100 84 33 51 100 100 70 100
100 100 100 100 100 100 100 100 100 100 100 100 100 100 100 100 100 100 92 99 100 100 100 100 100 100 100 100 100 100 100 100 100 100 47 40 26 55 90 100 100 100 100
100 100 100 100 100 100 100 100 96 100 100 100 100 100 100 100 100 100 100 100 99 100 100 100 100 100 100 100 100 100 100 100 100 100 86 90 70 73 100 100 100 100 100
100 100 100 100 100 100 100 100 100 100 100 100 100 100 100 100 100 100 100 88 98 98 100 100 100 100 100 100 100 100 97 100 100 100 100 100 100 100 100 100 100 100 100
100 96 100 100 100 100 100 100 91 100 100 100 100 100 100 100 100 100 100 100 100 100 100 100 98 100 100 99 97 97 99 88 60 100 100 100 100 100 100 100 100 100 100
100 100 100 100 100 100 99 100 100 97 94 100 100 100 100 100 100 100 100 100 100 100 100 100 100 100 100 100 100 100 100 100 100 100 100 100 100 100 100 100 100 100 100

GFSSE_prec_cloud_087.txt.gz
Cloud_Cover
50 5 5 2 3 0 3 5 0 5 1 33 64 8 2 2 22 14 8 83 10 9 1 5 4 5 5 15 32 35 1 5 18 5 5 6 100 82 4 0 0 0 0
30 7 5 17 5 15 5 0 0 0 0 43 28 11 17 29 30 22 40 98 8 5 5 5 0 5 5 7 25 1 6 5 5 5 3 19 0 6 1 0 0 50 0
100 70 49 46 39 20 5 5 0 0 0 2 96 83 27 24 42 97 99 100 5 5 5 5 3 4 2 5 3 10 0 5 5 5 5 0 1 14 8 0 0 17 82
90 100 100 93 25 24 5 6 5 11 0 0 25 100 100 48 98 100 5 5 5 5 5 4 3 4 3 11 5 4 5 4 5 5 4 0 0 23 0 38 91 99 50
78 100 100 100 94 5 5 5 5 5 5 0 3 37 63 100 100 18 5 5 5 10 12 5 0 0 0 0 0 0 5 2 5 5 3 0 0 0 0 0 5 11 96
100 41 14 60 92 7 5 5 5 68 29 5 5 0 0 1 11 4 5 6 2 0 6 3 0 0 0 0 0 0 5 0 0 0 0 0 0 0 0 0 0 0 8
92 98 8 6 5 5 5 4 33 5 70 93 6 5 5 40 30 5 7 2 16 2 0 0 0 0 0 0 0 0 0 0 0 0 0 0 0 0 0 0 0 0 0
92 42 76 72 5 5 27 8 7 21 23 67 44 5 5 98 44 4 30 7 5 3 10 0 0 0 0 0 0 0 0 0 0 0 0 0 0 0 0 0 0 0 0
49 17 44 45 48 41 89 52 20 43 24 5 5 5 10 8 60 7 2 4 7 3 8 0 0 0 0 0 0 0 0 0 0 0 0 0 0 0 0 0 0 0 0
39 47 87 85 49 53 70 95 96 69 100 46 5 5 5 5 5 5 5 7 21 0 0 0 0 0 0 0 0 0 0 0 0 0 0 5 5 5 5 3 5 4 5
94 73 98 100 100 100 100 100 100 57 81 69 7 5 5 5 5 5 5 5 5 4 1 0 0 0 0 0 0 0 0 0 0 4 5 5 5 5 5 5 5 5 5
100 100 100 100 100 99 100 89 100 100 100 98 80 5 6 5 5 5 5 5 7 5 5 5 5 1 0 0 0 0 0 1 6 5 5 5 5 5 5 5 5 5 21
100 100 100 100 94 100 98 70 100 94 77 100 33 15 8 44 9 5 9 10 65 19 5 5 5 5 0 0 1 5 5 5 12 5 5 5 5 5 5 5 5 71 100
100 100 100 100 100 100 100 100 100 98 80 67 100 80 100 100 100 51 46 54 48 77 5 5 5 5 5 5 0 5 5 5 5 5 5 5 5 5 5 5 66 100 31
100 100 100 100 100 100 100 100 100 100 100 100 100 100 100 100 100 100 35 14 10 6 44 16 27 13 16 24 29 7 5 5 5 5 5 13 22 6 64 93 100 99 11
100 100 100 100 100 100 100 100 100 100 100 100 100 100 100 100 100 100 97 91 71 90 56 39 15 30 55 57 50 34 36 44 55 79 93 46 63 94 100 100 100 74 20
100 100 100 100 100 100 100 100 100 100 97 100 100 100 100 100 100 100 100 100 99 100 92 23 26 63 69 81 87 98 99 100 100 62 97 100 100 100 100 100 100 36 70
100 100 100 100 100 100 100 100 100 100 100 100 100 100 100 100 100 100 100 100 100 100 100 100 100 100 100 100 100 100 100 100 90 100 100 100 100 100 94 40 97 85 14
100 100 100 100 100 100 100 100 100 97 100 100 100 100 100 100 100 100 100 100 100 89 89 100 100 100 100 100 100 100 99 100 100 100 87 100 100 100 85 97 55 89 100
100 100 100 100 100 100 100 100 100 100 100 100 100 100 100 100 100 100 100 100 100 100 100 100 94 100 100 100 100 100 100 100 84 94 100 100 100 98 50 75 100 100 79
100 100 100 100 100 100 100 100 100 100 100 100 100 100 100 100 100 100 100 100 100 100 98 94 75 100 100 100 100 100 100 100 100 100 100 100 100 92 100 100 100 82 100
100 100 100 100 100 100 100 100 100 100 100 100 100 100 100 100 100 100 100 100 100 96 100 98 96 100 100 78 77 100 100 100 76 100 64 59 87 99 97 95 100 100 100
99 100 100 100 100 100 100 100 100 100 100 100 100 100 100 100 100 100 100 100 100 100 90 100 94 99 91 76 53 84 100 100 100 100 93 81 68 100 100 100 100 100 100
100 100 100 100 100 100 100 100 100 100 100 100 100 100 100 100 100 100 100 100 100 100 98 100 100 100 99 100 99 31 39 66 100 100 100 96 100 100 100 100 100 100 100
100 94 100 100 100 100 100 100 100 100 100 100 100 100 100 100 100 100 100 100 100 100 100 100 98 98 100 66 80 100 88 100 94 69 99 100 100 100 100 100 100 100 100
100 99 100 100 100 94 100 100 100 100 100 100 100 100 100 100 100 100 100 100 100 100 100 100 100 100 100 100 99 47 65 100 100 95 100 100 97 99 99 100 100 100 100

GFSSE_prec_cloud_090.txt.gz
Cloud_Cover
64 18 5 5 83 6 12 5 0 21 9 18 0 5 85 20 7 9 5 34 26 5 5 5 0 0 45 100 11 5 78 5 8 1 5 11 22 4 0 0 10 0 0
87 42 5 5 16 6 12 1 4 0 13 14 0 13 1 9 13 17 86 11 3 5 5 5 5 90 100 44 5 5 5 1 0 0 0 21 2 2 92 11 14 41 12
87 98 100 55 5 10 4 2 5 5 25 8 5 1 9 28 9 11 91 92 5 3 1 1 14 56 22 11 3 0 0 0 0 5 0 4 21 26 0 0 0 33 6
92 59 10 81 22 8 5 5 12 5 20 99 28 19 26 14 63 16 98 11 5 16 35 65 99 36 3 0 0 0 0 0 0 5 0 0 0 0 0 0 7 72 90
84 53 6 36 48 5 6 5 22 5 6 99 100 35 24 76 100 16 93 3 7 98 100 100 26 4 0 0 0 0 0 0 0 0 0 0 0 0 0 0 0 0 24
50 88 70 89 100 85 5 5 5 5 5 5 48 100 100 100 29 13 23 7 17 86 97 27 11 3 0 0 0 0 0 0 0 0 0 0 0 0 0 0 0 0 0
84 42 100 100 98 62 9 5 5 5 5 6 7 7 63 43 12 23 24 5 16 43 32 16 10 3 0 0 0 0 0 0 0 0 0 0 0 0 0 0 0 0 0
100 34 62 90 100 65 5 5 5 5 5 5 20 51 100 100 100 6 9 43 12 17 18 11 18 0 0 0 0 0 0 0 0 0 0 0 0 1 2 0 0 0 0
100 29 98 30 59 76 5 22 25 5 5 5 28 82 100 25 98 40 53 84 64 11 24 6 0 0 0 0 0 0 0 0 0 0 0 0 2 5 5 0 0 0 0
76 53 62 34 13 9 57 92 84 68 16 5 5 5 51 100 100 100 18 7 11 12 5 2 0 0 0 0 0 0 0 0 0 0 0 4 5 5 5 0 0 0 0
98 96 98 69 41 26 7 7 34 97 100 100 86 11 5 5 5 3 5 5 5 5 5 5 4 5 4 5 1 4 0 0 0 1 4 5 5 5 5 2 0 5 5
100 100 100 100 74 36 55 95 100 100 99 81 89 100 39 5 5 5 5 5 5 0 5 5 5 5 5 5 5 5 5 5 5 6 5 5 5 5 5 5 5 5 5
100 100 100 97 97 99 100 100 100 99 57 89 100 100 99 11 7 6 13 14 5 5 5 6 29 17 6 5 7 54 57 61 20 5 5 5 5 5 5 6 16 92 38
100 100 100 100 100 100 100 100 98 93 96 100 100 100 66 82 22 92 81 96 100 10 5 5 8 13 52 38 14 6 64 48 29 13 13 5 27 30 6 99 100 77 10
100 100 100 100 100 100 100 100 96 46 100 100 100 100 100 100 100 100 100 100 100 100 62 39 67 83 46 12 28 55 65 38 8 12 24 64 43 6 100 100 100 100 27
100 100 100 100 100 100 98 100 100 98 100 100 100 100 100 100 100 100 100 100 100 100 68 35 52 93 99 69 65 94 82 60 70 61 62 91 78 90 99 100 100 73 50
100 100 100 100 100 100 100 100 100 100 100 100 100 100 100 100 100 100 100 100 84 99 52 93 100 100 99 100 100 100 100 100 92 33 85 80 80 100 100 100 100 13 5
100 100 100 100 100 100 100 100 100 100 100 100 100 100 100 100 98 100 100 100 100 100 100 100 100 100 100 100 100 100 95 68 76 58 100 100 74 94 80 93 56 40 83
100 100 100 100 100 100 100 100 100 100 100 100 85 59 76 86 98 100 100 100 100 100 100 100 100 100 100 100 100 100 100 70 100 96 41 9 17 88 84 44 6 97 98
100 100 100 100 100 100 100 100 100 100 100 100 88 39 62 64 84 100 100 100 100 100 94 21 39 79 80 100 100 99 98 21 10 46 46 70 97 93 99 27 98 48 100
100 100 100 100 100 100 100 100 100 100 100 100 100 89 60 100 65 100 100 100 100 97 64 17 10 20 96 96 100 100 98 6 5 5 6 5 79 90 76 100 100 44 94
100 100 100 100 100 100 100 100 100 100 100 100 100 100 100 100 100 94 94 98 100 96 32 100 96 93 77 77 72 61 90 21 21 58 6 17 5 34 26 21 22 52 99
100 100 100 100 100 100 100 100 100 100 100 100 100 100 100 100 100 100 100 100 100 95 100 92 100 87 97 70 89 100 87 100 82 62 8 5 13 48 6 14 72 95 100
100 100 100 100 100 100 100 100 100 100 100 100 100 100 100 100 100 100 100 100 100 100 100 100 95 89 100 72 59 5 41 71 90 100 92 85 88 90 100 91 66 100 100
100 100 100 100 100 100 100 100 100 100 100 100 100 100 100 100 100 100 100 100 100 100 100 100 100 100 100 100 100 92 42 68 100 98 100 100 100 100 100 98 100 100 100
100 100 100 100 100 100 100 100 100 100 100 100 100 100 100 100 100 100 100 100 100 100 100 100 100 100 100 100 91 98 91 62 18 64 98 99 98 100 98 96 100 100 100

GFSSE_prec_cloud_093.txt.gz
Cloud_Cover
27 27 2 17 53 2 0 0 17 12 1 0 5 91 2 0 2 4 1 5 3 4 0 9 5 99 55 5 28 7 17 15 21 0 2 0 0 7 18 23 0 0 0
24 45 75 32 67 6 0 1 21 0 1 0 2 96 58 7 9 15 3 64 4 2 5 5 67 100 100 3 0 0 3 17 0 0 0 5 0 0 0 11 0 3 0
37 43 19 5 5 5 5 1 0 0 0 0 0 5 5 8 12 80 17 1 2 2 0 54 91 97 1 0 0 0 0 1 0 0 0 22 18 0 0 0 0 2 0
47 51 33 41 5 8 5 4 1 1 0 0 0 5 5 17 20 100 47 0 22 62 43 100 100 40 2 2 0 0 0 0 0 0 0 0 0 0 0 0 3 0 0
84 42 34 93 18 5 5 8 5 4 80 4 2 0 29 11 7 100 8 55 99 100 100 100 7 5 5 0 0 0 0 0 0 0 0 0 0 0 0 0 0 0 0
100 76 66 20 71 11 41 6 5 4 93 95 56 39 96 96 100 100 84 100 100 100 100 14 5 5 0 0 0 0 0 0 0 0 0 0 0 0 0 0 0 0 0
89 100 78 79 99 86 100 21 5 5 39 100 91 100 100 100 100 100 94 94 100 100 64 5 7 0 0 0 0 0 0 0 0 0 0 0 0 0 0 0 0 0 0
78 100 85 68 40 20 24 7 82 25 5 5 64 100 100 100 100 90 100 100 100 96 16 78 22 2 0 0 0 0 0 0 0 0 0 0 0 0 0 5 1 0 0
83 97 100 77 63 57 37 5 5 6 5 5 4 15 100 100 65 100 100 100 100 49 9 4 4 0 0 0 0 0 0 0 0 0 0 0 0 0 0 0 0 0 3
100 17 100 65 70 20 49 12 46 39 6 5 100 100 93 100 100 100 100 100 100 12 13 5 3 0 0 0 0 0 0 5 0 0 0 0 0 0 4 0 0 5 5
100 98 100 31 40 10 5 8 22 21 36 5 19 48 87 100 100 37 3 26 5 5 5 5 4 1 5 5 5 5 5 5 5 4 1 4 0 0 0 0 5 3 6
100 100 100 29 28 51 5 6 59 88 20 5 5 44 89 96 52 98 20 5 3 5 5 5 5 5 5 5 5 7 5 5 12 21 5 5 3 0 4 5 5 5 69
100 100 100 100 81 40 73 98 96 100 80 78 93 100 100 27 6 46 31 5 5 5 6 66 11 5 5 5 5 5 23 5 5 5 5 5 5 5 5 5 5 5 50
100 100 100 100 100 86 100 100 100 100 100 100 100 100 70 44 84 74 68 74 76 45 100 68 44 73 14 5 44 42 20 6 5 5 6 6 5 5 51 24 27 26 94
100 100 100 100 100 100 100 100 100 100 100 100 99 100 57 99 98 100 100 100 100 100 100 100 100 100 98 35 22 100 48 5 62 95 100 69 5 61 90 30 62 100 85
100 100 100 100 100 100 100 100 100 100 100 100 100 99 99 100 100 100 100 100 100 100 100 100 100 100 57 28 22 100 95 22 5 10 6 5 5 10 44 14 96 96 8
100 100 100 100 100 100 100 100 100 100 100 100 100 100 100 100 98 100 84 100 100 97 78 6 22 99 100 99 100 97 5 5 5 5 5 5 71 74 5 100 86 9 94
100 100 100 100 100 70 100 100 100 100 98 100 100 100 100 100 100 100 100 100 100 80 61 100 95 79 90 100 100 21 5 5 5 5 77 5 5 6 51 59 58 28 5
100 100 100 100 100 100 100 100 100 100 100 100 100 100 100 100 93 100 99 100 92 66 46 55 77 36 98 67 43 49 9 5 5 4 0 2 5 5 50 36 35 11 43
100 100 100 100 100 100 100 100 100 100 100 100 100 100 100 100 100 100 94 100 93 94 90 18 99 100 100 100 80 23 54 64 5 1 4 5 61 100 88 60 34 4 5
100 100 100 100 100 100 100 100 100 100 100 100 97 100 100 100 100 100 100 89 100 97 88 100 100 89 72 38 22 76 97 16 5 5 5 69 100 99 97 50 5 49 95
100 100 100 100 100 100 100 100 100 100 100 100 100 100 100 100 100 94 100 99 100 91 64 84 100 55 26 18 5 59 40 5 2 5 35 55 14 74 4 5 40 83 32
100 100 100 100 100 100 100 100 100 100 100 100 100 100 100 100 100 100 100 100 100 100 100 100 91 95 61 100 97 51 94 97 8 5 6 59 5 6 5 2 8 18 7
100 100 100 100 100 100 100 100 100 100 100 100 100 100 100 100 100 100 100 100 100 100 97 100 100 100 66 78 35 7 37 67 83 73 39 30 57 15 13 17 53 50 39
100 100 100 100 100 100 100 100 100 100 100 100 100 100 100 100 100 100 100 100 100 100 100 100 100 100 100 100 96 100 77 62 8 22 96 96 92 100 100 100 93 37 92
100 100 100 100 100 100 98 100 100 100 100 100 100 100 100 100 100 100 100 100 100 100 100 100 100 100 100 100 100 100 100 100 89 91 88 100 92 100 97 84 100 100 95

GFSSE_prec_cloud_096.txt.gz
Cloud_Cover
54 89 5 47 65 7 0 0 7 0 0 0 0 2 0 4 4 5 4 2 5 43 3 0 18 42 80 80 26 14 68 39 24 0 0 1 18 70 0 0 8 0 10
55 90 5 46 86 4 5 14 17 0 0 0 0 0 0 8 17 26 0 0 5 7 0 2 24 0 0 0 0 9 73 8 0 0 0 0 0 5 0 0 0 0 6
99 99 40 24 0 0 0 23 3 0 0 0 0 0 3 31 15 25 3 0 0 3 44 21 91 0 4 0 0 0 2 0 0 0 0 0 0 0 0 0 0 10 2
100 100 77 5 5 5 2 28 8 3 1 0 0 0 9 35 35 11 3 2 15 96 100 100 2 4 5 5 5 0 0 0 0 0 0 0 0 0 0 3 0 9 0
100 99 74 5 5 5 16 21 5 4 1 0 0 4 11 33 40 74 5 68 100 99 96 13 0 4 5 5 5 0 0 0 0 0 0 0 0 0 0 0 0 0 6
87 100 100 5 20 5 5 5 5 0 0 0 5 5 16 7 100 92 46 100 100 100 100 4 4 5 5 5 0 0 0 0 0 0 0 0 0 0 0 0 0 0 4
78 100 100 95 99 32 69 6 7 54 5 0 6 90 84 99 100 100 100 100 99 100 61 5 6 5 5 5 0 0 0 0 0 0 0 0 0 0 0 0 0 0 0
75 99 89 90 68 100 100 62 41 97 90 97 99 78 100 100 100 100 100 100 95 100 3 7 5 5 2 4 0 0 0 0 0 0 0 0 0 0 0 0 0 0 0
99 100 100 100 73 100 100 100 54 7 75 99 92 100 100 100 100 100 100 100 100 56 39 3 0 1 1 3 0 0 0 0 0 0 0 0 0 0 0 4 5 5 5
100 100 100 100 72 81 100 100 68 7 5 5 5 12 97 86 100 100 100 100 100 11 2 0 0 0 5 1 0 0 4 5 4 5 5 5 2 4 3 5 30 36 14
100 99 100 100 35 5 93 100 100 89 6 5 5 47 99 5 6 31 73 100 86 7 0 0 0 5 1 5 5 5 2 5 5 5 1 2 4 2 5 5 9 26 96
100 100 100 100 100 84 81 71 100 63 17 38 35 32 28 22 5 5 40 38 5 5 5 0 5 4 0 5 5 5 5 1 5 5 4 0 0 57 12 5 5 6 18
100 100 100 100 100 100 100 64 61 100 77 97 95 21 90 37 54 87 100 91 5 13 4 0 5 3 94 91 5 33 4 1 5 20 5 1 8 99 5 5 8 64 5
100 100 100 100 100 100 100 100 87 82 100 100 100 22 27 38 100 100 100 100 48 63 53 24 91 91 100 93 100 100 96 4 88 90 5 1 5 5 5 5 18 72 34
100 100 100 100 100 100 100 100 86 98 100 100 100 100 100 100 100 100 100 100 89 83 94 98 90 70 98 100 100 100 14 4 98 5 0 2 0 4 5 5 5 5 5
100 100 100 100 100 100 100 100 100 100 100 100 100 100 100 100 100 100 98 100 100 98 100 100 72 66 93 19 5 10 5 58 20 11 4 0 0 5 6 13 83 9 45
100 100 100 100 100 100 100 100 100 100 100 100 100 100 100 100 100 100 100 100 100 100 100 40 40 81 5 81 26 5 62 64 88 16 16 14 0 2 5 5 5 8 34
100 100 100 100 100 100 100 100 100 100 100 100 100 100 100 100 100 100 100 100 100 88 100 28 6 5 5 60 6 15 94 98 69 10 1 0 0 0 5 5 5 5 17
100 100 100 100 100 100 100 100 100 100 100 100 100 100 100 100 100 100 100 100 95 100 46 5 12 21 5 13 30 100 83 51 24 73 35 42 5 5 5 5 5 5 5
100 100 100 100 100 100 100 100 100 100 100 100 100 100 100 100 100 100 100 100 100 72 79 51 32 25 19 67 100 93 64 9 5 4 12 5 5 6 5 5 5 5 2
100 100 100 100 100 100 100 100 100 100 100 100 100 100 100 100 100 100 100 100 100 72 73 71 90 100 6 78 100 100 88 6 10 6 4 0 1 0 0 0 1 75 48
100 100 100 100 100 100 100 100 100 100 100 100 100 100 100 100 100 100 100 100 100 100 100 100 100 100 77 43 28 72 5 4 2 13 5 2 0 0 0 0 41 79 100
100 100 100 100 100 100 100 100 100 100 100 100 100 100 100 100 100 100 100 100 100 100 100 99 70 86 66 80 90 57 5 5 5 5 5 5 5 5 5 5 19 31 66
100 100 100 100 100 100 100 100 100 100 100 100 100 100 100 100 100 100 100 100 100 100 100 100 100 100 100 81 85 89 24 76 6 20 78 9 5 64 63 5 24 35 20
100 100 100 100 100 100 100 100 100 100 100 100 100 100 100 100 100 100 100 100 100 100 100 100 100 100 100 100 100 100 100 98 96 86 87 64 95 98 6 40 16 63 96
100 100 100 100 100 100 100 100 100 100 100 100 100 100 100 100 100 100 100 100 100 100 100 100 100 100 100 100 100 100 100 100 99 94 100 100 100 100 100 100 100 100 100

GFSSE_prec_cloud_099.txt.gz
Cloud_Cover
70 3 26 5 10 3 0 0 0 0 0 5 0 0 0 0 69 0 0 5 5 0 20 7 12 13 0 6 18 78 79 9 1 0 0 8 23 1 3 0 0 20 5
36 86 61 5 6 7 0 0 0 0 0 0 0 8 10 1 17 0 0 17 10 0 44 6 1 95 16 62 96 100 61 0 0 0 0 0 0 0 0 0 0 8 2
50 91 44 31 5 5 0 15 8 0 0 0 0 0 5 6 20 5 5 17 13 0 2 0 0 0 0 1 38 26 5 0 0 0 0 0 0 0 0 0 0 14 50
100 96 98 94 5 5 5 17 10 0 0 0 0 0 5 35 56 5 5 5 3 8 12 2 0 0 0 0 0 5 5 0 0 0 0 0 0 0 3 8 19 38 1
88 89 98 100 52 5 20 21 12 0 0 0 0 0 5 23 99 4 5 32 5 97 67 5 4 1 0 0 5 5 0 0 0 0 0 0 0 0 0 0 0 2 2
64 100 100 38 65 5 52 16 5 5 0 0 0 0 5 5 39 13 39 6 98 5 10 4 5 5 2 0 0 0 0 0 0 0 0 0 0 0 0 0 0 1 12
72 34 100 5 100 50 6 61 25 5 5 0 0 0 2 15 95 38 100 100 100 94 5 2 2 5 5 5 5 5 5 1 0 0 0 0 0 0 0 1 0 0 5
98 96 78 18 31 100 100 84 5 5 20 5 7 18 11 59 100 100 100 100 100 72 4 4 6 3 3 1 5 3 0 3 0 0 0 0 0 0 0 5 5 5 56
100 44 89 98 25 14 100 100 64 6 5 5 100 72 98 100 100 100 100 100 100 50 1 16 0 0 0 0 0 0 0 0 0 0 4 0 0 0 2 5 81 5 77
100 93 54 71 54 42 16 100 100 57 47 50 83 100 100 99 100 100 100 100 100 100 100 50 5 3 0 0 0 0 0 2 5 5 0 0 0 0 5 5 100 10 6
98 100 98 58 79 35 8 50 100 100 100 100 95 75 99 28 99 100 100 100 100 79 94 5 5 4 0 0 0 0 0 2 0 5 5 1 4 9 75 5 15 5 6
100 100 100 97 100 76 81 66 100 100 100 100 82 36 8 5 9 7 60 100 93 14 7 34 5 4 0 0 0 1 2 2 5 5 5 18 29 40 6 5 9 92 100
100 100 100 100 100 94 100 98 100 100 51 73 100 95 23 5 5 20 45 62 18 37 100 98 5 5 0 0 2 2 53 96 100 100 7 75 17 8 4 6 67 28 7
100 100 100 100 100 100 100 100 100 100 100 70 96 99 100 58 66 49 12 5 66 100 100 100 19 66 92 16 83 55 100 100 100 100 53 91 30 4 1 5 15 19 5
100 100 100 100 100 100 100 100 100 100 100 60 8 25 48 96 100 100 25 62 96 100 100 100 90 74 44 52 29 14 100 100 65 8 12 5 100 18 0 2 5 5 9
100 100 100 100 100 100 100 100 100 100 100 100 91 84 92 100 100 100 100 100 100 100 100 100 100 64 76 34 15 6 40 88 81 43 88 54 2 4 1 0 5 5 11
100 100 100 100 100 100 100 100 100 100 100 100 100 100 100 100 100 100 100 100 100 100 100 100 100 99 67 5 5 14 5 26 55 25 38 63 71 90 5 5 5 5 5
100 100 100 100 100 100 100 100 100 100 100 100 100 100 100 100 100 100 100 100 100 100 99 100 100 68 91 6 6 28 14 27 10 32 36 19 50 20 5 2 5 4 0
100 100 100 100 100 100 100 100 100 100 100 100 100 100 100 100 100 100 100 100 88 100 100 100 100 31 100 15 68 69 100 68 32 100 30 25 4 0 0 2 3 5 1
100 100 100 100 100 100 100 100 100 100 100 100 100 100 100 100 100 100 100 100 100 100 100 100 100 90 94 97 100 98 26 6 100 99 89 66 3 5 2 0 4 9 0
100 100 100 100 100 100 100 100 100 100 100 100 100 100 100 100 100 100 98 100 100 100 100 100 100 100 68 41 100 74 83 6 46 92 100 100 20 1 0 0 5 51 10
100 100 100 100 100 100 100 100 100 100 100 100 100 100 100 100 100 100 100 100 100 100 100 100 100 100 82 91 98 98 51 100 21 5 5 5 5 0 0 1 9 95 100
100 100 100 100 100 100 100 100 100 100 100 100 100 100 100 100 100 100 100 100 100 100 100 100 100 100 100 100 100 100 100 70 59 38 15 5 5 5 5 5 5 51 98
100 100 100 100 100 100 100 100 100 100 100 100 100 100 100 100 100 100 100 100 100 100 100 100 100 100 100 100 100 98 98 96 84 77 96 92 5 5 12 5 5 5 50
100 100 100 100 100 100 100 100 100 100 100 100 100 100 100 100 100 100 100 100 100 100 100 100 100 100 100 100 100 100 100 100 100 100 100 100 100 73 100 14 8 51 49
100 100 100 100 100 100 100 100 100 100 100 100 100 100 100 100 100 100 100 100 100 100 100 100 100 100 100 100 100 100 100 100 100 100 100 94 75 88 88 85 83 35 77

GFSSE_prec_cloud_102.txt.gz
Cloud_Cover
14 0 0 0 1 0 0 0 0 0 0 0 5 20 0 1 30 0 5 0 0 38 4 7 12 1 25 68 100 2 0 0 0 0 0 0 2 1 0 0 0 1 0
9 0 0 5 3 1 0 0 0 0 0 0 0 1 0 0 50 0 7 4 0 49 78 14 8 26 31 70 100 0 0 0 0 0 0 0 0 0 3 0 0 4 8
8 5 0 5 5 5 1 0 0 0 0 0 2 6 11 5 5 5 6 5 11 35 3 1 0 30 92 100 80 0 0 0 0 0 0 0 0 4 10 2 0 3 0
0 2 4 4 5 5 5 6 5 5 0 0 0 0 0 15 5 41 12 5 6 5 5 1 1 0 0 0 0 0 0 0 0 0 0 0 0 3 8 10 100 91 9
0 0 16 5 3 5 6 10 5 5 5 0 0 0 0 4 6 34 5 5 5 5 5 5 2 1 0 4 0 0 0 0 0 0 0 0 0 0 3 5 19 16 16
7 0 0 4 5 5 40 40 5 2 5 2 0 0 0 26 0 5 85 72 13 18 22 5 5 0 0 2 5 5 5 4 0 0 0 0 0 0 0 0 4 5 36
4 5 6 0 5 5 10 68 80 5 5 15 62 2 4 2 2 4 61 99 40 54 45 48 5 5 0 0 0 0 0 0 0 0 0 0 0 0 0 0 1 76 35
16 27 18 74 0 4 5 50 61 48 5 81 5 5 5 78 20 51 100 90 100 5 5 5 5 3 0 0 0 0 0 0 0 0 0 0 0 0 3 2 5 67 62
2 92 66 24 5 5 5 8 92 67 5 2 2 3 33 99 100 100 100 100 100 81 7 12 8 17 5 1 0 0 0 0 0 0 0 0 3 3 5 47 5 5 62
2 34 100 100 35 5 5 4 12 100 100 100 30 5 75 96 100 97 100 100 100 46 31 5 54 74 5 4 2 0 0 0 0 0 0 4 5 39 78 100 5 5 5
31 56 100 100 100 36 10 8 60 49 91 100 100 100 100 99 100 100 100 100 100 32 5 5 5 20 5 4 5 0 0 0 0 1 2 5 71 17 87 84 5 5 5
12 80 74 100 100 100 65 32 32 57 90 82 100 94 95 100 100 100 100 100 100 98 53 5 26 100 100 6 5 1 0 1 3 24 99 100 100 100 78 41 5 5 5
0 10 100 100 100 100 100 66 30 100 99 100 99 100 100 87 73 100 100 100 100 98 5 5 30 100 99 14 5 5 3 30 97 95 100 100 100 100 71 5 5 5 4
5 8 100 100 100 100 100 52 100 41 100 33 100 100 100 100 100 27 31 99 22 26 21 8 90 100 100 96 53 8 7 27 40 50 100 100 100 100 67 18 5 5 7
13 90 100 100 100 100 100 100 100 100 85 100 92 99 100 96 22 100 97 92 55 85 96 86 50 100 100 100 75 45 40 56 79 95 43 35 56 15 9 5 4 5 5
91 100 100 100 100 100 100 100 100 100 100 100 100 100 100 100 90 70 71 65 50 100 100 100 100 100 100 100 100 99 99 72 75 12 29 78 100 11 96 66 7 5 5
47 97 100 100 100 100 100 100 99 100 100 100 100 100 100 100 100 100 100 100 100 100 100 100 100 100 100 100 82 100 98 100 98 100 100 100 57 71 96 95 30 6 8
100 100 100 100 100 100 100 100 99 100 100 100 100 100 100 100 100 100 100 100 100 100 100 100 100 100 100 100 98 50 100 92 8 10 6 97 24 98 4 2 5 4 3
100 100 100 100 100 100 100 100 100 100 100 100 100 100 100 100 100 100 100 100 100 100 100 100 100 100 100 100 100 96 100 100 100 94 36 62 12 51 5 5 5 5 3
100 100 100 100 100 100 100 100 100 100 100 100 92 85 100 100 100 100 100 100 100 100 100 100 100 92 100 100 100 86 100 100 20 78 54 47 5 20 14 100 96 28 2
100 100 100 100 100 100 100 100 100 100 100 100 100 100 100 100 100 100 100 100 100 100 100 100 100 100 100 100 100 100 97 74 60 43 92 71 5 39 5 7 4 11 3
100 100 100 100 100 100 100 100 100 100 100 100 100 100 100 100 100 100 100 100 100 100 100 100 98 100 100 100 100 100 100 100 100 100 91 78 62 5 5 35 6 5 35
100 100 100 100 100 100 100 100 100 100 100 100 100 99 100 100 100 100 100 100 100 100 100 100 100 100 100 100 100 100 100 100 100 100 93 53 5 6 12 5 5 21 66
100 100 100 100 100 100 100 100 100 100 100 100 100 100 100 100 100 100 100 100 100 100 100 100 100 100 100 100 100 100 100 98 100 95 100 100 85 81 100 79 22 61 24
100 100 100 100 100 100 100 100 100 100 100 100 100 100 100 100 100 100 100 100 100 100 100 100 100 100 100 100 100 100 100 100 100 100 100 91 99 88 99 96 6 6 14
100 100 100 100 100 100 100 100 100 100 100 100 100 100 100 100 100 100 100 100 100 100 100 100 100 100 100 100 100 100 98 100 100 100 100 100 100 100 100 100 99 17 32

GFSSE_prec_cloud_105.txt.gz
Cloud_Cover
11 4 0 0 0 0 0 0 2 0 0 0 0 40 0 0 0 0 1 0 20 16 12 0 14 95 80 4 0 1 2 0 2 0 0 0 0 0 1 0 0 1 0
2 64 3 0 0 0 0 0 0 0 0 0 6 62 0 0 1 1 0 22 18 14 14 0 17 98 80 0 0 0 0 0 0 0 0 0 0 0 0 0 0 0 4
78 1 6 2 0 0 0 0 0 0 0 0 0 2 4 1 0 1 0 31 72 98 28 0 99 100 86 0 2 0 0 0 0 0 0 0 0 2 10 0 0 1 5
100 3 1 2 4 0 0 0 0 0 0 0 0 0 0 0 0 7 0 55 21 7 11 0 22 56 27 0 0 0 0 0 0 0 0 0 0 10 12 88 100 90 16
76 78 4 0 0 1 0 0 0 0 4 4 5 1 0 0 0 21 0 5 5 12 7 5 5 2 2 0 0 0 0 0 0 0 0 0 0 0 5 37 45 45 10
8 100 5 0 0 0 0 0 0 2 5 5 5 4 0 0 4 15 0 0 6 5 5 5 5 5 5 3 5 0 0 0 0 0 0 0 0 0 0 0 1 5 5
3 14 85 4 0 0 5 1 0 0 1 2 5 0 1 3 0 0 0 0 1 5 5 5 6 5 5 4 3 0 0 0 0 0 0 0 0 0 0 3 8 21 24
3 46 60 5 5 2 5 4 0 0 0 0 1 3 4 3 0 0 3 5 4 2 5 8 5 5 0 0 5 1 5 0 0 0 0 0 0 0 0 3 5 5 79
10 33 77 78 86 44 4 5 5 0 0 0 5 8 5 25 5 5 54 25 5 4 0 5 5 5 4 3 5 5 5 0 0 0 0 0 0 1 5 6 5 5 49
29 45 56 100 100 53 5 14 5 4 3 0 77 5 6 100 71 57 27 57 42 19 0 3 10 5 5 5 8 5 5 2 0 0 0 0 0 6 10 100 42 46 92
54 26 84 100 99 33 30 52 10 5 0 5 5 8 86 91 100 93 94 97 5 5 5 5 5 5 5 5 27 28 5 4 2 5 3 1 3 19 97 100 100 100 5
44 78 33 72 100 80 59 24 96 21 48 5 5 97 100 100 100 100 100 100 16 5 5 5 5 5 5 68 99 68 5 5 5 5 5 5 26 100 100 100 100 53 5
11 41 41 38 100 96 100 86 37 99 100 92 95 100 100 100 99 96 100 100 100 74 30 20 5 5 13 89 99 100 82 22 14 5 5 5 5 77 99 100 100 76 11
46 79 31 5 18 91 100 100 92 85 100 100 100 100 99 100 100 100 100 100 85 84 31 5 96 56 80 99 100 100 100 100 34 5 5 5 5 11 98 24 35 5 5
7 16 48 21 24 54 100 100 100 100 100 100 100 100 100 100 100 100 100 96 99 100 39 5 5 21 100 100 100 100 100 100 94 76 5 5 5 5 5 34 38 8 37
1 16 18 28 2 5 100 100 100 100 100 100 100 100 100 100 100 100 91 58 70 31 19 60 17 70 100 100 100 100 100 100 99 95 5 44 100 5 2 5 10 94 95
0 9 5 6 19 13 100 100 100 100 100 100 100 100 100 100 100 100 100 100 100 100 100 97 100 100 100 100 100 100 100 100 84 100 88 100 100 48 4 0 1 68 90
4 50 17 5 78 68 100 100 100 100 100 100 100 100 100 100 100 100 100 100 100 100 100 100 100 100 100 100 100 100 100 100 95 58 86 98 56 5 5 2 5 1 5
6 14 20 86 100 97 100 100 100 100 100 100 100 100 100 100 100 100 100 100 100 100 100 100 100 100 100 100 100 100 100 100 100 100 100 44 37 5 3 0 2 3 5
59 95 100 100 100 100 100 100 100 100 100 100 100 97 100 100 100 100 100 100 100 100 100 100 100 100 100 100 100 100 100 100 100 99 56 89 67 5 13 5 5 10 52
72 100 100 100 100 100 100 100 100 100 100 100 100 100 100 100 100 100 100 100 100 100 100 100 100 100 100 100 100 100 96 100 100 89 100 100 100 47 5 5 5 16 12
100 100 100 100 100 100 100 100 100 100 100 100 100 100 100 100 100 100 100 100 100 100 100 100 100 98 100 100 99 98 100 100 100 100 66 96 100 79 76 5 27 40 31
100 100 100 100 100 100 100 100 100 100 100 100 100 100 100 100 100 100 100 100 100 100 100 100 100 100 100 77 89 100 100 100 100 100 100 80 100 73 98 20 100 83 56
100 100 100 100 100 100 100 100 100 100 100 100 100 100 100 100 100 100 100 100 100 100 100 100 100 100 100 100 99 100 100 100 100 100 100 100 94 98 76 64 74 79 7
100 100 100 100 100 100 100 100 100 100 100 100 100 100 100 100 100 100 100 100 100 100 100 100 100 100 100 100 100 100 100 96 71 98 100 98 100 100 100 70 94 93 65
100 100 100 100 100 100 100 100 100 100 100 100 100 100 100 100 100 100 100 100 100 100 100 100 100 100 100 100 100 100 88 97 100 97 100 78 100 96 84 100 100 72 84

GFSSE_prec_cloud_108.txt.gz
Cloud_Cover
42 90 2 1 0 1 9 0 0 0 0 0 27 62 6 0 0 0 10 4 29 0 0 80 100 68 0 0 0 14 5 12 0 0 0 1 5 0 3 0 0 5 19
78 11 100 20 0 0 2 0 0 0 0 0 44 92 21 5 0 0 7 23 11 8 8 69 100 80 0 31 5 0 0 0 0 0 0 0 0 0 2 8 0 1 0
100 13 2 19 5 0 0 0 0 0 0 0 1 58 0 0 0 1 15 18 16 35 0 97 100 0 10 1 0 0 0 0 0 0 0 0 6 25 1 0 0 2 13
40 97 8 5 1 0 0 0 0 0 0 0 0 7 0 4 0 7 24 2 100 36 8 100 100 0 12 8 0 0 0 0 0 0 0 0 2 7 0 8 31 100 34
0 15 44 5 3 0 0 0 0 0 0 0 0 0 0 0 0 0 54 0 50 4 6 22 13 1 0 0 0 0 0 0 0 0 0 0 0 40 71 30 8 6 5
8 1 3 5 5 3 0 0 0 5 0 0 0 0 0 0 0 0 9 0 5 5 5 8 7 5 4 4 0 0 0 0 0 0 0 0 0 0 0 0 0 0 5
20 1 33 4 5 5 0 5 4 0 0 0 0 0 0 0 4 8 0 0 0 5 5 4 5 14 5 4 0 0 0 4 0 0 0 0 0 0 0 0 5 11 12
6 7 6 70 39 5 0 0 3 5 4 0 0 0 0 0 0 20 0 0 0 0 1 3 3 5 5 5 0 4 5 5 5 1 0 0 0 0 0 0 55 100 39
23 33 24 1 16 5 5 1 0 3 4 2 0 0 0 4 0 1 0 3 5 5 1 0 5 0 4 5 5 5 5 13 5 5 4 2 5 0 0 5 5 24 99
73 54 36 27 0 2 20 5 3 0 2 5 2 0 1 2 5 0 0 5 5 2 1 5 4 3 0 0 5 5 5 5 5 5 5 5 5 5 4 0 22 20 92
97 40 26 0 3 52 42 14 71 12 5 2 5 5 5 74 10 5 2 2 1 0 0 5 5 6 5 5 5 7 52 33 58 21 5 5 18 5 5 5 31 59 75
100 85 37 0 4 4 38 68 92 96 48 5 5 5 27 100 76 42 94 84 18 99 5 4 5 7 93 24 17 10 30 89 100 89 29 18 5 45 5 5 5 4 52
100 98 32 0 5 4 15 97 39 100 88 76 82 5 72 100 92 100 98 100 100 23 32 24 5 3 66 60 64 41 78 90 100 100 100 16 18 5 5 5 5 5 58
98 92 32 37 20 6 17 80 92 29 98 99 47 30 96 94 100 100 100 100 100 72 24 6 7 6 26 73 25 93 100 100 100 100 100 85 40 10 5 5 5 3 5
11 5 68 28 5 5 6 100 100 100 96 100 98 69 100 100 94 100 100 100 100 98 30 18 3 64 100 23 9 23 99 100 100 100 100 89 27 11 7 5 3 0 3
31 5 16 36 21 5 5 36 100 73 100 100 100 69 100 100 100 100 100 100 100 100 96 16 73 32 22 36 57 88 100 91 100 100 100 62 100 14 5 5 0 0 1
0 4 6 12 0 17 12 4 8 67 100 100 100 100 100 100 100 100 100 100 100 58 94 88 98 98 99 100 99 100 100 100 100 100 100 100 77 30 5 5 5 5 5
10 25 4 5 51 43 19 4 1 16 100 100 100 100 100 100 100 100 100 100 100 76 100 100 100 99 100 100 100 100 100 100 100 100 100 100 100 5 5 5 5 5 98
4 24 23 0 11 65 56 14 10 0 94 100 100 100 100 100 100 100 100 100 100 100 100 100 100 100 100 100 100 100 100 100 100 100 100 100 100 54 6 5 5 16 74
10 11 5 19 24 100 36 45 82 45 6 100 100 100 100 100 100 100 100 100 100 100 100 100 100 100 100 100 100 100 100 100 100 100 100 100 96 64 45 5 14 67 97
24 25 20 49 71 47 15 98 100 100 55 100 100 100 100 100 100 100 100 100 100 100 100 100 100 100 100 100 100 100 100 100 100 100 92 100 82 63 5 22 97 93 100
2 5 1 58 49 87 100 76 100 100 100 100 98 100 100 100 100 100 100 100 100 100 100 100 100 100 100 100 100 100 100 100 100 99 52 25 72 70 75 71 66 47 86
21 8 3 90 87 42 100 77 99 100 100 100 92 100 100 100 100 100 100 100 100 100 100 100 100 100 100 100 100 100 100 100 100 78 75 62 47 95 72 64 20 76 98
0 54 51 95 80 74 100 100 100 100 100 100 100 100 100 100 100 100 100 100 100 100 100 100 100 100 99 100 100 100 100 100 98 53 60 34 97 75 96 78 100 100 90
53 48 100 100 99 100 100 100 100 100 100 100 100 100 100 100 100 100 100 100 100 100 100 100 100 100 100 100 100 100 100 98 100 100 99 99 50 100 100 100 100 100 100
100 100 100 100 100 100 100 100 100 100 100 100 100 100 100 100 100 100 100 100 100 100 100 100 100 100 100 100 100 100 100 100 100 98 100 80 66 100 100 100 57 100 100

GFSSE_prec_cloud_111.txt.gz
Cloud_Cover
30 6 5 24 0 0 2 0 0 0 0 0 60 41 10 0 0 0 1 0 0 0 49 77 0 35 50 0 0 34 2 1 3 4 1 0 3 2 0 2 0 2 19
5 6 55 20 5 1 0 0 0 0 0 9 99 100 25 0 0 32 11 24 0 89 87 39 2 0 49 83 100 19 0 0 0 0 0 0 0 0 0 5 0 1 2
39 8 34 5 5 3 0 0 0 0 0 0 94 100 71 0 0 25 14 6 2 8 2 67 46 50 100 19 5 0 0 0 0 0 0 4 5 8 0 0 4 8 27
16 82 13 5 5 5 6 15 0 0 0 0 2 100 5 0 0 6 11 8 37 5 96 92 11 59 0 0 0 0 0 0 0 0 0 0 3 5 0 0 79 90 7
21 25 5 5 5 5 5 12 9 0 0 0 0 2 0 0 0 17 6 1 89 4 87 6 2 7 0 0 0 0 0 0 0 0 0 0 0 15 5 1 1 0 5
35 43 7 3 5 5 4 1 7 7 0 0 0 0 0 0 0 15 0 0 0 0 88 2 11 0 0 0 0 0 0 0 0 0 0 5 5 5 4 5 5 5 5
27 12 20 0 0 4 5 5 5 5 0 0 0 0 0 0 0 33 0 0 0 0 2 0 0 4 0 1 5 0 0 0 0 4 5 5 5 5 5 5 5 5 5
75 47 20 0 2 22 3 5 4 5 5 4 0 1 0 4 4 23 0 0 0 0 0 0 0 0 3 0 0 2 5 1 3 5 5 5 5 5 5 5 5 5 5
82 94 34 14 2 3 27 5 5 5 5 5 5 1 0 0 0 15 5 2 5 5 0 0 0 0 3 2 5 2 0 0 5 5 5 5 5 2 5 5 5 5 5
99 57 100 76 40 27 6 5 3 96 5 5 5 5 5 1 0 5 5 4 5 1 5 5 5 5 4 5 5 5 5 7 5 5 5 37 5 5 5 14 5 17 18
100 98 57 100 66 7 12 2 6 7 13 5 5 3 5 9 15 2 0 4 5 5 5 5 5 5 5 5 5 6 66 21 64 42 100 100 96 5 6 62 15 26 81
100 100 89 7 5 5 3 0 4 8 22 12 13 5 5 57 100 5 5 0 5 5 5 15 97 83 32 22 20 56 58 98 98 81 100 100 100 100 38 36 23 5 5
100 100 100 38 3 4 5 3 57 95 71 32 25 32 91 17 100 28 14 8 46 38 31 17 12 23 50 99 7 6 87 100 100 100 100 100 100 100 60 5 5 11 6
44 98 73 76 11 5 4 4 5 63 100 97 15 59 7 90 100 59 67 28 33 95 100 79 18 5 5 8 30 5 49 47 29 66 80 96 100 100 100 91 13 50 6
30 59 49 19 54 16 11 5 5 11 100 96 98 84 46 86 100 100 90 91 82 91 97 100 58 5 6 66 13 5 44 32 50 31 87 100 100 100 100 100 100 86 77
0 2 13 8 41 73 11 4 13 77 24 100 35 97 26 15 98 98 94 100 93 92 100 22 70 11 57 80 92 12 14 59 97 100 100 100 100 100 100 100 100 58 81
0 0 2 5 0 4 0 15 94 90 100 99 81 100 46 49 100 100 77 100 100 100 98 60 47 5 5 68 78 81 87 92 100 100 100 100 100 100 100 100 8 16 7
0 0 0 0 9 0 0 2 41 73 90 100 100 95 89 96 100 100 99 68 100 100 96 100 89 100 96 78 46 78 100 100 100 100 100 55 100 100 100 100 57 27 99
0 0 5 2 10 2 1 6 4 4 5 55 94 76 60 42 100 100 100 100 100 100 100 100 100 100 100 100 100 100 100 100 100 100 100 100 100 100 99 91 95 86 100
0 6 4 16 16 75 38 54 65 48 26 4 28 55 86 77 100 100 100 100 100 100 100 100 100 100 100 100 100 100 100 100 100 100 100 100 100 100 100 65 96 72 72
0 29 38 58 43 44 85 100 100 98 100 50 29 71 7 34 94 100 100 100 100 100 100 100 100 100 100 100 100 100 97 100 100 100 100 100 100 100 58 91 97 32 100
0 4 54 80 100 70 100 66 51 15 100 80 23 98 53 95 100 95 100 100 100 100 100 100 100 100 100 100 100 100 100 100 100 100 100 100 100 100 100 94 100 73 27
0 22 32 42 100 41 34 41 53 27 69 100 87 95 98 81 98 100 100 100 100 100 100 100 100 100 100 100 100 100 100 100 100 100 100 94 88 92 100 93 34 10 27
7 0 5 48 45 27 22 27 14 54 91 79 96 92 53 19 100 100 100 100 100 100 100 100 100 100 100 100 100 100 100 100 100 92 63 78 100 100 62 53 100 76 98
14 14 5 12 21 0 10 87 53 98 99 99 100 100 100 100 100 100 100 100 100 100 100 100 100 100 100 100 100 100 100 100 100 92 98 97 100 100 88 100 100 100 100
7 45 31 32 30 10 39 73 77 81 100 100 100 100 100 100 100 100 100 100 100 100 100 100 100 100 100 100 100 100 100 100 100 100 100 100 100 100 100 100 100 100 100

GFSSE_prec_cloud_114.txt.gz
Cloud_Cover
12 7 1 5 3 0 0 0 0 0 4 100 100 100 50 8 5 5 0 0 0 0 0 0 30 91 1 0 0 1 21 79 36 3 0 0 0 20 6 1 38 0 4
5 6 0 5 5 5 3 0 3 0 0 3 100 100 22 1 0 5 2 0 2 85 43 0 12 8 0 86 98 3 1 6 0 0 0 0 0 0 5 3 0 17 17
20 44 4 4 5 54 19 5 4 2 4 1 100 100 46 9 0 6 6 0 78 56 84 4 0 100 100 100 6 0 0 0 0 0 0 2 0 3 17 12 7 20 19
22 15 5 5 4 5 6 23 5 6 2 1 99 100 16 1 2 2 3 2 4 7 14 17 83 100 22 1 0 0 0 0 0 0 0 18 9 23 13 8 22 5 5
31 8 5 5 1 4 5 5 5 5 5 5 1 23 5 1 0 11 17 0 4 4 85 0 24 3 0 0 0 0 0 0 0 0 0 0 5 5 6 5 5 5 5
44 14 0 1 5 0 1 15 4 8 5 5 5 5 5 5 9 6 5 3 5 5 5 4 0 0 1 0 0 0 0 0 0 0 0 0 5 5 5 5 1 5 5
74 64 2 0 0 4 0 5 5 5 4 3 5 5 5 4 2 51 5 5 5 5 13 8 2 0 0 0 0 0 0 0 0 0 0 0 0 5 5 5 5 5 5
73 22 0 0 0 0 0 4 5 5 5 1 0 4 5 3 4 24 5 5 5 5 9 5 5 5 2 3 5 3 1 0 1 2 1 5 5 4 2 5 5 40 5
41 2 100 80 2 0 0 16 4 5 5 3 3 5 5 4 1 9 5 5 5 5 5 5 5 10 10 5 21 24 5 5 5 5 5 5 37 28 5 5 8 8 68
100 38 46 100 100 100 21 1 10 5 5 5 5 6 5 5 5 5 4 5 5 5 5 5 5 5 5 5 5 14 5 11 24 5 36 5 64 100 100 50 38 90 80
92 100 98 100 100 100 100 92 3 5 5 5 0 28 100 78 5 5 27 9 55 5 6 20 5 5 5 11 52 54 33 72 38 91 34 60 27 100 100 100 100 6 7
89 100 100 99 87 73 100 100 15 47 7 5 5 9 100 100 99 10 6 25 5 48 5 55 80 5 5 25 92 100 98 80 55 11 91 100 100 10 94 100 96 45 73
15 77 100 99 48 11 26 37 18 38 30 88 59 18 58 82 100 100 99 83 10 5 16 28 66 20 18 5 28 90 99 100 76 34 100 90 97 38 100 100 100 100 100
0 0 31 90 100 66 20 53 20 10 23 98 99 59 37 24 46 72 96 99 100 59 47 40 32 95 78 66 68 62 55 56 46 72 14 44 23 22 100 100 100 100 100
0 2 8 100 99 99 56 86 100 92 5 81 44 20 44 6 78 100 90 30 55 95 100 51 64 100 99 90 5 74 15 44 30 34 5 6 72 100 100 100 100 100 100
0 0 22 50 44 38 85 84 17 49 5 13 99 100 100 94 24 100 100 49 67 41 39 100 100 93 100 100 46 73 42 68 79 41 9 84 100 100 100 94 99 100 100
0 0 11 23 1 16 6 5 11 5 0 5 6 98 100 89 16 19 85 99 100 100 96 95 95 93 96 99 80 99 99 75 100 98 100 100 83 100 100 100 100 100 100
0 0 0 0 20 6 2 32 13 5 0 7 24 33 93 100 99 23 96 100 92 100 90 100 51 100 99 96 39 59 94 100 100 97 100 100 100 100 100 100 100 100 100
0 0 0 1 1 1 0 15 24 0 10 0 27 67 88 97 93 54 52 100 72 96 100 100 100 100 100 55 100 100 100 99 100 100 100 97 100 100 100 100 100 100 97
0 0 0 13 1 12 11 13 30 43 46 10 2 40 50 100 100 98 100 87 100 100 100 100 100 100 100 71 97 100 100 100 100 100 100 100 100 100 100 100 27 59 100
0 0 0 18 31 58 100 100 75 29 100 100 51 0 18 40 98 100 100 100 100 100 100 100 100 100 100 100 100 100 100 100 100 100 100 100 100 100 100 86 58 77 78
0 0 0 0 8 57 76 99 63 55 88 99 86 24 90 80 62 70 78 100 98 100 100 100 100 100 100 100 100 100 100 100 100 100 100 100 100 88 81 56 51 98 87
0 0 0 0 0 88 93 40 100 100 78 61 92 57 100 100 100 90 27 6 99 100 100 100 100 100 100 100 100 100 100 100 100 100 100 100 100 100 86 76 80 99 86
0 0 0 32 26 100 41 70 100 100 74 41 42 50 75 100 80 95 52 70 99 100 100 100 100 100 100 100 100 100 100 100 100 100 100 100 100 99 99 100 100 100 100
0 2 4 44 66 96 100 100 100 100 5 6 25 60 97 42 99 90 74 100 100 100 100 100 100 100 100 100 100 100 100 100 100 100 100 100 100 100 100 100 100 100 100
5 33 32 46 99 58 56 82 85 36 13 53 81 90 100 100 100 100 100 100 100 100 100 100 100 100 100 100 100 100 100 100 100 100 100 100 100 100 100 100 100 100 100

GFSSE_prec_cloud_117.txt.gz
Cloud_Cover
13 52 60 64 5 5 0 6 0 0 0 73 100 100 100 93 10 4 5 1 4 0 7 6 1 0 0 2 3 9 27 87 29 1 0 0 2 26 3 0 1 43 28
5 44 5 48 40 5 4 4 5 0 0 26 85 100 98 9 0 5 72 8 1 0 1 0 21 0 0 0 0 0 19 0 0 0 0 0 0 0 8 1 1 49 33
9 26 2 5 5 5 1 4 5 5 5 4 80 100 62 5 11 3 2 1 24 100 0 0 0 11 100 49 1 0 3 0 0 0 0 17 29 6 8 5 5 6 5
56 73 7 0 5 5 5 5 5 5 5 5 100 100 86 14 1 8 2 5 90 30 1 0 23 98 86 0 0 0 0 0 0 0 9 15 17 14 5 5 5 5 5
66 61 42 47 1 5 5 5 5 5 7 5 53 6 27 13 4 6 6 5 22 5 5 10 98 0 0 0 0 0 0 0 0 0 0 0 0 7 4 5 5 5 5
68 34 5 4 3 5 5 5 5 5 5 5 5 56 5 9 5 13 61 39 4 5 5 85 5 5 4 0 0 0 2 1 0 0 0 0 0 0 5 5 5 5 5
76 52 16 0 0 2 5 5 13 52 5 4 5 3 5 34 6 5 99 57 5 5 5 5 5 7 5 5 5 5 5 5 5 5 5 5 5 5 5 5 5 5 25
71 43 46 0 0 0 0 0 2 5 5 5 0 0 3 5 5 5 100 59 6 5 9 14 5 44 38 33 5 5 5 5 5 47 17 5 5 4 5 5 16 4 5
94 11 100 98 0 0 0 0 0 0 4 5 4 1 1 1 3 5 5 19 95 43 58 13 5 5 5 5 5 5 14 34 6 55 68 34 5 5 25 100 99 99 6
91 100 65 100 100 100 69 41 16 0 0 5 5 4 5 5 0 4 5 21 5 5 19 5 5 22 5 95 67 93 74 88 71 85 71 52 27 5 20 100 100 100 82
0 80 100 100 100 100 100 90 90 97 5 7 4 5 19 12 57 5 9 23 5 5 5 5 6 46 91 82 85 77 66 54 63 12 56 99 12 100 100 63 96 100 100
0 0 33 100 100 100 100 100 95 92 92 13 12 6 10 2 5 12 10 30 95 58 7 5 5 13 58 88 77 91 74 54 61 94 98 100 27 70 100 94 5 100 100
0 0 0 46 100 100 100 100 100 100 100 90 30 29 24 18 23 7 32 43 62 100 100 90 69 70 50 82 74 74 94 93 93 36 98 100 41 42 7 24 11 70 100
0 0 0 6 68 87 46 98 100 100 100 98 28 28 41 59 65 68 56 88 98 100 100 100 99 98 85 54 93 98 67 96 82 99 100 78 100 68 21 14 98 100 100
0 0 0 10 25 12 5 33 84 100 100 64 23 7 22 15 27 37 53 35 100 57 100 100 100 100 89 49 15 75 100 100 99 57 93 100 98 99 46 52 100 100 100
0 0 0 0 26 73 13 4 49 100 100 99 35 66 71 73 27 20 58 49 100 22 73 95 100 100 100 100 99 68 87 90 100 75 100 100 100 100 100 100 100 100 79
0 0 0 0 23 59 33 4 8 94 98 100 36 8 13 70 100 37 25 96 14 89 62 98 96 96 8 100 100 100 100 100 100 100 96 52 100 100 100 100 100 74 100
0 0 0 0 17 38 51 23 25 85 73 100 99 70 1 60 100 100 86 78 87 81 90 35 100 99 50 94 100 100 100 100 100 96 93 99 100 100 100 100 100 100 95
0 0 0 0 0 18 41 37 16 5 6 70 16 50 4 5 18 63 87 96 61 87 86 71 51 95 100 66 100 100 100 100 100 100 100 100 100 100 100 100 91 100 100
0 0 0 0 0 0 16 55 49 32 3 5 5 5 19 3 4 30 72 55 74 78 73 99 100 98 100 100 100 100 100 100 100 100 100 100 100 100 100 100 87 93 90
0 0 0 0 0 0 75 80 87 17 0 4 35 13 12 24 31 37 67 95 85 99 66 100 100 100 100 100 100 100 100 100 100 100 100 100 100 100 100 100 100 35 100
0 0 0 0 0 0 24 17 0 10 3 0 4 59 48 30 50 42 56 100 100 100 100 100 100 99 100 100 100 100 100 97 100 100 100 100 100 100 100 100 100 100 89
0 0 0 0 0 0 10 98 88 69 19 48 27 82 73 49 24 86 100 100 100 92 100 100 86 97 100 100 100 100 100 100 100 100 100 100 100 100 100 100 100 100 100
0 0 0 0 0 0 0 100 100 100 22 43 68 33 92 41 89 100 100 100 100 85 89 99 73 98 100 98 100 100 100 100 100 100 100 100 100 100 100 100 100 100 100
0 0 0 0 0 0 0 100 100 100 100 100 94 98 58 81 43 92 100 100 100 63 88 63 42 100 100 100 100 100 100 100 100 100 100 100 100 100 100 100 100 100 100
0 0 0 11 2 35 87 100 100 100 100 100 91 100 100 100 96 100 100 99 57 89 98 100 94 100 100 96 100 100 100 100 100 100 100 100 100 100 100 100 100 100 100

GFSSE_prec_cloud_120.txt.gz
Cloud_Cover
26 100 98 100 40 5 5 0 0 2 0 0 0 97 100 44 7 0 4 5 10 5 42 11 33 6 2 11 3 4 58 44 12 1 0 0 15 10 6 5 92 92 5
58 100 49 59 72 5 5 1 0 0 5 5 0 21 100 88 2 1 3 4 73 32 14 6 14 11 6 9 7 100 22 2 0 0 0 0 7 2 7 0 0 6 5
71 100 2 4 24 5 5 5 4 0 3 5 5 9 100 14 1 4 6 1 5 13 3 3 4 1 8 0 4 22 3 0 0 0 1 83 35 6 21 3 4 5 5
95 92 72 0 1 5 5 4 5 1 0 1 4 13 99 52 12 5 4 5 19 0 5 5 5 93 8 8 7 7 0 0 0 1 3 6 13 9 7 5 5 5 5
66 77 100 0 0 1 4 5 5 5 2 0 4 42 99 13 98 94 12 55 24 5 0 4 58 5 5 0 0 0 0 0 0 0 5 5 5 5 5 5 5 6 5
95 53 63 0 0 0 0 1 5 5 5 5 5 5 7 6 6 96 98 90 5 5 5 5 5 5 5 4 0 0 0 0 0 3 5 5 5 5 5 5 5 21 5
85 97 63 0 0 0 0 0 0 94 40 5 5 5 5 5 5 4 100 100 100 96 26 26 58 5 9 5 5 5 5 2 5 4 5 5 5 5 5 15 29 99 23
94 55 88 0 0 35 0 0 0 7 100 78 8 5 5 5 5 5 3 76 100 100 95 31 5 63 60 89 62 51 16 6 18 5 5 5 27 5 5 5 95 100 100
89 74 29 17 82 94 63 1 0 0 80 100 100 91 36 6 5 5 5 5 13 12 73 100 52 14 6 35 93 95 65 41 48 51 24 9 6 32 5 4 7 100 100
82 98 69 50 17 94 100 16 18 1 0 0 2 11 6 6 1 4 5 5 5 5 5 28 5 7 35 26 89 98 27 40 70 83 47 80 62 99 59 5 34 15 93
0 64 98 77 57 52 100 100 100 100 89 100 46 12 67 6 14 13 5 33 22 5 5 5 75 93 100 100 30 100 85 90 99 72 74 62 93 100 100 35 67 100 12
0 0 15 60 79 59 100 100 100 100 100 100 100 26 11 53 96 96 44 2 63 13 7 5 50 93 62 92 62 68 67 99 100 99 98 100 92 92 100 100 21 66 79
0 0 0 2 61 97 87 96 100 100 100 100 100 58 52 26 27 41 86 53 54 7 60 87 35 6 90 100 98 99 100 98 95 100 100 94 100 86 91 82 33 10 83
0 0 0 0 20 38 33 18 100 100 100 100 100 100 100 52 43 39 84 99 94 25 59 82 100 98 62 70 100 100 74 100 87 92 100 100 100 86 100 76 82 100 81
0 0 0 0 0 45 51 9 58 100 100 84 98 87 50 44 53 36 44 99 96 66 41 25 31 53 100 100 100 100 100 100 96 18 48 100 100 100 94 100 100 85 98
1 0 0 0 0 3 48 36 2 52 100 100 92 68 47 62 49 87 22 66 65 100 99 70 11 73 51 100 100 100 100 100 100 100 100 60 87 100 100 100 100 100 100
0 0 0 0 0 0 2 49 32 0 7 60 100 100 100 62 66 40 53 42 42 35 28 98 53 5 89 87 12 46 21 99 100 100 99 100 100 100 100 100 100 100 100
3 4 4 1 0 0 0 92 84 42 2 4 5 53 83 70 60 39 77 71 29 36 84 55 48 99 10 100 97 80 5 5 5 97 95 98 100 100 99 100 100 100 100
0 0 0 0 4 0 0 94 100 98 58 24 1 0 100 90 65 5 6 58 98 59 97 74 24 41 92 95 97 100 70 44 52 100 100 100 100 100 100 100 100 100 100
0 0 0 0 0 1 4 52 100 100 93 71 24 0 18 74 91 80 84 9 39 66 91 99 67 44 28 70 61 43 100 100 100 100 99 100 100 100 100 100 100 100 100
0 0 0 0 0 0 0 0 100 100 82 67 62 9 0 65 5 25 7 15 91 100 100 100 82 100 64 81 100 11 77 100 100 100 99 100 100 89 100 100 100 100 100
0 0 0 0 0 0 0 0 0 16 24 18 31 20 0 0 5 17 53 100 96 72 100 99 100 100 85 95 93 94 100 100 100 100 100 100 99 99 100 100 100 100 100
0 0 0 0 0 0 0 0 4 92 72 34 1 2 3 4 0 20 48 100 87 40 100 100 80 100 76 98 61 100 90 97 100 94 100 100 100 100 100 100 100 100 100
0 0 0 0 0 0 0 0 11 100 46 0 0 11 69 20 5 18 54 57 46 93 100 100 100 100 93 100 72 100 84 95 100 94 100 100 100 100 100 100 100 100 100
0 0 0 0 0 0 0 0 0 16 96 49 78 62 69 53 56 75 46 54 100 100 100 100 100 100 100 100 100 90 100 100 100 100 100 100 100 100 100 100 100 100 100
0 0 0 0 0 0 0 0 0 0 58 94 20 66 72 100 87 92 94 69 78 96 100 100 100 100 100 100 100 100 100 100 100 100 100 98 100 100 100 100 100 100 100